Darstellungsparameter: Aktuell verwendete Einstellungen:
Skalierung der Graphiken ... ?
xyx+y,   Skalierungsfaktor:      Skalierung: Modus: x, Faktor: 1
Darstellungszeitraum ... ?
Vom - - bis: - -   Zeitraum: 16.08.2010 - 15.09.2010
Min/Max/Avg-Anzeige ... ?
Zeige MMA aktuell
Zeige MMA Monat
Zeige MMA alles
Zeige --A aktuell
Zeige --A Monat
Zeige --A alles
Keine MMA-Anzeige
MMA:
Minimum Maximum Average (ber die Originaldaten)
MMA-Basis: 16.08.2010 - 15.09.2010
Quicknavigation für Darstellung... ?
Tage:      1T, 2T, 3T, 5T -1T -2T -3T -5T +1T +2T +3T +5T
Wochen: 1W, 2W, 3W -1W -2W -3W +1W +2W +3W
Monate: 1M, 3M, 6M -1M -3M -6M +1M +3M +6M
Jahre:    1J, 3J, 5J, 10J -1J -3J -5J -10J +1J +3J +5J +10J
Nutze für die Darstellung ... ?
Originaldaten oder Mittelwerte auf ...
Stundenbasis Tagesbasis Wochenbasis
Monatsbasis Jahresbasis      Datenbasis: Original-Daten
Darstellen als:
Statistik (Auto) Statistik J:M      Darstellung:
Zur Graphik,    zurück zur Übersicht aller Sensoren.
 
Tabellarische Datenbersicht: ?
 
Sensor: Nr:Datum:Temp:Abs-Feuchte:Windchill:Wind:
Aussen-T/F 1 16-08-2010 00:09:02 15 C 12.18 g/m*3 15 C 0 km/h
2 16-08-2010 00:21:01 15 C 12.18 g/m*3 15 C 0 km/h
3 16-08-2010 00:33:02 14.9 C 12.11 g/m*3 14.9 C 0 km/h
4 16-08-2010 00:45:02 14.8 C 12.03 g/m*3 14.8 C 0 km/h
5 16-08-2010 00:57:02 14.8 C 12.03 g/m*3 14.8 C 0 km/h
6 16-08-2010 01:09:02 14.8 C 12.03 g/m*3 14.8 C 0 km/h
7 16-08-2010 01:21:02 14.7 C 11.96 g/m*3 14.7 C 0 km/h
8 16-08-2010 01:33:02 14.7 C 11.83 g/m*3 14.7 C 0 km/h
9 16-08-2010 01:45:02 14.7 C 11.83 g/m*3 14.7 C 0 km/h
10 16-08-2010 01:57:02 14.7 C 11.71 g/m*3 14.7 C 0 km/h
11 16-08-2010 02:09:02 14.6 C 11.64 g/m*3 14.6 C 0 km/h
12 16-08-2010 02:21:02 14.6 C 11.64 g/m*3 14.6 C 0 km/h
13 16-08-2010 02:33:02 14.6 C 11.64 g/m*3 14.6 C 0 km/h
14 16-08-2010 02:46:03 14.6 C 11.51 g/m*3 14.6 C 0 km/h
15 16-08-2010 02:58:03 14.6 C 11.64 g/m*3 14.6 C 0 km/h
16 16-08-2010 03:10:04 14.6 C 11.64 g/m*3 14.6 C 0 km/h
17 16-08-2010 03:22:04 14.6 C 11.64 g/m*3 14.6 C 0 km/h
18 16-08-2010 03:34:02 14.6 C 11.64 g/m*3 14.6 C 0 km/h
19 16-08-2010 03:46:02 14.6 C 11.64 g/m*3 14.6 C 0 km/h
20 16-08-2010 03:58:02 14.6 C 11.64 g/m*3 14.6 C 0 km/h
21 16-08-2010 04:10:02 14.5 C 11.44 g/m*3 14.5 C 0 km/h
22 16-08-2010 04:22:02 14.5 C 11.32 g/m*3 14.5 C 0 km/h
23 16-08-2010 04:34:02 14.5 C 11.32 g/m*3 14.5 C 0 km/h
24 16-08-2010 04:46:02 14.5 C 11.32 g/m*3 14.5 C 0 km/h
25 16-08-2010 04:58:02 14.5 C 11.32 g/m*3 14.5 C 0 km/h
Sensor: Nr:Datum:Temp:Abs-Feuchte:Windchill:Wind:
Aussen-T/F 26 16-08-2010 05:10:02 14.5 C 11.32 g/m*3 14.5 C 0 km/h
27 16-08-2010 05:22:02 14.5 C 11.32 g/m*3 14.5 C 0 km/h
28 16-08-2010 05:34:02 14.5 C 11.44 g/m*3 14.5 C 0 km/h
29 16-08-2010 05:46:01 14.5 C 11.44 g/m*3 14.5 C 0 km/h
30 16-08-2010 05:58:01 14.5 C 11.44 g/m*3 14.5 C 0 km/h
31 16-08-2010 06:10:02 14.5 C 11.44 g/m*3 14.5 C 0 km/h
32 16-08-2010 06:22:02 14.5 C 11.32 g/m*3 14.5 C 0 km/h
33 16-08-2010 06:34:02 14.5 C 11.32 g/m*3 14.5 C 0 km/h
34 16-08-2010 06:46:02 14.6 C 11.39 g/m*3 14.6 C 0 km/h
35 16-08-2010 06:58:02 14.6 C 11.39 g/m*3 14.6 C 0 km/h
36 16-08-2010 07:10:02 14.6 C 11.39 g/m*3 14.6 C 0 km/h
37 16-08-2010 07:22:56 14.8 C 11.53 g/m*3 14.8 C 0 km/h
38 16-08-2010 07:34:02 14.8 C 11.53 g/m*3 14.8 C 0 km/h
39 16-08-2010 07:46:02 14.8 C 11.4 g/m*3 14.8 C 0 km/h
40 16-08-2010 07:58:02 15.2 C 11.42 g/m*3 15.2 C 0 km/h
41 16-08-2010 08:10:02 15.6 C 11.57 g/m*3 15.6 C 0 km/h
42 16-08-2010 08:22:01 15.8 C 11.58 g/m*3 15.8 C 0 km/h
43 16-08-2010 08:34:02 15.9 C 11.38 g/m*3 15.9 C 0 km/h
44 16-08-2010 08:46:01 16 C 11.31 g/m*3 16 C 0 km/h
45 16-08-2010 08:58:01 16.3 C 11.38 g/m*3 16.3 C 0 km/h
46 16-08-2010 09:10:02 17.1 C 11.5 g/m*3 17.1 C 0 km/h
47 16-08-2010 09:22:02 17.4 C 11.12 g/m*3 17.4 C 0 km/h
48 16-08-2010 09:34:01 17.4 C 10.82 g/m*3 17.4 C 0 km/h
49 16-08-2010 09:46:01 17.7 C 11.01 g/m*3 17.7 C 0 km/h
50 16-08-2010 09:58:01 17.4 C 10.97 g/m*3 17.4 C 0 km/h
Sensor: Nr:Datum:Temp:Abs-Feuchte:Windchill:Wind:
Aussen-T/F 51 16-08-2010 10:10:01 17.4 C 10.97 g/m*3 17.4 C 0 km/h
52 16-08-2010 10:22:02 17.3 C 10.9 g/m*3 17.3 C 0 km/h
53 16-08-2010 10:34:01 17.1 C 10.63 g/m*3 17.1 C 0 km/h
54 16-08-2010 10:46:02 17.2 C 10.84 g/m*3 17.2 C 0 km/h
55 16-08-2010 10:58:02 17 C 10.85 g/m*3 17 C 0 km/h
56 16-08-2010 11:10:01 17.3 C 11.05 g/m*3 17.3 C 0 km/h
57 16-08-2010 11:22:01 17.7 C 11.47 g/m*3 17.7 C 0 km/h
58 16-08-2010 11:42:02 18.1 C 10.97 g/m*3 18.1 C 0 km/h
59 16-08-2010 11:54:02 17.7 C 10.86 g/m*3 17.7 C 0 km/h
60 16-08-2010 12:06:03 17.5 C 11.33 g/m*3 17.5 C 0 km/h
61 16-08-2010 12:18:02 17.8 C 11.84 g/m*3 17.8 C 0 km/h
62 16-08-2010 12:30:02 17.6 C 11.4 g/m*3 17.6 C 0 km/h
63 16-08-2010 12:42:02 17.8 C 11.54 g/m*3 17.8 C 0 km/h
64 16-08-2010 12:54:02 18.1 C 11.12 g/m*3 18.1 C 0 km/h
65 16-08-2010 13:06:02 18.1 C 10.97 g/m*3 18.1 C 0 km/h
66 16-08-2010 13:18:02 18.2 C 10.72 g/m*3 18.2 C 0 km/h
67 16-08-2010 13:30:02 18.3 C 10.63 g/m*3 18.3 C 0 km/h
68 16-08-2010 13:42:02 18.5 C 10.28 g/m*3 18.5 C 0 km/h
69 16-08-2010 13:54:02 18.8 C 10.31 g/m*3 18.8 C 0 km/h
70 16-08-2010 14:06:01 19.5 C 10.41 g/m*3 19.5 C 0 km/h
71 16-08-2010 14:18:02 19.6 C 9.96 g/m*3 19.6 C 0 km/h
72 16-08-2010 14:30:03 20 C 9.51 g/m*3 20 C 0 km/h
73 16-08-2010 14:42:01 20.5 C 9.96 g/m*3 20.5 C 0 km/h
74 16-08-2010 14:54:02 19.8 C 9.57 g/m*3 19.8 C 0 km/h
75 16-08-2010 15:06:02 19.7 C 9.34 g/m*3 19.7 C 0 km/h
Sensor: Nr:Datum:Temp:Abs-Feuchte:Windchill:Wind:
Aussen-T/F 76 16-08-2010 15:18:02 19.7 C 9.51 g/m*3 19.7 C 0 km/h
77 16-08-2010 15:30:02 19.7 C 9.34 g/m*3 19.7 C 0 km/h
78 16-08-2010 15:42:03 19.8 C 9.57 g/m*3 19.8 C 0 km/h
79 16-08-2010 15:54:02 19.7 C 9.34 g/m*3 19.7 C 0 km/h
80 16-08-2010 16:06:02 20 C 9.68 g/m*3 20 C 0 km/h
81 16-08-2010 16:18:02 19.7 C 9.68 g/m*3 19.7 C 0 km/h
82 16-08-2010 16:30:02 19.6 C 9.79 g/m*3 19.6 C 0 km/h
83 16-08-2010 16:42:02 19.5 C 9.73 g/m*3 19.5 C 0 km/h
84 16-08-2010 16:54:02 20 C 9.85 g/m*3 20 C 0 km/h
85 16-08-2010 17:07:03 20 C 9.85 g/m*3 20 C 0 km/h
86 16-08-2010 17:19:02 19.9 C 9.79 g/m*3 19.9 C 0 km/h
87 16-08-2010 17:31:02 19.8 C 9.74 g/m*3 19.8 C 0 km/h
88 16-08-2010 17:43:02 19.8 C 9.74 g/m*3 19.8 C 0 km/h
89 16-08-2010 17:55:01 20.3 C 9.85 g/m*3 20.3 C 0 km/h
90 16-08-2010 18:07:02 20.2 C 9.44 g/m*3 20.2 C 0 km/h
91 16-08-2010 18:19:01 20 C 9.51 g/m*3 20 C 0 km/h
92 16-08-2010 18:31:01 19.8 C 9.74 g/m*3 19.8 C 0 km/h
93 16-08-2010 18:43:01 19.5 C 9.73 g/m*3 19.5 C 0 km/h
94 16-08-2010 18:55:01 19.3 C 9.79 g/m*3 19.3 C 0 km/h
95 16-08-2010 19:07:02 18.9 C 9.88 g/m*3 18.9 C 0 km/h
96 16-08-2010 19:19:02 18.8 C 9.99 g/m*3 18.8 C 0 km/h
97 16-08-2010 19:31:01 18.7 C 10.09 g/m*3 18.7 C 0 km/h
98 16-08-2010 19:43:01 18.4 C 10.07 g/m*3 18.4 C 0 km/h
99 16-08-2010 19:55:02 18.2 C 10.26 g/m*3 18.2 C 0 km/h
100 16-08-2010 20:07:01 18.1 C 10.35 g/m*3 18.1 C 0 km/h
Sensor: Nr:Datum:Temp:Abs-Feuchte:Windchill:Wind:
Aussen-T/F 101 16-08-2010 20:19:02 18 C 10.44 g/m*3 18 C 0 km/h
102 16-08-2010 20:31:01 17.9 C 10.69 g/m*3 17.9 C 0 km/h
103 16-08-2010 20:43:01 17.8 C 10.78 g/m*3 17.8 C 0 km/h
104 16-08-2010 20:55:02 17.7 C 10.86 g/m*3 17.7 C 0 km/h
105 16-08-2010 21:07:01 17.6 C 11.1 g/m*3 17.6 C 0 km/h
106 16-08-2010 21:19:01 17.4 C 11.12 g/m*3 17.4 C 0 km/h
107 16-08-2010 21:31:02 17.3 C 11.34 g/m*3 17.3 C 0 km/h
108 16-08-2010 21:43:02 17.4 C 11.41 g/m*3 17.4 C 0 km/h
109 16-08-2010 21:55:02 17.5 C 11.63 g/m*3 17.5 C 0 km/h
110 16-08-2010 22:07:35 17.4 C 11.71 g/m*3 17.4 C 0 km/h
111 16-08-2010 22:20:03 17.5 C 11.78 g/m*3 17.5 C 0 km/h
112 16-08-2010 22:32:03 17.6 C 11.85 g/m*3 17.6 C 0 km/h
113 16-08-2010 22:44:03 17.7 C 11.92 g/m*3 17.7 C 0 km/h
114 16-08-2010 22:56:03 17.7 C 11.92 g/m*3 17.7 C 0 km/h
115 16-08-2010 23:08:03 17.8 C 12.14 g/m*3 17.8 C 0 km/h
116 16-08-2010 23:20:03 17.7 C 12.07 g/m*3 17.7 C 0 km/h
117 16-08-2010 23:32:03 17.7 C 12.07 g/m*3 17.7 C 0 km/h
118 16-08-2010 23:44:03 17.8 C 11.99 g/m*3 17.8 C 0 km/h
119 16-08-2010 23:56:03 17.8 C 11.99 g/m*3 17.8 C 0 km/h
120 17-08-2010 00:08:03 17.8 C 11.99 g/m*3 17.8 C 0 km/h
121 17-08-2010 00:20:03 17.8 C 11.99 g/m*3 17.8 C 0 km/h
122 17-08-2010 00:32:03 17.7 C 11.92 g/m*3 17.7 C 0 km/h
123 17-08-2010 00:44:03 17.5 C 11.78 g/m*3 17.5 C 0 km/h
124 17-08-2010 00:56:03 17.3 C 12.08 g/m*3 17.3 C 0 km/h
125 17-08-2010 01:08:03 17.1 C 12.08 g/m*3 17.1 C 0 km/h
Sensor: Nr:Datum:Temp:Abs-Feuchte:Windchill:Wind:
Aussen-T/F 126 17-08-2010 01:20:03 16.8 C 12.3 g/m*3 16.8 C 0 km/h
127 17-08-2010 01:32:03 16.6 C 12.29 g/m*3 16.6 C 0 km/h
128 17-08-2010 01:44:03 16.5 C 12.36 g/m*3 16.5 C 0 km/h
129 17-08-2010 01:56:03 16.4 C 12.42 g/m*3 16.4 C 0 km/h
130 17-08-2010 02:08:03 16.3 C 12.35 g/m*3 16.3 C 0 km/h
131 17-08-2010 02:20:03 16.5 C 12.5 g/m*3 16.5 C 0 km/h
132 17-08-2010 02:32:04 16.5 C 12.5 g/m*3 16.5 C 0 km/h
133 17-08-2010 02:44:04 16.6 C 12.43 g/m*3 16.6 C 0 km/h
134 17-08-2010 02:56:04 16.5 C 12.08 g/m*3 16.5 C 0 km/h
135 17-08-2010 03:08:04 16.4 C 11.86 g/m*3 16.4 C 0 km/h
136 17-08-2010 03:20:04 16.4 C 11.86 g/m*3 16.4 C 0 km/h
137 17-08-2010 03:32:04 16.4 C 11.86 g/m*3 16.4 C 0 km/h
138 17-08-2010 03:44:04 16.4 C 11.72 g/m*3 16.4 C 0 km/h
139 17-08-2010 03:56:04 16.5 C 11.65 g/m*3 16.5 C 0 km/h
140 17-08-2010 04:08:04 16.5 C 11.37 g/m*3 16.5 C 0 km/h
141 17-08-2010 04:20:04 16.4 C 11.31 g/m*3 16.4 C 0 km/h
142 17-08-2010 04:32:04 16.4 C 11.17 g/m*3 16.4 C 0 km/h
143 17-08-2010 04:44:04 16.4 C 11.03 g/m*3 16.4 C 0 km/h
144 17-08-2010 04:56:04 16.4 C 11.03 g/m*3 16.4 C 0 km/h
145 17-08-2010 05:08:04 16 C 11.04 g/m*3 16 C 0 km/h
146 17-08-2010 05:20:04 15.5 C 11.24 g/m*3 15.5 C 0 km/h
147 17-08-2010 05:32:05 15.4 C 11.43 g/m*3 15.4 C 0 km/h
148 17-08-2010 05:44:05 15.6 C 11.57 g/m*3 15.6 C 0 km/h
149 17-08-2010 05:56:05 15.6 C 11.44 g/m*3 15.6 C 0 km/h
150 17-08-2010 06:08:05 15.7 C 11.37 g/m*3 15.7 C 0 km/h
Sensor: Nr:Datum:Temp:Abs-Feuchte:Windchill:Wind:
Aussen-T/F 151 17-08-2010 06:20:05 15.8 C 11.31 g/m*3 15.8 C 0 km/h
152 17-08-2010 06:32:05 15.8 C 11.31 g/m*3 15.8 C 0 km/h
153 17-08-2010 06:44:05 15.9 C 11.24 g/m*3 15.9 C 0 km/h
154 17-08-2010 06:56:02 16 C 10.9 g/m*3 16 C 0 km/h
155 17-08-2010 07:08:02 16.2 C 10.89 g/m*3 16.2 C 0 km/h
156 17-08-2010 07:20:24 16.2 C 10.76 g/m*3 16.2 C 0 km/h
157 17-08-2010 07:32:02 16.3 C 10.96 g/m*3 16.3 C 0 km/h
158 17-08-2010 07:44:02 16.4 C 10.89 g/m*3 16.4 C 0 km/h
159 17-08-2010 07:56:01 16.7 C 10.66 g/m*3 16.7 C 0 km/h
160 17-08-2010 08:08:03 16.7 C 10.66 g/m*3 16.7 C 0 km/h
161 17-08-2010 08:20:01 16.8 C 10.58 g/m*3 16.8 C 0 km/h
162 17-08-2010 08:32:02 16.7 C 10.23 g/m*3 16.7 C 0 km/h
163 17-08-2010 08:44:02 16.7 C 10.09 g/m*3 16.7 C 0 km/h
164 17-08-2010 08:56:02 16.7 C 10.09 g/m*3 16.7 C 0 km/h
165 17-08-2010 09:08:02 16.8 C 10.01 g/m*3 16.8 C 0 km/h
166 17-08-2010 09:20:02 16.9 C 9.78 g/m*3 16.9 C 0 km/h
167 17-08-2010 09:32:02 16.9 C 9.64 g/m*3 16.9 C 0 km/h
168 17-08-2010 09:44:02 17.1 C 9.46 g/m*3 17.1 C 0 km/h
169 17-08-2010 09:56:02 17.2 C 9.37 g/m*3 17.2 C 0 km/h
170 17-08-2010 10:08:02 17 C 9.26 g/m*3 17 C 0 km/h
171 17-08-2010 10:20:01 17 C 9.26 g/m*3 17 C 0 km/h
172 17-08-2010 10:32:02 17 C 9.41 g/m*3 17 C 0 km/h
173 17-08-2010 10:44:02 17 C 9.41 g/m*3 17 C 0 km/h
174 17-08-2010 10:56:02 17.3 C 9.43 g/m*3 17.3 C 0 km/h
175 17-08-2010 11:08:02 17.6 C 9.45 g/m*3 17.6 C 0 km/h
Sensor: Nr:Datum:Temp:Abs-Feuchte:Windchill:Wind:
Aussen-T/F 176 17-08-2010 11:20:02 17.3 C 9.58 g/m*3 17.3 C 0 km/h
177 17-08-2010 11:32:02 17.6 C 9.3 g/m*3 17.6 C 0 km/h
178 17-08-2010 11:44:02 17.7 C 8.75 g/m*3 17.7 C 0 km/h
179 17-08-2010 11:56:02 17.7 C 8.9 g/m*3 17.7 C 0 km/h
180 17-08-2010 12:08:02 17.6 C 8.85 g/m*3 17.6 C 0 km/h
181 17-08-2010 12:20:02 16.8 C 9.58 g/m*3 16.8 C 0 km/h
182 17-08-2010 12:32:02 16 C 10.08 g/m*3 16 C 0 km/h
183 17-08-2010 12:44:02 16.4 C 11.03 g/m*3 16.4 C 0 km/h
184 17-08-2010 12:56:02 16.3 C 10.96 g/m*3 16.3 C 0 km/h
185 17-08-2010 13:08:02 16.5 C 11.23 g/m*3 16.5 C 0 km/h
186 17-08-2010 13:20:02 16.8 C 11.58 g/m*3 16.8 C 0 km/h
187 17-08-2010 13:32:02 17.7 C 11.92 g/m*3 17.7 C 0 km/h
188 17-08-2010 13:44:02 17.9 C 11.76 g/m*3 17.9 C 0 km/h
189 17-08-2010 13:56:02 17.6 C 12.15 g/m*3 17.6 C 0 km/h
190 17-08-2010 14:08:01 17.7 C 10.41 g/m*3 17.7 C 0 km/h
191 17-08-2010 14:20:02 17.3 C 9.28 g/m*3 17.3 C 0 km/h
192 17-08-2010 14:32:02 17.4 C 9.19 g/m*3 17.4 C 0 km/h
193 17-08-2010 14:44:02 18.1 C 8.65 g/m*3 18.1 C 0 km/h
194 17-08-2010 14:56:02 18.2 C 8.24 g/m*3 18.2 C 0 km/h
195 17-08-2010 15:08:01 17.9 C 7.94 g/m*3 17.9 C 0 km/h
196 17-08-2010 15:20:01 18.3 C 7.97 g/m*3 18.3 C 0 km/h
197 17-08-2010 15:32:02 18 C 7.99 g/m*3 18 C 0 km/h
198 17-08-2010 15:44:02 16 C 9.4 g/m*3 16 C 0 km/h
199 17-08-2010 15:56:02 15.2 C 9.99 g/m*3 15.2 C 0 km/h
200 17-08-2010 16:08:02 14.9 C 10.2 g/m*3 14.9 C 0 km/h
Sensor: Nr:Datum:Temp:Abs-Feuchte:Windchill:Wind:
Aussen-T/F 201 17-08-2010 16:20:01 14.6 C 10.01 g/m*3 14.6 C 0 km/h
202 17-08-2010 16:32:02 14.4 C 9.64 g/m*3 14.4 C 0 km/h
203 17-08-2010 16:44:02 14.8 C 9.37 g/m*3 14.8 C 0 km/h
204 17-08-2010 16:56:02 14.8 C 9.5 g/m*3 14.8 C 0 km/h
205 17-08-2010 17:08:02 14.5 C 9.45 g/m*3 14.5 C 0 km/h
206 17-08-2010 17:20:01 14.4 C 9.64 g/m*3 14.4 C 0 km/h
207 17-08-2010 17:32:02 14.2 C 9.77 g/m*3 14.2 C 0 km/h
208 17-08-2010 17:44:02 14.3 C 10.32 g/m*3 14.3 C 0 km/h
209 17-08-2010 17:56:02 14.7 C 10.7 g/m*3 14.7 C 0 km/h
210 17-08-2010 18:08:02 14.3 C 10.57 g/m*3 14.3 C 0 km/h
211 17-08-2010 18:20:02 14.4 C 10.75 g/m*3 14.4 C 0 km/h
212 17-08-2010 18:32:02 14.8 C 11.15 g/m*3 14.8 C 0 km/h
213 17-08-2010 18:44:02 15.2 C 11.29 g/m*3 15.2 C 0 km/h
214 17-08-2010 18:56:02 15.3 C 11.23 g/m*3 15.3 C 0 km/h
215 17-08-2010 19:08:02 15.2 C 11.16 g/m*3 15.2 C 0 km/h
216 17-08-2010 19:20:02 15 C 11.03 g/m*3 15 C 0 km/h
217 17-08-2010 19:32:02 14.8 C 11.02 g/m*3 14.8 C 0 km/h
218 17-08-2010 19:44:02 14.7 C 11.08 g/m*3 14.7 C 0 km/h
219 17-08-2010 19:56:02 14.5 C 10.94 g/m*3 14.5 C 0 km/h
220 17-08-2010 20:08:01 14.4 C 11 g/m*3 14.4 C 0 km/h
221 17-08-2010 20:20:02 14.4 C 11 g/m*3 14.4 C 0 km/h
222 17-08-2010 20:32:02 14.2 C 10.99 g/m*3 14.2 C 0 km/h
223 17-08-2010 20:44:02 14.3 C 11.06 g/m*3 14.3 C 0 km/h
224 17-08-2010 20:56:02 14.3 C 11.06 g/m*3 14.3 C 0 km/h
225 17-08-2010 21:08:03 14.3 C 11.18 g/m*3 14.3 C 0 km/h
Sensor: Nr:Datum:Temp:Abs-Feuchte:Windchill:Wind:
Aussen-T/F 226 17-08-2010 21:20:02 14.3 C 11.18 g/m*3 14.3 C 0 km/h
227 17-08-2010 21:32:02 14.3 C 11.3 g/m*3 14.3 C 0 km/h
228 17-08-2010 21:44:02 14.4 C 11.37 g/m*3 14.4 C 0 km/h
229 17-08-2010 21:57:04 14.6 C 11.51 g/m*3 14.6 C 0 km/h
230 17-08-2010 22:09:05 14.6 C 11.51 g/m*3 14.6 C 0 km/h
231 17-08-2010 22:21:05 14.4 C 11 g/m*3 14.4 C 0 km/h
232 17-08-2010 22:33:05 14.6 C 10.64 g/m*3 14.6 C 0 km/h
233 17-08-2010 22:45:05 14.7 C 10.45 g/m*3 14.7 C 0 km/h
234 17-08-2010 22:57:05 14.8 C 10.13 g/m*3 14.8 C 0 km/h
235 17-08-2010 23:09:05 14.9 C 10.2 g/m*3 14.9 C 0 km/h
236 17-08-2010 23:21:05 14.9 C 10.2 g/m*3 14.9 C 0 km/h
237 17-08-2010 23:33:05 15 C 10 g/m*3 15 C 0 km/h
238 17-08-2010 23:45:05 15 C 9.87 g/m*3 15 C 0 km/h
239 17-08-2010 23:57:05 15.2 C 9.99 g/m*3 15.2 C 0 km/h
240 18-08-2010 00:09:05 15.3 C 9.79 g/m*3 15.3 C 0 km/h
241 18-08-2010 00:21:05 15.4 C 9.72 g/m*3 15.4 C 0 km/h
242 18-08-2010 00:33:05 15.5 C 9.65 g/m*3 15.5 C 0 km/h
243 18-08-2010 00:45:05 15.7 C 9.63 g/m*3 15.7 C 0 km/h
244 18-08-2010 00:57:05 15.7 C 9.5 g/m*3 15.7 C 0 km/h
245 18-08-2010 01:09:05 15.7 C 9.5 g/m*3 15.7 C 0 km/h
246 18-08-2010 01:21:05 15.8 C 9.42 g/m*3 15.8 C 0 km/h
247 18-08-2010 01:33:05 15.8 C 9.42 g/m*3 15.8 C 0 km/h
248 18-08-2010 01:45:05 15.8 C 9.42 g/m*3 15.8 C 0 km/h
249 18-08-2010 01:57:05 15.7 C 9.37 g/m*3 15.7 C 0 km/h
250 18-08-2010 02:09:05 15.5 C 9.39 g/m*3 15.5 C 0 km/h
Sensor: Nr:Datum:Temp:Abs-Feuchte:Windchill:Wind:
Aussen-T/F 251 18-08-2010 02:21:05 15.6 C 9.44 g/m*3 15.6 C 0 km/h
252 18-08-2010 02:33:05 15.5 C 9.39 g/m*3 15.5 C 0 km/h
253 18-08-2010 02:45:06 15.6 C 9.44 g/m*3 15.6 C 0 km/h
254 18-08-2010 02:57:06 15.5 C 9.52 g/m*3 15.5 C 0 km/h
255 18-08-2010 03:09:06 15.5 C 9.52 g/m*3 15.5 C 0 km/h
256 18-08-2010 03:21:06 15.4 C 9.46 g/m*3 15.4 C 0 km/h
257 18-08-2010 03:33:06 15.5 C 9.52 g/m*3 15.5 C 0 km/h
258 18-08-2010 03:45:06 15.4 C 9.46 g/m*3 15.4 C 0 km/h
259 18-08-2010 03:57:06 15.5 C 9.52 g/m*3 15.5 C 0 km/h
260 18-08-2010 04:09:06 15.4 C 9.33 g/m*3 15.4 C 0 km/h
261 18-08-2010 04:21:06 15.4 C 9.46 g/m*3 15.4 C 0 km/h
262 18-08-2010 04:33:06 15.2 C 9.48 g/m*3 15.2 C 0 km/h
263 18-08-2010 04:45:06 15 C 9.62 g/m*3 15 C 0 km/h
264 18-08-2010 04:57:06 15 C 9.87 g/m*3 15 C 0 km/h
265 18-08-2010 05:09:06 15 C 9.87 g/m*3 15 C 0 km/h
266 18-08-2010 05:21:06 15 C 9.75 g/m*3 15 C 0 km/h
267 18-08-2010 05:33:06 14.9 C 9.81 g/m*3 14.9 C 0 km/h
268 18-08-2010 05:45:06 14.9 C 9.81 g/m*3 14.9 C 0 km/h
269 18-08-2010 05:57:06 15 C 9.75 g/m*3 15 C 0 km/h
270 18-08-2010 06:09:06 15 C 9.62 g/m*3 15 C 0 km/h
271 18-08-2010 06:21:04 15 C 9.62 g/m*3 15 C 0 km/h
272 18-08-2010 06:33:04 15 C 9.49 g/m*3 15 C 0 km/h
273 18-08-2010 06:45:02 15.2 C 9.61 g/m*3 15.2 C 0 km/h
274 18-08-2010 06:57:02 15.2 C 9.48 g/m*3 15.2 C 0 km/h
275 18-08-2010 07:09:01 15.2 C 9.48 g/m*3 15.2 C 0 km/h
Sensor: Nr:Datum:Temp:Abs-Feuchte:Windchill:Wind:
Aussen-T/F 276 18-08-2010 07:21:01 15.3 C 9.66 g/m*3 15.3 C 0 km/h
277 18-08-2010 07:33:02 15.4 C 9.72 g/m*3 15.4 C 0 km/h
278 18-08-2010 07:45:02 15.5 C 9.78 g/m*3 15.5 C 0 km/h
279 18-08-2010 07:57:02 15.8 C 9.83 g/m*3 15.8 C 0 km/h
280 18-08-2010 08:09:02 15.9 C 9.89 g/m*3 15.9 C 0 km/h
281 18-08-2010 08:21:01 16 C 9.81 g/m*3 16 C 0 km/h
282 18-08-2010 08:33:02 16.1 C 9.87 g/m*3 16.1 C 0 km/h
283 18-08-2010 08:45:02 16.3 C 9.85 g/m*3 16.3 C 0 km/h
284 18-08-2010 08:57:02 16.5 C 9.97 g/m*3 16.5 C 0 km/h
285 18-08-2010 09:09:02 16.7 C 10.23 g/m*3 16.7 C 0 km/h
286 18-08-2010 09:21:02 17 C 10.13 g/m*3 17 C 0 km/h
287 18-08-2010 09:33:02 17 C 10.13 g/m*3 17 C 0 km/h
288 18-08-2010 09:45:02 17.5 C 10.14 g/m*3 17.5 C 0 km/h
289 18-08-2010 09:57:02 17.3 C 10.16 g/m*3 17.3 C 0 km/h
290 18-08-2010 10:09:02 17.4 C 10.08 g/m*3 17.4 C 0 km/h
291 18-08-2010 10:21:02 17.8 C 10.32 g/m*3 17.8 C 0 km/h
292 18-08-2010 10:33:01 18 C 10.14 g/m*3 18 C 0 km/h
293 18-08-2010 10:45:02 18.5 C 10.28 g/m*3 18.5 C 0 km/h
294 18-08-2010 10:57:02 19.1 C 10.16 g/m*3 19.1 C 0 km/h
295 18-08-2010 11:09:01 18.8 C 9.99 g/m*3 18.8 C 0 km/h
296 18-08-2010 11:21:02 18.9 C 10.21 g/m*3 18.9 C 0 km/h
297 18-08-2010 11:33:02 18.5 C 10.13 g/m*3 18.5 C 0 km/h
298 18-08-2010 11:45:02 18.5 C 10.28 g/m*3 18.5 C 0 km/h
299 18-08-2010 11:57:02 18.8 C 10.31 g/m*3 18.8 C 0 km/h
300 18-08-2010 12:09:02 19.1 C 10.16 g/m*3 19.1 C 0 km/h
Sensor: Nr:Datum:Temp:Abs-Feuchte:Windchill:Wind:
Aussen-T/F 301 18-08-2010 12:21:02 18.9 C 10.69 g/m*3 18.9 C 0 km/h
302 18-08-2010 12:33:02 18.8 C 10.63 g/m*3 18.8 C 0 km/h
303 18-08-2010 12:45:02 18.3 C 10.94 g/m*3 18.3 C 0 km/h
304 18-08-2010 12:57:02 19 C 10.92 g/m*3 19 C 0 km/h
305 18-08-2010 13:09:02 20 C 10.54 g/m*3 20 C 0 km/h
306 18-08-2010 13:21:02 19.8 C 10.76 g/m*3 19.8 C 0 km/h
307 18-08-2010 13:33:02 20.4 C 10.26 g/m*3 20.4 C 0 km/h
308 18-08-2010 13:45:02 21.5 C 9.99 g/m*3 21.5 C 0 km/h
309 18-08-2010 13:57:02 22.3 C 9.48 g/m*3 22.3 C 0 km/h
310 18-08-2010 14:09:02 22.2 C 9.03 g/m*3 22.2 C 0 km/h
311 18-08-2010 14:21:02 22.7 C 9.29 g/m*3 22.7 C 0 km/h
312 18-08-2010 14:33:02 22.7 C 9.29 g/m*3 22.7 C 0 km/h
313 18-08-2010 14:45:02 23.2 C 8.73 g/m*3 23.2 C 0 km/h
314 18-08-2010 14:57:02 23.4 C 8.83 g/m*3 23.4 C 0 km/h
315 18-08-2010 15:09:02 22.5 C 8.99 g/m*3 22.5 C 0 km/h
316 18-08-2010 15:21:02 21.3 C 9.51 g/m*3 21.3 C 0 km/h
317 18-08-2010 15:33:02 22 C 9.12 g/m*3 22 C 0 km/h
318 18-08-2010 15:45:02 22.4 C 8.74 g/m*3 22.4 C 0 km/h
319 18-08-2010 15:57:02 23 C 8.63 g/m*3 23 C 0 km/h
320 18-08-2010 16:09:02 22.7 C 9.09 g/m*3 22.7 C 0 km/h
321 18-08-2010 16:21:02 22.8 C 9.35 g/m*3 22.8 C 0 km/h
322 18-08-2010 16:33:02 23.6 C 9.15 g/m*3 23.6 C 0 km/h
323 18-08-2010 16:45:01 24.5 C 8.73 g/m*3 24.5 C 0 km/h
324 18-08-2010 16:57:01 24.8 C 8.65 g/m*3 24.8 C 0 km/h
325 18-08-2010 17:09:01 24 C 8.7 g/m*3 24 C 0 km/h
Sensor: Nr:Datum:Temp:Abs-Feuchte:Windchill:Wind:
Aussen-T/F 326 18-08-2010 17:21:01 23.2 C 8.94 g/m*3 23.2 C 0 km/h
327 18-08-2010 17:33:02 23.5 C 8.88 g/m*3 23.5 C 0 km/h
328 18-08-2010 17:45:02 24.5 C 8.95 g/m*3 24.5 C 0 km/h
329 18-08-2010 17:57:02 24.2 C 8.8 g/m*3 24.2 C 0 km/h
330 18-08-2010 18:09:02 22.8 C 9.35 g/m*3 22.8 C 0 km/h
331 18-08-2010 18:21:01 22.9 C 9.4 g/m*3 22.9 C 0 km/h
332 18-08-2010 18:33:02 22.2 C 9.03 g/m*3 22.2 C 0 km/h
333 18-08-2010 18:45:02 22 C 9.12 g/m*3 22 C 0 km/h
334 18-08-2010 18:57:02 21.9 C 8.88 g/m*3 21.9 C 0 km/h
335 18-08-2010 19:09:02 21.3 C 8.95 g/m*3 21.3 C 0 km/h
336 18-08-2010 19:21:01 21.1 C 9.03 g/m*3 21.1 C 0 km/h
337 18-08-2010 19:33:02 20.8 C 9.23 g/m*3 20.8 C 0 km/h
338 18-08-2010 19:45:01 20.4 C 9.38 g/m*3 20.4 C 0 km/h
339 18-08-2010 19:57:01 19.8 C 10.08 g/m*3 19.8 C 0 km/h
340 18-08-2010 20:09:02 19.2 C 10.22 g/m*3 19.2 C 0 km/h
341 18-08-2010 20:21:02 19.5 C 10.07 g/m*3 19.5 C 0 km/h
342 18-08-2010 20:33:02 19.5 C 9.9 g/m*3 19.5 C 0 km/h
343 18-08-2010 20:45:02 19.5 C 9.9 g/m*3 19.5 C 0 km/h
344 18-08-2010 20:57:02 19.5 C 9.9 g/m*3 19.5 C 0 km/h
345 18-08-2010 21:09:01 19.3 C 9.95 g/m*3 19.3 C 0 km/h
346 18-08-2010 21:21:02 19.1 C 10 g/m*3 19.1 C 0 km/h
347 18-08-2010 21:33:01 18.7 C 10.25 g/m*3 18.7 C 0 km/h
348 18-08-2010 21:45:02 18.7 C 10.41 g/m*3 18.7 C 0 km/h
349 18-08-2010 21:57:02 18.3 C 10.32 g/m*3 18.3 C 0 km/h
350 18-08-2010 22:09:01 18.1 C 10.51 g/m*3 18.1 C 0 km/h
Sensor: Nr:Datum:Temp:Abs-Feuchte:Windchill:Wind:
Aussen-T/F 351 18-08-2010 22:22:04 17.7 C 10.56 g/m*3 17.7 C 0 km/h
352 18-08-2010 22:34:04 17.5 C 10.59 g/m*3 17.5 C 0 km/h
353 18-08-2010 22:46:04 17.3 C 10.61 g/m*3 17.3 C 0 km/h
354 18-08-2010 22:58:04 17.4 C 10.67 g/m*3 17.4 C 0 km/h
355 18-08-2010 23:10:04 17.6 C 10.8 g/m*3 17.6 C 0 km/h
356 18-08-2010 23:22:04 17.7 C 10.56 g/m*3 17.7 C 0 km/h
357 18-08-2010 23:34:04 17.6 C 10.2 g/m*3 17.6 C 0 km/h
358 18-08-2010 23:46:04 17.5 C 9.69 g/m*3 17.5 C 0 km/h
359 18-08-2010 23:58:04 17.5 C 9.69 g/m*3 17.5 C 0 km/h
360 19-08-2010 00:10:04 17.4 C 9.19 g/m*3 17.4 C 0 km/h
361 19-08-2010 00:22:04 17.4 C 9.34 g/m*3 17.4 C 0 km/h
362 19-08-2010 00:34:04 17.4 C 9.04 g/m*3 17.4 C 0 km/h
363 19-08-2010 00:46:04 17.3 C 9.13 g/m*3 17.3 C 0 km/h
364 19-08-2010 00:58:04 17.3 C 8.99 g/m*3 17.3 C 0 km/h
365 19-08-2010 01:10:04 17.1 C 9.03 g/m*3 17.1 C 0 km/h
366 19-08-2010 01:22:05 17.1 C 9.17 g/m*3 17.1 C 0 km/h
367 19-08-2010 01:34:05 16.8 C 9.29 g/m*3 16.8 C 0 km/h
368 19-08-2010 01:46:05 16.7 C 9.24 g/m*3 16.7 C 0 km/h
369 19-08-2010 01:58:05 16.6 C 9.18 g/m*3 16.6 C 0 km/h
370 19-08-2010 02:10:05 16.5 C 8.85 g/m*3 16.5 C 0 km/h
371 19-08-2010 02:22:05 16.4 C 8.93 g/m*3 16.4 C 0 km/h
372 19-08-2010 02:34:05 16.3 C 8.6 g/m*3 16.3 C 0 km/h
373 19-08-2010 02:46:05 16.2 C 8.69 g/m*3 16.2 C 0 km/h
374 19-08-2010 02:58:05 16.2 C 8.96 g/m*3 16.2 C 0 km/h
375 19-08-2010 03:10:05 16.1 C 9.18 g/m*3 16.1 C 0 km/h
Sensor: Nr:Datum:Temp:Abs-Feuchte:Windchill:Wind:
Aussen-T/F 376 19-08-2010 03:22:05 16 C 9.26 g/m*3 16 C 0 km/h
377 19-08-2010 03:34:05 15.9 C 9.34 g/m*3 15.9 C 0 km/h
378 19-08-2010 03:46:05 15.8 C 9.15 g/m*3 15.8 C 0 km/h
379 19-08-2010 03:58:05 15.7 C 9.1 g/m*3 15.7 C 0 km/h
380 19-08-2010 04:10:05 15.7 C 9.23 g/m*3 15.7 C 0 km/h
381 19-08-2010 04:22:05 15.6 C 9.18 g/m*3 15.6 C 0 km/h
382 19-08-2010 04:34:05 15.5 C 9.39 g/m*3 15.5 C 0 km/h
383 19-08-2010 04:46:05 15.4 C 9.46 g/m*3 15.4 C 0 km/h
384 19-08-2010 04:58:05 15.5 C 9.65 g/m*3 15.5 C 0 km/h
385 19-08-2010 05:10:05 15.3 C 9.53 g/m*3 15.3 C 0 km/h
386 19-08-2010 05:22:05 15.2 C 9.48 g/m*3 15.2 C 0 km/h
387 19-08-2010 05:34:05 15 C 9.23 g/m*3 15 C 0 km/h
388 19-08-2010 05:46:05 15 C 9.36 g/m*3 15 C 0 km/h
389 19-08-2010 05:58:06 15 C 8.98 g/m*3 15 C 0 km/h
390 19-08-2010 06:10:06 14.8 C 8.99 g/m*3 14.8 C 0 km/h
391 19-08-2010 06:22:06 14.4 C 8.9 g/m*3 14.4 C 0 km/h
392 19-08-2010 06:34:06 14.2 C 8.91 g/m*3 14.2 C 0 km/h
393 19-08-2010 06:46:06 13.7 C 8.76 g/m*3 13.7 C 0 km/h
394 19-08-2010 06:58:06 13.8 C 8.94 g/m*3 13.8 C 0 km/h
395 19-08-2010 07:10:06 13.7 C 8.76 g/m*3 13.7 C 0 km/h
396 19-08-2010 07:22:06 13.9 C 8.15 g/m*3 13.9 C 0 km/h
397 19-08-2010 07:34:06 13.9 C 8.15 g/m*3 13.9 C 0 km/h
398 19-08-2010 07:46:01 14 C 8.08 g/m*3 14 C 0 km/h
399 19-08-2010 07:58:01 14.1 C 7.89 g/m*3 14.1 C 0 km/h
400 19-08-2010 08:10:02 14.4 C 7.91 g/m*3 14.4 C 0 km/h
Sensor: Nr:Datum:Temp:Abs-Feuchte:Windchill:Wind:
Aussen-T/F 401 19-08-2010 08:22:01 14.6 C 8.01 g/m*3 14.6 C 0 km/h
402 19-08-2010 08:34:01 14.8 C 8.11 g/m*3 14.8 C 0 km/h
403 19-08-2010 08:46:01 14.9 C 8.16 g/m*3 14.9 C 0 km/h
404 19-08-2010 08:58:01 15.2 C 8.05 g/m*3 15.2 C 0 km/h
405 19-08-2010 09:10:02 15.3 C 8.23 g/m*3 15.3 C 0 km/h
406 19-08-2010 09:22:01 15.4 C 8.15 g/m*3 15.4 C 0 km/h
407 19-08-2010 09:34:01 15.7 C 8.03 g/m*3 15.7 C 0 km/h
408 19-08-2010 09:46:01 16 C 8.04 g/m*3 16 C 0 km/h
409 19-08-2010 09:58:01 16.2 C 7.86 g/m*3 16.2 C 0 km/h
410 19-08-2010 10:10:02 16.6 C 7.91 g/m*3 16.6 C 0 km/h
411 19-08-2010 10:22:02 17.1 C 7.71 g/m*3 17.1 C 0 km/h
412 19-08-2010 10:34:02 17.7 C 7.69 g/m*3 17.7 C 0 km/h
413 19-08-2010 10:46:02 18.8 C 7.73 g/m*3 18.8 C 0 km/h
414 19-08-2010 10:58:02 19.3 C 7.3 g/m*3 19.3 C 0 km/h
415 19-08-2010 11:10:02 19.2 C 7.26 g/m*3 19.2 C 0 km/h
416 19-08-2010 11:22:02 19.5 C 7.38 g/m*3 19.5 C 0 km/h
417 19-08-2010 11:34:03 20.2 C 6.99 g/m*3 20.2 C 0 km/h
418 19-08-2010 11:46:02 20.4 C 7.43 g/m*3 20.4 C 0 km/h
419 19-08-2010 11:58:02 20.7 C 7.2 g/m*3 20.7 C 0 km/h
420 19-08-2010 12:10:01 20.3 C 7.03 g/m*3 20.3 C 0 km/h
421 19-08-2010 12:22:02 20.8 C 6.88 g/m*3 20.8 C 0 km/h
422 19-08-2010 12:34:02 22.1 C 6.64 g/m*3 22.1 C 0 km/h
423 19-08-2010 12:46:02 22 C 6.4 g/m*3 22 C 0 km/h
424 19-08-2010 12:58:02 22 C 6.21 g/m*3 22 C 0 km/h
425 19-08-2010 13:10:03 22.1 C 6.25 g/m*3 22.1 C 0 km/h
Sensor: Nr:Datum:Temp:Abs-Feuchte:Windchill:Wind:
Aussen-T/F 426 19-08-2010 13:22:02 22.1 C 6.05 g/m*3 22.1 C 0 km/h
427 19-08-2010 13:34:02 22.6 C 6.23 g/m*3 22.6 C 0 km/h
428 19-08-2010 13:46:01 22.7 C 6.06 g/m*3 22.7 C 0 km/h
429 19-08-2010 13:58:01 23.7 C 6.2 g/m*3 23.7 C 0 km/h
430 19-08-2010 14:10:02 23.3 C 6.27 g/m*3 23.3 C 0 km/h
431 19-08-2010 14:22:01 22.8 C 6.1 g/m*3 22.8 C 0 km/h
432 19-08-2010 14:34:01 23.7 C 5.78 g/m*3 23.7 C 0 km/h
433 19-08-2010 14:46:01 23 C 5.55 g/m*3 23 C 0 km/h
434 19-08-2010 14:58:01 22.4 C 6.36 g/m*3 22.4 C 0 km/h
435 19-08-2010 15:10:02 22.4 C 6.95 g/m*3 22.4 C 0 km/h
436 19-08-2010 15:22:01 23.2 C 6.44 g/m*3 23.2 C 0 km/h
437 19-08-2010 15:34:01 24.3 C 5.97 g/m*3 24.3 C 0 km/h
438 19-08-2010 15:46:01 24.6 C 5.63 g/m*3 24.6 C 0 km/h
439 19-08-2010 15:58:01 24.2 C 5.94 g/m*3 24.2 C 0 km/h
440 19-08-2010 16:10:01 23.4 C 7.36 g/m*3 23.4 C 0 km/h
441 19-08-2010 16:22:02 23.5 C 7.4 g/m*3 23.5 C 0 km/h
442 19-08-2010 16:34:01 23.5 C 7.82 g/m*3 23.5 C 0 km/h
443 19-08-2010 16:46:03 23.1 C 7.65 g/m*3 23.1 C 0 km/h
444 19-08-2010 16:58:03 22.9 C 7.97 g/m*3 22.9 C 0 km/h
445 19-08-2010 17:10:02 22.4 C 8.14 g/m*3 22.4 C 0 km/h
446 19-08-2010 17:22:02 22.9 C 8.17 g/m*3 22.9 C 0 km/h
447 19-08-2010 17:34:02 24.1 C 8.1 g/m*3 24.1 C 0 km/h
448 19-08-2010 17:46:02 24.5 C 7.39 g/m*3 24.5 C 0 km/h
449 19-08-2010 17:58:02 25.6 C 5.48 g/m*3 25.6 C 0 km/h
450 19-08-2010 18:10:01 25.1 C 5.32 g/m*3 25.1 C 0 km/h
Sensor: Nr:Datum:Temp:Abs-Feuchte:Windchill:Wind:
Aussen-T/F 451 19-08-2010 18:22:02 25 C 5.75 g/m*3 25 C 0 km/h
452 19-08-2010 18:34:02 25.3 C 5.85 g/m*3 25.3 C 0 km/h
453 19-08-2010 18:46:02 25.7 C 5.99 g/m*3 25.7 C 0 km/h
454 19-08-2010 18:58:02 26 C 5.84 g/m*3 26 C 0 km/h
455 19-08-2010 19:10:03 25.8 C 6.98 g/m*3 25.8 C 0 km/h
456 19-08-2010 19:22:02 25.8 C 6.26 g/m*3 25.8 C 0 km/h
457 19-08-2010 19:34:02 25.6 C 6.67 g/m*3 25.6 C 0 km/h
458 19-08-2010 19:46:01 24.9 C 6.87 g/m*3 24.9 C 0 km/h
459 19-08-2010 19:58:01 24.1 C 6.35 g/m*3 24.1 C 0 km/h
460 19-08-2010 20:10:02 22.8 C 6.71 g/m*3 22.8 C 0 km/h
461 19-08-2010 20:22:01 21.3 C 7.08 g/m*3 21.3 C 0 km/h
462 19-08-2010 20:34:02 20.1 C 7.13 g/m*3 20.1 C 0 km/h
463 19-08-2010 20:46:01 19.4 C 7.17 g/m*3 19.4 C 0 km/h
464 19-08-2010 20:58:01 18.9 C 7.45 g/m*3 18.9 C 0 km/h
465 19-08-2010 21:10:02 18.5 C 7.44 g/m*3 18.5 C 0 km/h
466 19-08-2010 21:22:01 18.3 C 7.82 g/m*3 18.3 C 0 km/h
467 19-08-2010 21:34:02 18.2 C 7.77 g/m*3 18.2 C 0 km/h
468 19-08-2010 21:46:01 17.9 C 8.09 g/m*3 17.9 C 0 km/h
469 19-08-2010 21:58:01 17.5 C 7.75 g/m*3 17.5 C 0 km/h
470 19-08-2010 22:10:02 17.3 C 7.96 g/m*3 17.3 C 0 km/h
471 19-08-2010 22:22:02 17.1 C 8.01 g/m*3 17.1 C 0 km/h
472 19-08-2010 22:34:02 17 C 7.96 g/m*3 17 C 0 km/h
473 19-08-2010 22:47:36 16.6 C 8.05 g/m*3 16.6 C 0 km/h
474 19-08-2010 22:59:36 16.3 C 8.05 g/m*3 16.3 C 0 km/h
475 19-08-2010 23:11:36 16 C 8.17 g/m*3 16 C 0 km/h
Sensor: Nr:Datum:Temp:Abs-Feuchte:Windchill:Wind:
Aussen-T/F 476 19-08-2010 23:23:36 15.8 C 8.48 g/m*3 15.8 C 0 km/h
477 19-08-2010 23:35:36 15.6 C 8.38 g/m*3 15.6 C 0 km/h
478 19-08-2010 23:47:36 15.5 C 8.46 g/m*3 15.5 C 0 km/h
479 19-08-2010 23:59:36 15.2 C 8.31 g/m*3 15.2 C 0 km/h
480 20-08-2010 00:11:36 15.1 C 8.51 g/m*3 15.1 C 0 km/h
481 20-08-2010 00:23:36 14.9 C 8.54 g/m*3 14.9 C 0 km/h
482 20-08-2010 00:35:36 14.7 C 8.56 g/m*3 14.7 C 0 km/h
483 20-08-2010 00:47:36 14.5 C 8.58 g/m*3 14.5 C 0 km/h
484 20-08-2010 00:59:36 14.4 C 8.53 g/m*3 14.4 C 0 km/h
485 20-08-2010 01:11:36 14.3 C 8.6 g/m*3 14.3 C 0 km/h
486 20-08-2010 01:23:36 14.2 C 8.67 g/m*3 14.2 C 0 km/h
487 20-08-2010 01:35:36 13.9 C 8.63 g/m*3 13.9 C 0 km/h
488 20-08-2010 01:47:37 14 C 8.56 g/m*3 14 C 0 km/h
489 20-08-2010 01:59:37 13.8 C 8.58 g/m*3 13.8 C 0 km/h
490 20-08-2010 02:11:37 13.6 C 8.59 g/m*3 13.6 C 0 km/h
491 20-08-2010 02:23:37 13.5 C 8.54 g/m*3 13.5 C 0 km/h
492 20-08-2010 02:35:37 13.3 C 8.66 g/m*3 13.3 C 0 km/h
493 20-08-2010 02:47:37 13.2 C 8.61 g/m*3 13.2 C 0 km/h
494 20-08-2010 02:59:37 13.1 C 8.56 g/m*3 13.1 C 0 km/h
495 20-08-2010 03:11:37 13 C 8.62 g/m*3 13 C 0 km/h
496 20-08-2010 03:23:03 12.9 C 8.68 g/m*3 12.9 C 0 km/h
497 20-08-2010 03:35:03 12.8 C 8.62 g/m*3 12.8 C 0 km/h
498 20-08-2010 03:47:03 12.7 C 8.57 g/m*3 12.7 C 0 km/h
499 20-08-2010 03:59:03 12.6 C 8.63 g/m*3 12.6 C 0 km/h
500 20-08-2010 04:11:03 12.4 C 8.63 g/m*3 12.4 C 0 km/h
Sensor: Nr:Datum:Temp:Abs-Feuchte:Windchill:Wind:
Aussen-T/F 501 20-08-2010 04:23:03 12.4 C 8.63 g/m*3 12.4 C 0 km/h
502 20-08-2010 04:35:03 12.3 C 8.58 g/m*3 12.3 C 0 km/h
503 20-08-2010 04:47:03 12.1 C 8.47 g/m*3 12.1 C 0 km/h
504 20-08-2010 04:59:03 12.1 C 8.58 g/m*3 12.1 C 0 km/h
505 20-08-2010 05:11:03 12 C 8.53 g/m*3 12 C 0 km/h
506 20-08-2010 05:23:03 12 C 8.63 g/m*3 12 C 0 km/h
507 20-08-2010 05:35:03 12 C 8.53 g/m*3 12 C 0 km/h
508 20-08-2010 05:47:03 11.8 C 8.53 g/m*3 11.8 C 0 km/h
509 20-08-2010 05:59:03 11.7 C 8.58 g/m*3 11.7 C 0 km/h
510 20-08-2010 06:11:03 11.6 C 8.52 g/m*3 11.6 C 0 km/h
511 20-08-2010 06:23:04 11.5 C 8.57 g/m*3 11.5 C 0 km/h
512 20-08-2010 06:35:04 11.4 C 8.52 g/m*3 11.4 C 0 km/h
513 20-08-2010 06:47:04 11.4 C 8.52 g/m*3 11.4 C 0 km/h
514 20-08-2010 06:59:04 11.5 C 8.57 g/m*3 11.5 C 0 km/h
515 20-08-2010 07:11:04 11.6 C 8.63 g/m*3 11.6 C 0 km/h
516 20-08-2010 07:23:04 11.6 C 8.73 g/m*3 11.6 C 0 km/h
517 20-08-2010 07:35:03 11.7 C 8.79 g/m*3 11.7 C 0 km/h
518 20-08-2010 07:47:03 11.8 C 8.84 g/m*3 11.8 C 0 km/h
519 20-08-2010 07:59:03 12.1 C 8.9 g/m*3 12.1 C 0 km/h
520 20-08-2010 08:11:02 12.1 C 9.01 g/m*3 12.1 C 0 km/h
521 20-08-2010 08:23:02 12.3 C 9.12 g/m*3 12.3 C 0 km/h
522 20-08-2010 08:35:02 12.5 C 9.24 g/m*3 12.5 C 0 km/h
523 20-08-2010 08:47:02 12.8 C 9.3 g/m*3 12.8 C 0 km/h
524 20-08-2010 08:59:02 13 C 9.3 g/m*3 13 C 0 km/h
525 20-08-2010 09:11:02 13.3 C 9.47 g/m*3 13.3 C 0 km/h
Sensor: Nr:Datum:Temp:Abs-Feuchte:Windchill:Wind:
Aussen-T/F 526 20-08-2010 09:23:02 13.8 C 9.77 g/m*3 13.8 C 0 km/h
527 20-08-2010 09:35:02 14.4 C 9.89 g/m*3 14.4 C 0 km/h
528 20-08-2010 09:47:02 15 C 10 g/m*3 15 C 0 km/h
529 20-08-2010 09:59:02 16 C 10.08 g/m*3 16 C 0 km/h
530 20-08-2010 10:11:01 16.8 C 10.29 g/m*3 16.8 C 0 km/h
531 20-08-2010 10:23:01 17.4 C 10.23 g/m*3 17.4 C 0 km/h
532 20-08-2010 10:35:02 18.1 C 10.2 g/m*3 18.1 C 0 km/h
533 20-08-2010 10:47:02 18.6 C 10.35 g/m*3 18.6 C 0 km/h
534 20-08-2010 10:59:02 19.2 C 10.39 g/m*3 19.2 C 0 km/h
535 20-08-2010 11:11:02 19.8 C 10.76 g/m*3 19.8 C 0 km/h
536 20-08-2010 11:23:02 20.5 C 10.68 g/m*3 20.5 C 0 km/h
537 20-08-2010 11:35:02 20.9 C 10.75 g/m*3 20.9 C 0 km/h
538 20-08-2010 11:47:02 21.7 C 11.06 g/m*3 21.7 C 0 km/h
539 20-08-2010 11:59:02 22 C 11.06 g/m*3 22 C 0 km/h
540 20-08-2010 12:11:02 22.8 C 10.97 g/m*3 22.8 C 0 km/h
541 20-08-2010 12:23:02 23.2 C 10.6 g/m*3 23.2 C 0 km/h
542 20-08-2010 12:35:02 23.7 C 11.12 g/m*3 23.7 C 0 km/h
543 20-08-2010 12:47:01 24.1 C 10.72 g/m*3 24.1 C 0 km/h
544 20-08-2010 12:59:01 25 C 10.82 g/m*3 25 C 0 km/h
545 20-08-2010 13:11:01 25.6 C 9.52 g/m*3 25.6 C 0 km/h
546 20-08-2010 13:23:01 26.4 C 9.71 g/m*3 26.4 C 0 km/h
547 20-08-2010 13:35:01 27 C 9.01 g/m*3 27 C 0 km/h
548 20-08-2010 13:47:02 27.5 C 9 g/m*3 27.5 C 0 km/h
549 20-08-2010 13:59:02 27.3 C 7.85 g/m*3 27.3 C 0 km/h
550 20-08-2010 14:11:02 27.8 C 8.07 g/m*3 27.8 C 0 km/h
Sensor: Nr:Datum:Temp:Abs-Feuchte:Windchill:Wind:
Aussen-T/F 551 20-08-2010 14:23:03 28.4 C 8.06 g/m*3 28.4 C 0 km/h
552 20-08-2010 14:35:02 28.1 C 7.11 g/m*3 28.1 C 0 km/h
553 20-08-2010 14:47:02 28.6 C 8.43 g/m*3 28.6 C 0 km/h
554 20-08-2010 14:59:02 28.9 C 7.43 g/m*3 28.9 C 0 km/h
555 20-08-2010 15:11:02 28.9 C 7.43 g/m*3 28.9 C 0 km/h
556 20-08-2010 15:23:02 29 C 7.18 g/m*3 29 C 0 km/h
557 20-08-2010 15:35:01 29.5 C 7.67 g/m*3 29.5 C 0 km/h
558 20-08-2010 15:47:02 30.1 C 7.32 g/m*3 30.1 C 0 km/h
559 20-08-2010 15:59:02 30.2 C 7.66 g/m*3 30.2 C 0 km/h
560 20-08-2010 16:11:01 30.4 C 7.75 g/m*3 30.4 C 0 km/h
561 20-08-2010 16:23:02 30.5 C 7.48 g/m*3 30.5 C 0 km/h
562 20-08-2010 16:35:02 30.9 C 7.96 g/m*3 30.9 C 0 km/h
563 20-08-2010 16:47:02 31 C 7.36 g/m*3 31 C 0 km/h
564 20-08-2010 16:59:02 30.8 C 7.28 g/m*3 30.8 C 0 km/h
565 20-08-2010 17:11:02 30.9 C 7.64 g/m*3 30.9 C 0 km/h
566 20-08-2010 17:23:02 31.2 C 7.12 g/m*3 31.2 C 0 km/h
567 20-08-2010 17:35:02 31.3 C 7.48 g/m*3 31.3 C 0 km/h
568 20-08-2010 17:47:02 31.4 C 7.19 g/m*3 31.4 C 0 km/h
569 20-08-2010 17:59:02 31 C 7.04 g/m*3 31 C 0 km/h
570 20-08-2010 18:11:02 31.3 C 7.48 g/m*3 31.3 C 0 km/h
571 20-08-2010 18:23:02 31.4 C 7.52 g/m*3 31.4 C 0 km/h
572 20-08-2010 18:35:02 31.5 C 7.56 g/m*3 31.5 C 0 km/h
573 20-08-2010 18:47:02 31 C 7.36 g/m*3 31 C 0 km/h
574 20-08-2010 18:59:02 30.9 C 8.28 g/m*3 30.9 C 0 km/h
575 20-08-2010 19:11:02 30.6 C 8.46 g/m*3 30.6 C 0 km/h
Sensor: Nr:Datum:Temp:Abs-Feuchte:Windchill:Wind:
Aussen-T/F 576 20-08-2010 19:23:03 30.3 C 8.63 g/m*3 30.3 C 0 km/h
577 20-08-2010 19:35:01 30 C 8.49 g/m*3 30 C 0 km/h
578 20-08-2010 19:47:02 29 C 8.04 g/m*3 29 C 0 km/h
579 20-08-2010 19:59:02 28 C 8.43 g/m*3 28 C 0 km/h
580 20-08-2010 20:11:02 26.6 C 8.81 g/m*3 26.6 C 0 km/h
581 20-08-2010 20:23:02 25.6 C 9.05 g/m*3 25.6 C 0 km/h
582 20-08-2010 20:35:01 25 C 9.21 g/m*3 25 C 0 km/h
583 20-08-2010 20:47:02 24.5 C 8.95 g/m*3 24.5 C 0 km/h
584 20-08-2010 20:59:03 23.8 C 9.25 g/m*3 23.8 C 0 km/h
585 20-08-2010 21:11:01 23.4 C 9.25 g/m*3 23.4 C 0 km/h
586 20-08-2010 21:23:01 23.3 C 9.41 g/m*3 23.3 C 0 km/h
587 20-08-2010 21:35:01 23.2 C 9.56 g/m*3 23.2 C 0 km/h
588 20-08-2010 21:47:02 22.9 C 9.81 g/m*3 22.9 C 0 km/h
589 20-08-2010 21:59:02 22.6 C 9.84 g/m*3 22.6 C 0 km/h
590 20-08-2010 22:11:02 22.5 C 9.99 g/m*3 22.5 C 0 km/h
591 20-08-2010 22:23:03 22.1 C 9.96 g/m*3 22.1 C 0 km/h
592 20-08-2010 22:35:02 21.9 C 10.42 g/m*3 21.9 C 0 km/h
593 20-08-2010 22:48:02 21.6 C 10.43 g/m*3 21.6 C 0 km/h
594 20-08-2010 23:00:02 21.4 C 10.5 g/m*3 21.4 C 0 km/h
595 20-08-2010 23:12:02 21.1 C 10.69 g/m*3 21.1 C 0 km/h
596 20-08-2010 23:24:02 20.9 C 10.75 g/m*3 20.9 C 0 km/h
597 20-08-2010 23:36:02 20.7 C 10.62 g/m*3 20.7 C 0 km/h
598 20-08-2010 23:48:02 20.4 C 10.61 g/m*3 20.4 C 0 km/h
599 21-08-2010 00:00:02 20.2 C 10.67 g/m*3 20.2 C 0 km/h
600 21-08-2010 00:12:02 20 C 10.71 g/m*3 20 C 0 km/h
Sensor: Nr:Datum:Temp:Abs-Feuchte:Windchill:Wind:
Aussen-T/F 601 21-08-2010 00:24:02 19.7 C 10.7 g/m*3 19.7 C 0 km/h
602 21-08-2010 00:36:02 19.6 C 10.8 g/m*3 19.6 C 0 km/h
603 21-08-2010 00:48:02 19.3 C 10.95 g/m*3 19.3 C 0 km/h
604 21-08-2010 01:00:02 19.1 C 10.98 g/m*3 19.1 C 0 km/h
605 21-08-2010 01:12:02 19 C 10.92 g/m*3 19 C 0 km/h
606 21-08-2010 01:24:02 18.8 C 11.11 g/m*3 18.8 C 0 km/h
607 21-08-2010 01:36:02 18.7 C 11.05 g/m*3 18.7 C 0 km/h
608 21-08-2010 01:48:02 18.6 C 10.98 g/m*3 18.6 C 0 km/h
609 21-08-2010 02:00:02 18.4 C 11.01 g/m*3 18.4 C 0 km/h
610 21-08-2010 02:12:02 18.2 C 11.04 g/m*3 18.2 C 0 km/h
611 21-08-2010 02:24:03 18.1 C 10.97 g/m*3 18.1 C 0 km/h
612 21-08-2010 02:36:03 18.1 C 11.12 g/m*3 18.1 C 0 km/h
613 21-08-2010 02:48:03 18 C 11.06 g/m*3 18 C 0 km/h
614 21-08-2010 03:00:03 17.9 C 11.15 g/m*3 17.9 C 0 km/h
615 21-08-2010 03:12:03 17.8 C 11.08 g/m*3 17.8 C 0 km/h
616 21-08-2010 03:24:03 17.7 C 11.16 g/m*3 17.7 C 0 km/h
617 21-08-2010 03:36:03 17.5 C 11.03 g/m*3 17.5 C 0 km/h
618 21-08-2010 03:48:03 17.4 C 11.12 g/m*3 17.4 C 0 km/h
619 21-08-2010 04:00:03 17.3 C 11.2 g/m*3 17.3 C 0 km/h
620 21-08-2010 04:12:03 17.2 C 11.13 g/m*3 17.2 C 0 km/h
621 21-08-2010 04:24:03 17.1 C 11.06 g/m*3 17.1 C 0 km/h
622 21-08-2010 04:36:03 16.9 C 11.08 g/m*3 16.9 C 0 km/h
623 21-08-2010 04:48:03 16.8 C 11.15 g/m*3 16.8 C 0 km/h
624 21-08-2010 05:00:03 16.7 C 11.08 g/m*3 16.7 C 0 km/h
625 21-08-2010 05:12:03 16.5 C 10.95 g/m*3 16.5 C 0 km/h
Sensor: Nr:Datum:Temp:Abs-Feuchte:Windchill:Wind:
Aussen-T/F 626 21-08-2010 05:24:03 16.5 C 10.95 g/m*3 16.5 C 0 km/h
627 21-08-2010 05:36:03 16.3 C 10.82 g/m*3 16.3 C 0 km/h
628 21-08-2010 05:48:03 16.3 C 10.96 g/m*3 16.3 C 0 km/h
629 21-08-2010 06:00:03 16.2 C 10.89 g/m*3 16.2 C 0 km/h
630 21-08-2010 06:12:03 16.1 C 10.83 g/m*3 16.1 C 0 km/h
631 21-08-2010 06:24:04 16 C 10.9 g/m*3 16 C 0 km/h
632 21-08-2010 06:36:04 16 C 10.9 g/m*3 16 C 0 km/h
633 21-08-2010 06:48:04 15.9 C 10.97 g/m*3 15.9 C 0 km/h
634 21-08-2010 07:00:04 15.8 C 10.9 g/m*3 15.8 C 0 km/h
635 21-08-2010 07:12:04 15.9 C 11.1 g/m*3 15.9 C 0 km/h
636 21-08-2010 07:24:04 16 C 11.04 g/m*3 16 C 0 km/h
637 21-08-2010 07:36:04 16.1 C 11.1 g/m*3 16.1 C 0 km/h
638 21-08-2010 07:48:04 16.2 C 11.17 g/m*3 16.2 C 0 km/h
639 21-08-2010 08:00:04 16.4 C 11.31 g/m*3 16.4 C 0 km/h
640 21-08-2010 08:12:02 16.6 C 11.58 g/m*3 16.6 C 0 km/h
641 21-08-2010 08:24:02 16.7 C 11.51 g/m*3 16.7 C 0 km/h
642 21-08-2010 08:36:02 17 C 11.58 g/m*3 17 C 0 km/h
643 21-08-2010 08:48:01 17.2 C 11.72 g/m*3 17.2 C 0 km/h
644 21-08-2010 09:00:01 17.5 C 11.78 g/m*3 17.5 C 0 km/h
645 21-08-2010 09:12:02 17.9 C 12.06 g/m*3 17.9 C 0 km/h
646 21-08-2010 09:24:02 18.4 C 12.27 g/m*3 18.4 C 0 km/h
647 21-08-2010 09:36:01 18.9 C 12.47 g/m*3 18.9 C 0 km/h
648 21-08-2010 09:48:02 19.4 C 12.51 g/m*3 19.4 C 0 km/h
649 21-08-2010 10:00:02 20.2 C 12.76 g/m*3 20.2 C 0 km/h
650 21-08-2010 10:12:02 20.8 C 12.86 g/m*3 20.8 C 0 km/h
Sensor: Nr:Datum:Temp:Abs-Feuchte:Windchill:Wind:
Aussen-T/F 651 21-08-2010 10:24:02 21.3 C 12.86 g/m*3 21.3 C 0 km/h
652 21-08-2010 10:36:01 22 C 12.81 g/m*3 22 C 0 km/h
653 21-08-2010 10:48:02 22.7 C 12.93 g/m*3 22.7 C 0 km/h
654 21-08-2010 11:00:02 23.3 C 12.96 g/m*3 23.3 C 0 km/h
655 21-08-2010 11:12:01 24 C 12.84 g/m*3 24 C 0 km/h
656 21-08-2010 11:24:02 24.7 C 12.68 g/m*3 24.7 C 0 km/h
657 21-08-2010 11:36:02 25.5 C 11.6 g/m*3 25.5 C 0 km/h
658 21-08-2010 11:48:01 26.3 C 10.4 g/m*3 26.3 C 0 km/h
659 21-08-2010 12:00:01 26.8 C 9.93 g/m*3 26.8 C 0 km/h
660 21-08-2010 12:12:01 27.2 C 9.89 g/m*3 27.2 C 0 km/h
661 21-08-2010 12:24:01 27.7 C 9.9 g/m*3 27.7 C 0 km/h
662 21-08-2010 12:36:01 27.9 C 10.01 g/m*3 27.9 C 0 km/h
663 21-08-2010 12:48:02 28.1 C 9.3 g/m*3 28.1 C 0 km/h
664 21-08-2010 13:00:02 28.4 C 9.73 g/m*3 28.4 C 0 km/h
665 21-08-2010 13:12:02 28.8 C 9.38 g/m*3 28.8 C 0 km/h
666 21-08-2010 13:24:01 29.2 C 9 g/m*3 29.2 C 0 km/h
667 21-08-2010 13:36:02 29.5 C 8.85 g/m*3 29.5 C 0 km/h
668 21-08-2010 13:48:01 29.7 C 8.95 g/m*3 29.7 C 0 km/h
669 21-08-2010 14:00:01 29.9 C 9.05 g/m*3 29.9 C 0 km/h
670 21-08-2010 14:12:02 30.3 C 8.94 g/m*3 30.3 C 0 km/h
671 21-08-2010 14:24:01 30.3 C 8.63 g/m*3 30.3 C 0 km/h
672 21-08-2010 14:36:02 30.6 C 8.46 g/m*3 30.6 C 0 km/h
673 21-08-2010 14:48:01 31 C 8.32 g/m*3 31 C 0 km/h
674 21-08-2010 15:00:01 30.8 C 8.55 g/m*3 30.8 C 0 km/h
675 21-08-2010 15:12:02 31.4 C 8.83 g/m*3 31.4 C 0 km/h
Sensor: Nr:Datum:Temp:Abs-Feuchte:Windchill:Wind:
Aussen-T/F 676 21-08-2010 15:24:02 31.4 C 8.17 g/m*3 31.4 C 0 km/h
677 21-08-2010 15:36:02 31.2 C 9.06 g/m*3 31.2 C 0 km/h
678 21-08-2010 15:48:02 31.6 C 7.93 g/m*3 31.6 C 0 km/h
679 21-08-2010 16:00:02 32.1 C 7.81 g/m*3 32.1 C 0 km/h
680 21-08-2010 16:12:02 32.2 C 7.51 g/m*3 32.2 C 0 km/h
681 21-08-2010 16:24:02 32.5 C 7.28 g/m*3 32.5 C 0 km/h
682 21-08-2010 16:36:01 32.1 C 7.81 g/m*3 32.1 C 0 km/h
683 21-08-2010 16:48:02 31.8 C 9.02 g/m*3 31.8 C 0 km/h
684 21-08-2010 17:00:02 32.1 C 8.15 g/m*3 32.1 C 0 km/h
685 21-08-2010 17:12:01 32.4 C 7.59 g/m*3 32.4 C 0 km/h
686 21-08-2010 17:24:02 32.3 C 7.55 g/m*3 32.3 C 0 km/h
687 21-08-2010 17:36:02 32.8 C 7.4 g/m*3 32.8 C 0 km/h
688 21-08-2010 17:48:02 32.3 C 7.2 g/m*3 32.3 C 0 km/h
689 21-08-2010 18:00:02 32.6 C 7.32 g/m*3 32.6 C 0 km/h
690 21-08-2010 18:12:02 32.5 C 7.63 g/m*3 32.5 C 0 km/h
691 21-08-2010 18:24:02 32.7 C 7.36 g/m*3 32.7 C 0 km/h
692 21-08-2010 18:36:02 32.3 C 7.55 g/m*3 32.3 C 0 km/h
693 21-08-2010 18:48:02 32 C 7.09 g/m*3 32 C 0 km/h
694 21-08-2010 19:00:02 31.9 C 7.05 g/m*3 31.9 C 0 km/h
695 21-08-2010 19:12:02 32 C 7.76 g/m*3 32 C 0 km/h
696 21-08-2010 19:24:01 31.7 C 7.64 g/m*3 31.7 C 0 km/h
697 21-08-2010 19:36:02 31.5 C 8.22 g/m*3 31.5 C 0 km/h
698 21-08-2010 19:48:02 31.2 C 9.06 g/m*3 31.2 C 0 km/h
699 21-08-2010 20:00:02 30.6 C 8.46 g/m*3 30.6 C 0 km/h
700 21-08-2010 20:12:02 30 C 9.4 g/m*3 30 C 0 km/h
Sensor: Nr:Datum:Temp:Abs-Feuchte:Windchill:Wind:
Aussen-T/F 701 21-08-2010 20:24:01 28.5 C 9.22 g/m*3 28.5 C 0 km/h
702 21-08-2010 20:36:02 28.1 C 9.57 g/m*3 28.1 C 0 km/h
703 21-08-2010 20:48:02 26.9 C 9.73 g/m*3 26.9 C 0 km/h
704 21-08-2010 21:00:02 26.5 C 10.01 g/m*3 26.5 C 0 km/h
705 21-08-2010 21:12:02 26.2 C 10.09 g/m*3 26.2 C 0 km/h
706 21-08-2010 21:24:02 25.8 C 10.35 g/m*3 25.8 C 0 km/h
707 21-08-2010 21:36:02 25.3 C 10.3 g/m*3 25.3 C 0 km/h
708 21-08-2010 21:48:02 24.8 C 10.47 g/m*3 24.8 C 0 km/h
709 21-08-2010 22:00:02 24.8 C 10.7 g/m*3 24.8 C 0 km/h
710 21-08-2010 22:12:02 24.5 C 10.74 g/m*3 24.5 C 0 km/h
711 21-08-2010 22:24:02 24.4 C 10.9 g/m*3 24.4 C 0 km/h
712 21-08-2010 22:36:02 24.1 C 10.94 g/m*3 24.1 C 0 km/h
713 21-08-2010 22:48:01 23.9 C 11.03 g/m*3 23.9 C 0 km/h
714 21-08-2010 23:00:01 23.6 C 10.85 g/m*3 23.6 C 0 km/h
715 21-08-2010 23:12:02 23.4 C 11.35 g/m*3 23.4 C 0 km/h
716 21-08-2010 23:24:01 23.3 C 11.08 g/m*3 23.3 C 0 km/h
717 21-08-2010 23:36:02 22.9 C 11.44 g/m*3 22.9 C 0 km/h
718 21-08-2010 23:48:01 22.6 C 11.45 g/m*3 22.6 C 0 km/h
719 22-08-2010 00:00:01 22.3 C 11.26 g/m*3 22.3 C 0 km/h
720 22-08-2010 00:13:04 22.3 C 11.45 g/m*3 22.3 C 0 km/h
721 22-08-2010 00:25:04 22 C 11.45 g/m*3 22 C 0 km/h
722 22-08-2010 00:37:04 21.8 C 11.51 g/m*3 21.8 C 0 km/h
723 22-08-2010 00:49:04 21.6 C 11.57 g/m*3 21.6 C 0 km/h
724 22-08-2010 01:01:04 21.5 C 11.69 g/m*3 21.5 C 0 km/h
725 22-08-2010 01:13:04 21.2 C 11.49 g/m*3 21.2 C 0 km/h
Sensor: Nr:Datum:Temp:Abs-Feuchte:Windchill:Wind:
Aussen-T/F 726 22-08-2010 01:25:04 21 C 11.54 g/m*3 21 C 0 km/h
727 22-08-2010 01:37:04 20.9 C 11.84 g/m*3 20.9 C 0 km/h
728 22-08-2010 01:49:04 20.6 C 11.81 g/m*3 20.6 C 0 km/h
729 22-08-2010 02:01:05 20.5 C 11.74 g/m*3 20.5 C 0 km/h
730 22-08-2010 02:13:05 20.4 C 11.85 g/m*3 20.4 C 0 km/h
731 22-08-2010 02:25:05 20.1 C 11.82 g/m*3 20.1 C 0 km/h
732 22-08-2010 02:37:05 19.9 C 12.03 g/m*3 19.9 C 0 km/h
733 22-08-2010 02:49:05 19.8 C 11.96 g/m*3 19.8 C 0 km/h
734 22-08-2010 03:01:05 19.7 C 12.06 g/m*3 19.7 C 0 km/h
735 22-08-2010 03:13:05 19.7 C 12.23 g/m*3 19.7 C 0 km/h
736 22-08-2010 03:25:05 19.5 C 12.08 g/m*3 19.5 C 0 km/h
737 22-08-2010 03:37:05 19.3 C 11.94 g/m*3 19.3 C 0 km/h
738 22-08-2010 03:49:05 19.4 C 12.18 g/m*3 19.4 C 0 km/h
739 22-08-2010 04:01:05 19.3 C 12.11 g/m*3 19.3 C 0 km/h
740 22-08-2010 04:13:05 19.3 C 12.27 g/m*3 19.3 C 0 km/h
741 22-08-2010 04:25:05 19.2 C 12.04 g/m*3 19.2 C 0 km/h
742 22-08-2010 04:37:05 19.1 C 11.97 g/m*3 19.1 C 0 km/h
743 22-08-2010 04:49:05 18.9 C 12.15 g/m*3 18.9 C 0 km/h
744 22-08-2010 05:01:05 18.8 C 12.08 g/m*3 18.8 C 0 km/h
745 22-08-2010 05:13:05 18.6 C 11.94 g/m*3 18.6 C 0 km/h
746 22-08-2010 05:25:05 18.5 C 12.18 g/m*3 18.5 C 0 km/h
747 22-08-2010 05:37:05 18.5 C 12.18 g/m*3 18.5 C 0 km/h
748 22-08-2010 05:49:05 18.3 C 12.04 g/m*3 18.3 C 0 km/h
749 22-08-2010 06:01:06 18.1 C 12.05 g/m*3 18.1 C 0 km/h
750 22-08-2010 06:13:06 18 C 11.98 g/m*3 18 C 0 km/h
Sensor: Nr:Datum:Temp:Abs-Feuchte:Windchill:Wind:
Aussen-T/F 751 22-08-2010 06:25:06 18 C 11.98 g/m*3 18 C 0 km/h
752 22-08-2010 06:37:06 17.9 C 12.06 g/m*3 17.9 C 0 km/h
753 22-08-2010 06:49:06 18 C 11.98 g/m*3 18 C 0 km/h
754 22-08-2010 07:01:06 18 C 11.98 g/m*3 18 C 0 km/h
755 22-08-2010 07:13:06 18.1 C 12.05 g/m*3 18.1 C 0 km/h
756 22-08-2010 07:25:06 18.1 C 12.05 g/m*3 18.1 C 0 km/h
757 22-08-2010 07:37:06 18.5 C 12.34 g/m*3 18.5 C 0 km/h
758 22-08-2010 07:49:06 18.8 C 12.56 g/m*3 18.8 C 0 km/h
759 22-08-2010 08:01:06 18.9 C 12.47 g/m*3 18.9 C 0 km/h
760 22-08-2010 08:13:06 18.7 C 12.49 g/m*3 18.7 C 0 km/h
761 22-08-2010 08:25:06 18.8 C 12.72 g/m*3 18.8 C 0 km/h
762 22-08-2010 08:37:06 19.1 C 12.79 g/m*3 19.1 C 0 km/h
763 22-08-2010 08:49:01 19.3 C 12.61 g/m*3 19.3 C 0 km/h
764 22-08-2010 09:01:01 19.4 C 12.51 g/m*3 19.4 C 0 km/h
765 22-08-2010 09:13:01 20 C 12.62 g/m*3 20 C 0 km/h
766 22-08-2010 09:25:02 20.3 C 12.66 g/m*3 20.3 C 0 km/h
767 22-08-2010 09:37:01 20.6 C 12.71 g/m*3 20.6 C 0 km/h
768 22-08-2010 09:49:01 21.3 C 12.68 g/m*3 21.3 C 0 km/h
769 22-08-2010 10:01:01 21.6 C 12.71 g/m*3 21.6 C 0 km/h
770 22-08-2010 10:13:01 22.2 C 12.37 g/m*3 22.2 C 0 km/h
771 22-08-2010 10:25:02 23.7 C 13.05 g/m*3 23.7 C 0 km/h
772 22-08-2010 10:37:01 24.2 C 12.32 g/m*3 24.2 C 0 km/h
773 22-08-2010 10:49:03 23.8 C 12.91 g/m*3 23.8 C 0 km/h
774 22-08-2010 11:01:02 23.8 C 12.91 g/m*3 23.8 C 0 km/h
775 22-08-2010 11:13:02 24.1 C 12.91 g/m*3 24.1 C 0 km/h
Sensor: Nr:Datum:Temp:Abs-Feuchte:Windchill:Wind:
Aussen-T/F 776 22-08-2010 11:25:02 25 C 12.2 g/m*3 25 C 0 km/h
777 22-08-2010 11:37:02 25.5 C 13.26 g/m*3 25.5 C 0 km/h
778 22-08-2010 11:49:02 26 C 12.17 g/m*3 26 C 0 km/h
779 22-08-2010 12:01:01 26.7 C 12.15 g/m*3 26.7 C 0 km/h
780 22-08-2010 12:13:01 27.3 C 12.04 g/m*3 27.3 C 0 km/h
781 22-08-2010 12:25:02 27.9 C 11.63 g/m*3 27.9 C 0 km/h
782 22-08-2010 12:37:02 27.6 C 11.17 g/m*3 27.6 C 0 km/h
783 22-08-2010 12:49:02 27.8 C 11.3 g/m*3 27.8 C 0 km/h
784 22-08-2010 13:01:03 27.7 C 11.23 g/m*3 27.7 C 0 km/h
785 22-08-2010 13:13:03 28 C 11.15 g/m*3 28 C 0 km/h
786 22-08-2010 13:25:02 28.7 C 10.17 g/m*3 28.7 C 0 km/h
787 22-08-2010 13:37:02 28.9 C 10.28 g/m*3 28.9 C 0 km/h
788 22-08-2010 13:49:02 28.9 C 9.71 g/m*3 28.9 C 0 km/h
789 22-08-2010 14:01:02 29.6 C 10.68 g/m*3 29.6 C 0 km/h
790 22-08-2010 14:13:02 29.7 C 10.14 g/m*3 29.7 C 0 km/h
791 22-08-2010 14:25:01 29.6 C 10.39 g/m*3 29.6 C 0 km/h
792 22-08-2010 14:37:02 27.7 C 10.43 g/m*3 27.7 C 0 km/h
793 22-08-2010 14:49:02 27.1 C 10.61 g/m*3 27.1 C 0 km/h
794 22-08-2010 15:01:02 26 C 11.2 g/m*3 26 C 0 km/h
795 22-08-2010 15:13:03 25.9 C 11.62 g/m*3 25.9 C 0 km/h
796 22-08-2010 15:25:01 25.4 C 12.24 g/m*3 25.4 C 0 km/h
797 22-08-2010 15:37:02 25.1 C 13.2 g/m*3 25.1 C 0 km/h
798 22-08-2010 15:49:01 26.4 C 12.7 g/m*3 26.4 C 0 km/h
799 22-08-2010 16:01:02 27.7 C 11.77 g/m*3 27.7 C 0 km/h
800 22-08-2010 16:13:02 27.9 C 11.63 g/m*3 27.9 C 0 km/h
Sensor: Nr:Datum:Temp:Abs-Feuchte:Windchill:Wind:
Aussen-T/F 801 22-08-2010 16:25:02 27.9 C 12.17 g/m*3 27.9 C 0 km/h
802 22-08-2010 16:37:02 28 C 11.97 g/m*3 28 C 0 km/h
803 22-08-2010 16:49:01 27.5 C 11.91 g/m*3 27.5 C 0 km/h
804 22-08-2010 17:01:02 27 C 12.1 g/m*3 27 C 0 km/h
805 22-08-2010 17:13:02 26.8 C 12.22 g/m*3 26.8 C 0 km/h
806 22-08-2010 17:25:02 26.7 C 12.66 g/m*3 26.7 C 0 km/h
807 22-08-2010 17:37:02 26.4 C 11.45 g/m*3 26.4 C 0 km/h
808 22-08-2010 17:49:02 26.5 C 11.01 g/m*3 26.5 C 0 km/h
809 22-08-2010 18:01:01 26.4 C 10.7 g/m*3 26.4 C 0 km/h
810 22-08-2010 18:13:01 26.6 C 11.08 g/m*3 26.6 C 0 km/h
811 22-08-2010 18:25:02 26.5 C 12.02 g/m*3 26.5 C 0 km/h
812 22-08-2010 18:37:01 26 C 12.17 g/m*3 26 C 0 km/h
813 22-08-2010 18:49:02 25.9 C 12.59 g/m*3 25.9 C 0 km/h
814 22-08-2010 19:01:01 25.9 C 12.59 g/m*3 25.9 C 0 km/h
815 22-08-2010 19:13:01 26.2 C 12.31 g/m*3 26.2 C 0 km/h
816 22-08-2010 19:25:01 25.6 C 11.67 g/m*3 25.6 C 0 km/h
817 22-08-2010 19:37:02 25.3 C 10.53 g/m*3 25.3 C 0 km/h
818 22-08-2010 19:49:02 24.6 C 10.8 g/m*3 24.6 C 0 km/h
819 22-08-2010 20:01:02 24.6 C 10.8 g/m*3 24.6 C 0 km/h
820 22-08-2010 20:13:02 24.6 C 10.58 g/m*3 24.6 C 0 km/h
821 22-08-2010 20:25:02 24.5 C 10.52 g/m*3 24.5 C 0 km/h
822 22-08-2010 20:37:02 24.3 C 10.62 g/m*3 24.3 C 0 km/h
823 22-08-2010 20:49:02 24.1 C 10.72 g/m*3 24.1 C 0 km/h
824 22-08-2010 21:01:01 23.8 C 11.19 g/m*3 23.8 C 0 km/h
825 22-08-2010 21:13:01 23.2 C 11.23 g/m*3 23.2 C 0 km/h
Sensor: Nr:Datum:Temp:Abs-Feuchte:Windchill:Wind:
Aussen-T/F 826 22-08-2010 21:25:01 22.9 C 11.44 g/m*3 22.9 C 0 km/h
827 22-08-2010 21:37:02 22.9 C 11.85 g/m*3 22.9 C 0 km/h
828 22-08-2010 21:49:02 23 C 11.72 g/m*3 23 C 0 km/h
829 22-08-2010 22:01:02 23.2 C 11.64 g/m*3 23.2 C 0 km/h
830 22-08-2010 22:13:02 22.9 C 11.44 g/m*3 22.9 C 0 km/h
831 22-08-2010 22:25:02 22.6 C 11.65 g/m*3 22.6 C 0 km/h
832 22-08-2010 22:38:03 22.5 C 11.98 g/m*3 22.5 C 0 km/h
833 22-08-2010 22:50:03 22.1 C 11.71 g/m*3 22.1 C 0 km/h
834 22-08-2010 23:02:03 21.8 C 11.9 g/m*3 21.8 C 0 km/h
835 22-08-2010 23:14:03 21.6 C 11.95 g/m*3 21.6 C 0 km/h
836 22-08-2010 23:26:03 21.6 C 11.95 g/m*3 21.6 C 0 km/h
837 22-08-2010 23:38:03 21.4 C 11.81 g/m*3 21.4 C 0 km/h
838 22-08-2010 23:50:03 21.2 C 11.86 g/m*3 21.2 C 0 km/h
839 23-08-2010 00:02:03 21.1 C 11.98 g/m*3 21.1 C 0 km/h
840 23-08-2010 00:14:03 20.9 C 12.02 g/m*3 20.9 C 0 km/h
841 23-08-2010 00:26:03 20.9 C 12.02 g/m*3 20.9 C 0 km/h
842 23-08-2010 00:38:03 20.8 C 11.95 g/m*3 20.8 C 0 km/h
843 23-08-2010 00:50:03 20.7 C 12.06 g/m*3 20.7 C 0 km/h
844 23-08-2010 01:02:03 20.4 C 12.03 g/m*3 20.4 C 0 km/h
845 23-08-2010 01:14:03 20.3 C 12.31 g/m*3 20.3 C 0 km/h
846 23-08-2010 01:26:03 20.3 C 12.14 g/m*3 20.3 C 0 km/h
847 23-08-2010 01:38:03 20.4 C 12.21 g/m*3 20.4 C 0 km/h
848 23-08-2010 01:50:03 20.5 C 12.1 g/m*3 20.5 C 0 km/h
849 23-08-2010 02:02:03 20.4 C 12.21 g/m*3 20.4 C 0 km/h
850 23-08-2010 02:14:03 20.2 C 12.24 g/m*3 20.2 C 0 km/h
Sensor: Nr:Datum:Temp:Abs-Feuchte:Windchill:Wind:
Aussen-T/F 851 23-08-2010 02:26:03 19.8 C 12.3 g/m*3 19.8 C 0 km/h
852 23-08-2010 02:38:03 19.8 C 12.47 g/m*3 19.8 C 0 km/h
853 23-08-2010 02:50:04 19.9 C 12.37 g/m*3 19.9 C 0 km/h
854 23-08-2010 03:02:04 19.9 C 12.2 g/m*3 19.9 C 0 km/h
855 23-08-2010 03:14:04 19.9 C 12.37 g/m*3 19.9 C 0 km/h
856 23-08-2010 03:26:04 19.9 C 12.37 g/m*3 19.9 C 0 km/h
857 23-08-2010 03:38:04 19.7 C 12.23 g/m*3 19.7 C 0 km/h
858 23-08-2010 03:50:04 19.7 C 12.4 g/m*3 19.7 C 0 km/h
859 23-08-2010 04:02:04 19.6 C 12.32 g/m*3 19.6 C 0 km/h
860 23-08-2010 04:14:04 19.5 C 12.25 g/m*3 19.5 C 0 km/h
861 23-08-2010 04:26:04 19.5 C 12.42 g/m*3 19.5 C 0 km/h
862 23-08-2010 04:38:04 19.5 C 12.42 g/m*3 19.5 C 0 km/h
863 23-08-2010 04:50:04 19.5 C 12.25 g/m*3 19.5 C 0 km/h
864 23-08-2010 05:02:04 19.5 C 12.25 g/m*3 19.5 C 0 km/h
865 23-08-2010 05:14:04 19.4 C 12.18 g/m*3 19.4 C 0 km/h
866 23-08-2010 05:26:04 19.5 C 12.25 g/m*3 19.5 C 0 km/h
867 23-08-2010 05:38:04 19.4 C 12.18 g/m*3 19.4 C 0 km/h
868 23-08-2010 05:50:04 19.4 C 12.18 g/m*3 19.4 C 0 km/h
869 23-08-2010 06:02:04 19.5 C 12.42 g/m*3 19.5 C 0 km/h
870 23-08-2010 06:14:04 19.5 C 12.42 g/m*3 19.5 C 0 km/h
871 23-08-2010 06:26:04 19.4 C 12.35 g/m*3 19.4 C 0 km/h
872 23-08-2010 06:38:03 19.5 C 12.25 g/m*3 19.5 C 0 km/h
873 23-08-2010 06:50:02 19.5 C 12.25 g/m*3 19.5 C 0 km/h
874 23-08-2010 07:02:02 19.3 C 12.27 g/m*3 19.3 C 0 km/h
875 23-08-2010 07:14:03 19.5 C 12.59 g/m*3 19.5 C 0 km/h
Sensor: Nr:Datum:Temp:Abs-Feuchte:Windchill:Wind:
Aussen-T/F 876 23-08-2010 07:26:02 19.9 C 12.71 g/m*3 19.9 C 0 km/h
877 23-08-2010 07:38:02 20.4 C 12.38 g/m*3 20.4 C 0 km/h
878 23-08-2010 07:50:02 20.5 C 12.46 g/m*3 20.5 C 0 km/h
879 23-08-2010 08:02:02 20.6 C 12.71 g/m*3 20.6 C 0 km/h
880 23-08-2010 08:14:02 20.4 C 12.74 g/m*3 20.4 C 0 km/h
881 23-08-2010 08:26:01 19.5 C 13.26 g/m*3 19.5 C 0 km/h
882 23-08-2010 08:38:02 19.1 C 13.77 g/m*3 19.1 C 0 km/h
883 23-08-2010 08:50:02 19.1 C 13.93 g/m*3 19.1 C 0 km/h
884 23-08-2010 09:02:01 19.3 C 14.26 g/m*3 19.3 C 0 km/h
885 23-08-2010 09:14:01 19.4 C 14.52 g/m*3 19.4 C 0 km/h
886 23-08-2010 09:26:02 19.4 C 14.52 g/m*3 19.4 C 0 km/h
887 23-08-2010 09:38:01 19.4 C 14.52 g/m*3 19.4 C 0 km/h
888 23-08-2010 09:50:02 19.7 C 14.77 g/m*3 19.7 C 0 km/h
889 23-08-2010 10:02:01 20 C 14.86 g/m*3 20 C 0 km/h
890 23-08-2010 10:14:01 20.4 C 15.21 g/m*3 20.4 C 0 km/h
891 23-08-2010 10:26:01 20.7 C 15.12 g/m*3 20.7 C 0 km/h
892 23-08-2010 10:38:02 20.9 C 15.12 g/m*3 20.9 C 0 km/h
893 23-08-2010 10:50:02 21.2 C 15.01 g/m*3 21.2 C 0 km/h
894 23-08-2010 11:02:02 21.4 C 15 g/m*3 21.4 C 0 km/h
895 23-08-2010 11:14:02 21.7 C 14.69 g/m*3 21.7 C 0 km/h
896 23-08-2010 11:26:02 22.5 C 14.58 g/m*3 22.5 C 0 km/h
897 23-08-2010 11:38:02 22.8 C 14.63 g/m*3 22.8 C 0 km/h
898 23-08-2010 11:50:02 22.9 C 14.92 g/m*3 22.9 C 0 km/h
899 23-08-2010 12:02:02 22.5 C 14.78 g/m*3 22.5 C 0 km/h
900 23-08-2010 12:14:02 22.7 C 15.36 g/m*3 22.7 C 0 km/h
Sensor: Nr:Datum:Temp:Abs-Feuchte:Windchill:Wind:
Aussen-T/F 901 23-08-2010 12:26:02 23.3 C 16.1 g/m*3 23.3 C 0 km/h
902 23-08-2010 12:38:02 23.4 C 15.98 g/m*3 23.4 C 0 km/h
903 23-08-2010 12:50:01 23.5 C 15.86 g/m*3 23.5 C 0 km/h
904 23-08-2010 13:02:02 24.2 C 15.18 g/m*3 24.2 C 0 km/h
905 23-08-2010 13:14:02 24.9 C 14.42 g/m*3 24.9 C 0 km/h
906 23-08-2010 13:26:01 24 C 13.49 g/m*3 24 C 0 km/h
907 23-08-2010 13:38:01 23.1 C 13.85 g/m*3 23.1 C 0 km/h
908 23-08-2010 13:50:01 22.2 C 14.72 g/m*3 22.2 C 0 km/h
909 23-08-2010 14:02:01 21.9 C 14.86 g/m*3 21.9 C 0 km/h
910 23-08-2010 14:14:01 23.3 C 14.84 g/m*3 23.3 C 0 km/h
911 23-08-2010 14:26:01 24.8 C 14.11 g/m*3 24.8 C 0 km/h
912 23-08-2010 14:38:01 25.8 C 13.72 g/m*3 25.8 C 0 km/h
913 23-08-2010 14:50:01 25.9 C 13.32 g/m*3 25.9 C 0 km/h
914 23-08-2010 15:02:01 25.9 C 13.07 g/m*3 25.9 C 0 km/h
915 23-08-2010 15:14:01 25.9 C 12.59 g/m*3 25.9 C 0 km/h
916 23-08-2010 15:26:02 26.3 C 12.13 g/m*3 26.3 C 0 km/h
917 23-08-2010 15:38:01 25.9 C 11.86 g/m*3 25.9 C 0 km/h
918 23-08-2010 15:50:03 25.3 C 11.94 g/m*3 25.3 C 0 km/h
919 23-08-2010 16:02:02 25.9 C 11.38 g/m*3 25.9 C 0 km/h
920 23-08-2010 16:14:02 26.7 C 11.14 g/m*3 26.7 C 0 km/h
921 23-08-2010 16:26:02 26.6 C 11.33 g/m*3 26.6 C 0 km/h
922 23-08-2010 16:38:02 25.5 C 11.6 g/m*3 25.5 C 0 km/h
923 23-08-2010 16:50:02 25 C 11.51 g/m*3 25 C 0 km/h
924 23-08-2010 17:02:01 25.2 C 10.94 g/m*3 25.2 C 0 km/h
925 23-08-2010 17:14:01 24.6 C 11.25 g/m*3 24.6 C 0 km/h
Sensor: Nr:Datum:Temp:Abs-Feuchte:Windchill:Wind:
Aussen-T/F 926 23-08-2010 17:26:02 23.3 C 11.92 g/m*3 23.3 C 0 km/h
927 23-08-2010 17:38:02 22.7 C 12.53 g/m*3 22.7 C 0 km/h
928 23-08-2010 17:50:02 22.1 C 12.88 g/m*3 22.1 C 0 km/h
929 23-08-2010 18:02:01 21.9 C 13.31 g/m*3 21.9 C 0 km/h
930 23-08-2010 18:14:01 21.6 C 13.47 g/m*3 21.6 C 0 km/h
931 23-08-2010 18:26:01 21 C 13.74 g/m*3 21 C 0 km/h
932 23-08-2010 18:38:02 20.7 C 14.22 g/m*3 20.7 C 0 km/h
933 23-08-2010 18:50:02 20.4 C 13.98 g/m*3 20.4 C 0 km/h
934 23-08-2010 19:02:02 20.8 C 14.3 g/m*3 20.8 C 0 km/h
935 23-08-2010 19:14:02 20.9 C 13.84 g/m*3 20.9 C 0 km/h
936 23-08-2010 19:26:02 20.8 C 13.76 g/m*3 20.8 C 0 km/h
937 23-08-2010 19:38:02 20.7 C 13.5 g/m*3 20.7 C 0 km/h
938 23-08-2010 19:50:02 20.6 C 13.42 g/m*3 20.6 C 0 km/h
939 23-08-2010 20:02:02 20.5 C 13.17 g/m*3 20.5 C 0 km/h
940 23-08-2010 20:14:02 20.4 C 13.09 g/m*3 20.4 C 0 km/h
941 23-08-2010 20:26:02 20.4 C 12.91 g/m*3 20.4 C 0 km/h
942 23-08-2010 20:38:02 20.3 C 12.84 g/m*3 20.3 C 0 km/h
943 23-08-2010 20:50:02 20.1 C 12.69 g/m*3 20.1 C 0 km/h
944 23-08-2010 21:02:02 20 C 12.62 g/m*3 20 C 0 km/h
945 23-08-2010 21:14:02 19.8 C 12.64 g/m*3 19.8 C 0 km/h
946 23-08-2010 21:26:02 19.7 C 12.74 g/m*3 19.7 C 0 km/h
947 23-08-2010 21:38:02 19.7 C 12.57 g/m*3 19.7 C 0 km/h
948 23-08-2010 21:50:02 19.8 C 12.47 g/m*3 19.8 C 0 km/h
949 23-08-2010 22:03:03 19.7 C 12.4 g/m*3 19.7 C 0 km/h
950 23-08-2010 22:15:03 19.6 C 12.32 g/m*3 19.6 C 0 km/h
Sensor: Nr:Datum:Temp:Abs-Feuchte:Windchill:Wind:
Aussen-T/F 951 23-08-2010 22:27:03 19.6 C 12.15 g/m*3 19.6 C 0 km/h
952 23-08-2010 22:39:03 19.5 C 12.25 g/m*3 19.5 C 0 km/h
953 23-08-2010 22:51:03 19.5 C 12.08 g/m*3 19.5 C 0 km/h
954 23-08-2010 23:03:03 19.4 C 12.01 g/m*3 19.4 C 0 km/h
955 23-08-2010 23:15:03 19.3 C 11.94 g/m*3 19.3 C 0 km/h
956 23-08-2010 23:27:03 19.3 C 11.94 g/m*3 19.3 C 0 km/h
957 23-08-2010 23:39:03 19.2 C 11.87 g/m*3 19.2 C 0 km/h
958 23-08-2010 23:51:03 19.3 C 11.94 g/m*3 19.3 C 0 km/h
959 24-08-2010 00:03:03 19.2 C 12.04 g/m*3 19.2 C 0 km/h
960 24-08-2010 00:15:03 19.2 C 12.04 g/m*3 19.2 C 0 km/h
961 24-08-2010 00:27:03 19.1 C 11.97 g/m*3 19.1 C 0 km/h
962 24-08-2010 00:39:04 19.2 C 12.2 g/m*3 19.2 C 0 km/h
963 24-08-2010 00:51:04 19.2 C 12.2 g/m*3 19.2 C 0 km/h
964 24-08-2010 01:03:04 19.3 C 12.27 g/m*3 19.3 C 0 km/h
965 24-08-2010 01:15:04 19.2 C 12.37 g/m*3 19.2 C 0 km/h
966 24-08-2010 01:27:04 19.1 C 12.46 g/m*3 19.1 C 0 km/h
967 24-08-2010 01:39:04 19.2 C 12.53 g/m*3 19.2 C 0 km/h
968 24-08-2010 01:51:04 19.2 C 12.53 g/m*3 19.2 C 0 km/h
969 24-08-2010 02:03:04 19.3 C 12.44 g/m*3 19.3 C 0 km/h
970 24-08-2010 02:15:04 19.6 C 12.32 g/m*3 19.6 C 0 km/h
971 24-08-2010 02:27:04 19.9 C 12.37 g/m*3 19.9 C 0 km/h
972 24-08-2010 02:39:04 20 C 11.92 g/m*3 20 C 0 km/h
973 24-08-2010 02:51:04 19.6 C 12.32 g/m*3 19.6 C 0 km/h
974 24-08-2010 03:03:04 19 C 12.22 g/m*3 19 C 0 km/h
975 24-08-2010 03:15:04 18.7 C 12.33 g/m*3 18.7 C 0 km/h
Sensor: Nr:Datum:Temp:Abs-Feuchte:Windchill:Wind:
Aussen-T/F 976 24-08-2010 03:27:04 18.4 C 11.64 g/m*3 18.4 C 0 km/h
977 24-08-2010 03:39:04 17.9 C 11.76 g/m*3 17.9 C 0 km/h
978 24-08-2010 03:51:04 17.7 C 11.32 g/m*3 17.7 C 0 km/h
979 24-08-2010 04:03:04 18.1 C 9.73 g/m*3 18.1 C 0 km/h
980 24-08-2010 04:15:04 18.2 C 9.64 g/m*3 18.2 C 0 km/h
981 24-08-2010 04:27:04 18.1 C 9.43 g/m*3 18.1 C 0 km/h
982 24-08-2010 04:39:04 18 C 9.37 g/m*3 18 C 0 km/h
983 24-08-2010 04:51:05 17.9 C 9.47 g/m*3 17.9 C 0 km/h
984 24-08-2010 05:03:05 17.4 C 9.48 g/m*3 17.4 C 0 km/h
985 24-08-2010 05:15:05 17.3 C 9.58 g/m*3 17.3 C 0 km/h
986 24-08-2010 05:27:05 17.3 C 9.58 g/m*3 17.3 C 0 km/h
987 24-08-2010 05:39:05 17.2 C 9.37 g/m*3 17.2 C 0 km/h
988 24-08-2010 05:51:05 17 C 9.55 g/m*3 17 C 0 km/h
989 24-08-2010 06:03:05 17.1 C 9.46 g/m*3 17.1 C 0 km/h
990 24-08-2010 06:15:05 17.1 C 9.32 g/m*3 17.1 C 0 km/h
991 24-08-2010 06:27:05 17 C 9.55 g/m*3 17 C 0 km/h
992 24-08-2010 06:39:05 17.4 C 9.63 g/m*3 17.4 C 0 km/h
993 24-08-2010 06:51:05 16.8 C 9.44 g/m*3 16.8 C 0 km/h
994 24-08-2010 07:03:05 16.8 C 9.58 g/m*3 16.8 C 0 km/h
995 24-08-2010 07:15:02 16.7 C 9.38 g/m*3 16.7 C 0 km/h
996 24-08-2010 07:27:02 16.4 C 9.21 g/m*3 16.4 C 0 km/h
997 24-08-2010 07:39:03 16.2 C 8.96 g/m*3 16.2 C 0 km/h
998 24-08-2010 07:51:02 16.1 C 9.05 g/m*3 16.1 C 0 km/h
999 24-08-2010 08:03:02 16 C 8.99 g/m*3 16 C 0 km/h
1000 24-08-2010 08:15:02 16.1 C 8.64 g/m*3 16.1 C 0 km/h
Sensor: Nr:Datum:Temp:Abs-Feuchte:Windchill:Wind:
Aussen-T/F 1001 24-08-2010 08:27:02 16.2 C 8.41 g/m*3 16.2 C 0 km/h
1002 24-08-2010 08:39:02 16.2 C 8.27 g/m*3 16.2 C 0 km/h
1003 24-08-2010 08:51:02 16.3 C 7.91 g/m*3 16.3 C 0 km/h
1004 24-08-2010 09:03:02 16.4 C 7.82 g/m*3 16.4 C 0 km/h
1005 24-08-2010 09:15:02 16.5 C 7.44 g/m*3 16.5 C 0 km/h
1006 24-08-2010 09:27:02 16.7 C 7.11 g/m*3 16.7 C 0 km/h
1007 24-08-2010 09:39:01 17 C 6.95 g/m*3 17 C 0 km/h
1008 24-08-2010 09:51:02 17.2 C 7.18 g/m*3 17.2 C 0 km/h
1009 24-08-2010 10:03:01 17.4 C 7.11 g/m*3 17.4 C 0 km/h
1010 24-08-2010 10:15:02 17.7 C 7.39 g/m*3 17.7 C 0 km/h
1011 24-08-2010 10:27:02 17.8 C 7.29 g/m*3 17.8 C 0 km/h
1012 24-08-2010 10:39:02 18 C 7.07 g/m*3 18 C 0 km/h
1013 24-08-2010 10:51:02 18.5 C 7.28 g/m*3 18.5 C 0 km/h
1014 24-08-2010 11:03:03 18.7 C 7.36 g/m*3 18.7 C 0 km/h
1015 24-08-2010 11:15:02 18.9 C 6.97 g/m*3 18.9 C 0 km/h
1016 24-08-2010 11:27:02 19.1 C 6.72 g/m*3 19.1 C 0 km/h
1017 24-08-2010 11:39:02 19.4 C 6.51 g/m*3 19.4 C 0 km/h
1018 24-08-2010 11:51:01 19.3 C 6.8 g/m*3 19.3 C 0 km/h
1019 24-08-2010 12:03:02 19.1 C 6.56 g/m*3 19.1 C 0 km/h
1020 24-08-2010 12:15:01 19.8 C 6.66 g/m*3 19.8 C 0 km/h
1021 24-08-2010 12:27:01 20.1 C 6.26 g/m*3 20.1 C 0 km/h
1022 24-08-2010 12:39:02 20 C 6.05 g/m*3 20 C 0 km/h
1023 24-08-2010 12:51:01 21.2 C 6.12 g/m*3 21.2 C 0 km/h
1024 24-08-2010 13:03:02 20.3 C 6.16 g/m*3 20.3 C 0 km/h
1025 24-08-2010 13:15:01 20.5 C 6.23 g/m*3 20.5 C 0 km/h
Sensor: Nr:Datum:Temp:Abs-Feuchte:Windchill:Wind:
Aussen-T/F 1026 24-08-2010 13:27:01 21.5 C 5.85 g/m*3 21.5 C 0 km/h
1027 24-08-2010 13:39:02 21.7 C 5.72 g/m*3 21.7 C 0 km/h
1028 24-08-2010 13:51:01 21 C 5.68 g/m*3 21 C 0 km/h
1029 24-08-2010 14:03:02 20.8 C 5.79 g/m*3 20.8 C 0 km/h
1030 24-08-2010 14:15:02 20.9 C 5.83 g/m*3 20.9 C 0 km/h
1031 24-08-2010 14:27:02 21.7 C 5.34 g/m*3 21.7 C 0 km/h
1032 24-08-2010 14:39:02 22.2 C 5.3 g/m*3 22.2 C 0 km/h
1033 24-08-2010 14:51:02 21.7 C 5.15 g/m*3 21.7 C 0 km/h
1034 24-08-2010 15:03:02 21.2 C 5.74 g/m*3 21.2 C 0 km/h
1035 24-08-2010 15:15:02 21.2 C 5.19 g/m*3 21.2 C 0 km/h
1036 24-08-2010 15:27:02 21.6 C 4.93 g/m*3 21.6 C 0 km/h
1037 24-08-2010 15:39:01 22.1 C 5.08 g/m*3 22.1 C 0 km/h
1038 24-08-2010 15:51:02 23 C 4.52 g/m*3 23 C 0 km/h
1039 24-08-2010 16:03:01 23.2 C 4.57 g/m*3 23.2 C 0 km/h
1040 24-08-2010 16:15:02 23.2 C 4.37 g/m*3 23.2 C 0 km/h
1041 24-08-2010 16:27:03 23 C 4.73 g/m*3 23 C 0 km/h
1042 24-08-2010 16:39:01 23.8 C 4.73 g/m*3 23.8 C 0 km/h
1043 24-08-2010 16:51:02 22 C 4.66 g/m*3 22 C 0 km/h
1044 24-08-2010 17:03:02 23 C 4.52 g/m*3 23 C 0 km/h
1045 24-08-2010 17:15:02 23.4 C 4.21 g/m*3 23.4 C 0 km/h
1046 24-08-2010 17:27:02 23.6 C 4.68 g/m*3 23.6 C 0 km/h
1047 24-08-2010 17:39:03 22.9 C 4.9 g/m*3 22.9 C 0 km/h
1048 24-08-2010 17:51:02 23.2 C 5.2 g/m*3 23.2 C 0 km/h
1049 24-08-2010 18:03:02 23.8 C 4.95 g/m*3 23.8 C 0 km/h
1050 24-08-2010 18:15:02 22.8 C 5.08 g/m*3 22.8 C 0 km/h
Sensor: Nr:Datum:Temp:Abs-Feuchte:Windchill:Wind:
Aussen-T/F 1051 24-08-2010 18:27:02 22.9 C 5.11 g/m*3 22.9 C 0 km/h
1052 24-08-2010 18:39:02 22.8 C 5.28 g/m*3 22.8 C 0 km/h
1053 24-08-2010 18:51:02 22.3 C 5.13 g/m*3 22.3 C 0 km/h
1054 24-08-2010 19:03:03 22.5 C 5.19 g/m*3 22.5 C 0 km/h
1055 24-08-2010 19:15:02 21.7 C 5.15 g/m*3 21.7 C 0 km/h
1056 24-08-2010 19:27:02 22.1 C 5.08 g/m*3 22.1 C 0 km/h
1057 24-08-2010 19:39:02 21.3 C 5.03 g/m*3 21.3 C 0 km/h
1058 24-08-2010 19:51:01 20.8 C 5.43 g/m*3 20.8 C 0 km/h
1059 24-08-2010 20:03:02 20.4 C 5.48 g/m*3 20.4 C 0 km/h
1060 24-08-2010 20:15:01 20.3 C 5.8 g/m*3 20.3 C 0 km/h
1061 24-08-2010 20:27:01 19.7 C 5.94 g/m*3 19.7 C 0 km/h
1062 24-08-2010 20:39:02 19.4 C 5.84 g/m*3 19.4 C 0 km/h
1063 24-08-2010 20:51:01 19 C 5.87 g/m*3 19 C 0 km/h
1064 24-08-2010 21:03:02 18.7 C 5.92 g/m*3 18.7 C 0 km/h
1065 24-08-2010 21:15:02 18.4 C 6.13 g/m*3 18.4 C 0 km/h
1066 24-08-2010 21:27:02 18.2 C 6.22 g/m*3 18.2 C 0 km/h
1067 24-08-2010 21:39:02 18.1 C 6.18 g/m*3 18.1 C 0 km/h
1068 24-08-2010 21:51:01 18 C 6.14 g/m*3 18 C 0 km/h
1069 24-08-2010 22:04:03 17.7 C 6.19 g/m*3 17.7 C 0 km/h
1070 24-08-2010 22:16:03 17.6 C 6.15 g/m*3 17.6 C 0 km/h
1071 24-08-2010 22:28:03 17.5 C 6.26 g/m*3 17.5 C 0 km/h
1072 24-08-2010 22:40:03 17.1 C 6.4 g/m*3 17.1 C 0 km/h
1073 24-08-2010 22:52:03 17.1 C 6.4 g/m*3 17.1 C 0 km/h
1074 24-08-2010 23:04:03 17 C 6.22 g/m*3 17 C 0 km/h
1075 24-08-2010 23:16:03 16.8 C 6.43 g/m*3 16.8 C 0 km/h
Sensor: Nr:Datum:Temp:Abs-Feuchte:Windchill:Wind:
Aussen-T/F 1076 24-08-2010 23:28:03 16.8 C 6.43 g/m*3 16.8 C 0 km/h
1077 24-08-2010 23:40:03 16.7 C 6.54 g/m*3 16.7 C 0 km/h
1078 24-08-2010 23:52:03 16.6 C 6.5 g/m*3 16.6 C 0 km/h
1079 25-08-2010 00:04:03 16.4 C 6.42 g/m*3 16.4 C 0 km/h
1080 25-08-2010 00:16:03 16.4 C 6.56 g/m*3 16.4 C 0 km/h
1081 25-08-2010 00:28:03 16.2 C 6.48 g/m*3 16.2 C 0 km/h
1082 25-08-2010 00:40:04 16 C 6.54 g/m*3 16 C 0 km/h
1083 25-08-2010 00:52:04 15.8 C 6.73 g/m*3 15.8 C 0 km/h
1084 25-08-2010 01:04:04 15.8 C 6.73 g/m*3 15.8 C 0 km/h
1085 25-08-2010 01:16:04 15.6 C 6.78 g/m*3 15.6 C 0 km/h
1086 25-08-2010 01:28:04 15.5 C 6.87 g/m*3 15.5 C 0 km/h
1087 25-08-2010 01:40:04 15.4 C 6.83 g/m*3 15.4 C 0 km/h
1088 25-08-2010 01:52:04 15.3 C 6.79 g/m*3 15.3 C 0 km/h
1089 25-08-2010 02:04:04 15.1 C 6.97 g/m*3 15.1 C 0 km/h
1090 25-08-2010 02:16:04 14.8 C 7.09 g/m*3 14.8 C 0 km/h
1091 25-08-2010 02:28:04 14.6 C 7.13 g/m*3 14.6 C 0 km/h
1092 25-08-2010 02:40:04 14.5 C 7.21 g/m*3 14.5 C 0 km/h
1093 25-08-2010 02:52:04 14.3 C 7.13 g/m*3 14.3 C 0 km/h
1094 25-08-2010 03:04:04 14.2 C 7.2 g/m*3 14.2 C 0 km/h
1095 25-08-2010 03:16:04 13.9 C 7.55 g/m*3 13.9 C 0 km/h
1096 25-08-2010 03:28:04 13.7 C 7.58 g/m*3 13.7 C 0 km/h
1097 25-08-2010 03:40:04 13.6 C 7.77 g/m*3 13.6 C 0 km/h
1098 25-08-2010 03:52:04 13.4 C 7.67 g/m*3 13.4 C 0 km/h
1099 25-08-2010 04:04:04 13.4 C 7.79 g/m*3 13.4 C 0 km/h
1100 25-08-2010 04:16:04 13.4 C 7.79 g/m*3 13.4 C 0 km/h
Sensor: Nr:Datum:Temp:Abs-Feuchte:Windchill:Wind:
Aussen-T/F 1101 25-08-2010 04:28:04 13.4 C 7.67 g/m*3 13.4 C 0 km/h
1102 25-08-2010 04:40:04 13.4 C 7.67 g/m*3 13.4 C 0 km/h
1103 25-08-2010 04:52:05 13.4 C 7.56 g/m*3 13.4 C 0 km/h
1104 25-08-2010 05:04:05 13.6 C 7.53 g/m*3 13.6 C 0 km/h
1105 25-08-2010 05:16:05 13.6 C 7.41 g/m*3 13.6 C 0 km/h
1106 25-08-2010 05:28:05 13.4 C 7.44 g/m*3 13.4 C 0 km/h
1107 25-08-2010 05:40:05 13.2 C 7.58 g/m*3 13.2 C 0 km/h
1108 25-08-2010 05:52:05 13.1 C 7.65 g/m*3 13.1 C 0 km/h
1109 25-08-2010 06:04:05 13 C 7.6 g/m*3 13 C 0 km/h
1110 25-08-2010 06:16:05 13.1 C 7.65 g/m*3 13.1 C 0 km/h
1111 25-08-2010 06:28:05 12.9 C 7.78 g/m*3 12.9 C 0 km/h
1112 25-08-2010 06:40:05 12.9 C 7.78 g/m*3 12.9 C 0 km/h
1113 25-08-2010 06:52:05 12.8 C 7.73 g/m*3 12.8 C 0 km/h
1114 25-08-2010 07:04:02 12.7 C 7.79 g/m*3 12.7 C 0 km/h
1115 25-08-2010 07:16:03 12.8 C 7.84 g/m*3 12.8 C 0 km/h
1116 25-08-2010 07:28:03 12.8 C 7.84 g/m*3 12.8 C 0 km/h
1117 25-08-2010 07:40:02 12.7 C 7.79 g/m*3 12.7 C 0 km/h
1118 25-08-2010 07:52:02 12.8 C 7.95 g/m*3 12.8 C 0 km/h
1119 25-08-2010 08:04:01 13.1 C 7.87 g/m*3 13.1 C 0 km/h
1120 25-08-2010 08:16:01 13.4 C 7.9 g/m*3 13.4 C 0 km/h
1121 25-08-2010 08:28:01 13.5 C 7.84 g/m*3 13.5 C 0 km/h
1122 25-08-2010 08:40:01 13.8 C 7.86 g/m*3 13.8 C 0 km/h
1123 25-08-2010 08:52:03 13.9 C 7.79 g/m*3 13.9 C 0 km/h
1124 25-08-2010 09:04:02 14.2 C 7.82 g/m*3 14.2 C 0 km/h
1125 25-08-2010 09:16:02 14.7 C 8.06 g/m*3 14.7 C 0 km/h
Sensor: Nr:Datum:Temp:Abs-Feuchte:Windchill:Wind:
Aussen-T/F 1126 25-08-2010 09:28:03 14.9 C 7.9 g/m*3 14.9 C 0 km/h
1127 25-08-2010 09:40:02 15.2 C 7.79 g/m*3 15.2 C 0 km/h
1128 25-08-2010 09:52:02 15.6 C 7.98 g/m*3 15.6 C 0 km/h
1129 25-08-2010 10:04:01 16.1 C 7.81 g/m*3 16.1 C 0 km/h
1130 25-08-2010 10:16:02 16.3 C 7.77 g/m*3 16.3 C 0 km/h
1131 25-08-2010 10:28:02 16.3 C 7.77 g/m*3 16.3 C 0 km/h
1132 25-08-2010 10:40:02 16.3 C 7.77 g/m*3 16.3 C 0 km/h
1133 25-08-2010 10:52:02 16.5 C 7.86 g/m*3 16.5 C 0 km/h
1134 25-08-2010 11:04:02 17.1 C 7.71 g/m*3 17.1 C 0 km/h
1135 25-08-2010 11:16:01 17.4 C 7.85 g/m*3 17.4 C 0 km/h
1136 25-08-2010 11:28:01 17.7 C 7.85 g/m*3 17.7 C 0 km/h
1137 25-08-2010 11:40:02 18.1 C 7.88 g/m*3 18.1 C 0 km/h
1138 25-08-2010 11:52:02 19.2 C 7.75 g/m*3 19.2 C 0 km/h
1139 25-08-2010 12:04:02 19.7 C 7.47 g/m*3 19.7 C 0 km/h
1140 25-08-2010 12:16:01 19.9 C 7.39 g/m*3 19.9 C 0 km/h
1141 25-08-2010 12:28:01 20.4 C 7.43 g/m*3 20.4 C 0 km/h
1142 25-08-2010 12:40:02 20 C 6.91 g/m*3 20 C 0 km/h
1143 25-08-2010 12:52:02 20 C 6.74 g/m*3 20 C 0 km/h
1144 25-08-2010 13:04:02 20.4 C 6.9 g/m*3 20.4 C 0 km/h
1145 25-08-2010 13:16:02 20.7 C 6.84 g/m*3 20.7 C 0 km/h
1146 25-08-2010 13:28:02 20.9 C 6.56 g/m*3 20.9 C 0 km/h
1147 25-08-2010 13:40:02 20.8 C 6.52 g/m*3 20.8 C 0 km/h
1148 25-08-2010 13:52:01 21.3 C 6.52 g/m*3 21.3 C 0 km/h
1149 25-08-2010 14:04:02 21.2 C 6.49 g/m*3 21.2 C 0 km/h
1150 25-08-2010 14:16:01 21.2 C 6.3 g/m*3 21.2 C 0 km/h
Sensor: Nr:Datum:Temp:Abs-Feuchte:Windchill:Wind:
Aussen-T/F 1151 25-08-2010 14:28:01 21.7 C 6.49 g/m*3 21.7 C 0 km/h
1152 25-08-2010 14:40:01 21.3 C 6.52 g/m*3 21.3 C 0 km/h
1153 25-08-2010 14:52:01 21.9 C 6.37 g/m*3 21.9 C 0 km/h
1154 25-08-2010 15:04:02 22.5 C 6.39 g/m*3 22.5 C 0 km/h
1155 25-08-2010 15:16:01 23.1 C 6.2 g/m*3 23.1 C 0 km/h
1156 25-08-2010 15:28:01 23.9 C 6.06 g/m*3 23.9 C 0 km/h
1157 25-08-2010 15:40:01 24.1 C 5.69 g/m*3 24.1 C 0 km/h
1158 25-08-2010 15:52:01 24.1 C 6.13 g/m*3 24.1 C 0 km/h
1159 25-08-2010 16:04:01 24.3 C 5.53 g/m*3 24.3 C 0 km/h
1160 25-08-2010 16:16:02 24.3 C 5.53 g/m*3 24.3 C 0 km/h
1161 25-08-2010 16:28:02 25.3 C 5.62 g/m*3 25.3 C 0 km/h
1162 25-08-2010 16:40:01 24.7 C 5.66 g/m*3 24.7 C 0 km/h
1163 25-08-2010 16:52:01 23.7 C 5.99 g/m*3 23.7 C 0 km/h
1164 25-08-2010 17:04:02 23.4 C 6.73 g/m*3 23.4 C 0 km/h
1165 25-08-2010 17:16:01 23.3 C 6.48 g/m*3 23.3 C 0 km/h
1166 25-08-2010 17:28:01 23.1 C 6.41 g/m*3 23.1 C 0 km/h
1167 25-08-2010 17:40:01 23.2 C 6.86 g/m*3 23.2 C 0 km/h
1168 25-08-2010 17:52:01 23 C 6.78 g/m*3 23 C 0 km/h
1169 25-08-2010 18:04:02 22.2 C 6.87 g/m*3 22.2 C 0 km/h
1170 25-08-2010 18:16:02 22 C 6.79 g/m*3 22 C 0 km/h
1171 25-08-2010 18:28:02 22 C 6.79 g/m*3 22 C 0 km/h
1172 25-08-2010 18:40:01 21.8 C 7.48 g/m*3 21.8 C 0 km/h
1173 25-08-2010 18:52:01 21.5 C 7.54 g/m*3 21.5 C 0 km/h
1174 25-08-2010 19:04:01 20.8 C 7.97 g/m*3 20.8 C 0 km/h
1175 25-08-2010 19:16:02 20.1 C 8 g/m*3 20.1 C 0 km/h
Sensor: Nr:Datum:Temp:Abs-Feuchte:Windchill:Wind:
Aussen-T/F 1176 25-08-2010 19:28:02 20.2 C 7.87 g/m*3 20.2 C 0 km/h
1177 25-08-2010 19:40:01 20 C 7.95 g/m*3 20 C 0 km/h
1178 25-08-2010 19:52:02 20 C 7.78 g/m*3 20 C 0 km/h
1179 25-08-2010 20:04:01 19.7 C 8.15 g/m*3 19.7 C 0 km/h
1180 25-08-2010 20:16:02 19.4 C 8.18 g/m*3 19.4 C 0 km/h
1181 25-08-2010 20:28:02 19 C 8.15 g/m*3 19 C 0 km/h
1182 25-08-2010 20:40:01 18.8 C 8.21 g/m*3 18.8 C 0 km/h
1183 25-08-2010 20:52:02 18.3 C 8.44 g/m*3 18.3 C 0 km/h
1184 25-08-2010 21:04:02 18.1 C 8.19 g/m*3 18.1 C 0 km/h
1185 25-08-2010 21:16:02 18.1 C 8.34 g/m*3 18.1 C 0 km/h
1186 25-08-2010 21:28:02 18.1 C 8.34 g/m*3 18.1 C 0 km/h
1187 25-08-2010 21:40:02 18.2 C 8.39 g/m*3 18.2 C 0 km/h
1188 25-08-2010 21:52:02 18.1 C 8.5 g/m*3 18.1 C 0 km/h
1189 25-08-2010 22:04:01 17.9 C 8.55 g/m*3 17.9 C 0 km/h
1190 25-08-2010 22:17:04 17.7 C 8.45 g/m*3 17.7 C 0 km/h
1191 25-08-2010 22:29:04 17.5 C 8.35 g/m*3 17.5 C 0 km/h
1192 25-08-2010 22:41:04 17.4 C 8.6 g/m*3 17.4 C 0 km/h
1193 25-08-2010 22:53:04 17.3 C 8.54 g/m*3 17.3 C 0 km/h
1194 25-08-2010 23:05:04 17.2 C 8.64 g/m*3 17.2 C 0 km/h
1195 25-08-2010 23:17:04 17.4 C 8.74 g/m*3 17.4 C 0 km/h
1196 25-08-2010 23:29:04 17.4 C 8.74 g/m*3 17.4 C 0 km/h
1197 25-08-2010 23:41:04 17.3 C 8.99 g/m*3 17.3 C 0 km/h
1198 25-08-2010 23:53:04 17.2 C 8.93 g/m*3 17.2 C 0 km/h
1199 26-08-2010 00:05:04 17.1 C 9.03 g/m*3 17.1 C 0 km/h
1200 26-08-2010 00:17:04 17.2 C 9.08 g/m*3 17.2 C 0 km/h
Sensor: Nr:Datum:Temp:Abs-Feuchte:Windchill:Wind:
Aussen-T/F 1201 26-08-2010 00:29:04 17.3 C 9.13 g/m*3 17.3 C 0 km/h
1202 26-08-2010 00:41:04 17.4 C 9.04 g/m*3 17.4 C 0 km/h
1203 26-08-2010 00:53:04 17.4 C 9.04 g/m*3 17.4 C 0 km/h
1204 26-08-2010 01:05:05 17.5 C 9.24 g/m*3 17.5 C 0 km/h
1205 26-08-2010 01:17:05 17.5 C 9.09 g/m*3 17.5 C 0 km/h
1206 26-08-2010 01:29:05 17.5 C 9.09 g/m*3 17.5 C 0 km/h
1207 26-08-2010 01:41:05 17.5 C 9.09 g/m*3 17.5 C 0 km/h
1208 26-08-2010 01:53:05 17.4 C 9.04 g/m*3 17.4 C 0 km/h
1209 26-08-2010 02:05:05 16.9 C 9.78 g/m*3 16.9 C 0 km/h
1210 26-08-2010 02:17:05 17.1 C 10.19 g/m*3 17.1 C 0 km/h
1211 26-08-2010 02:29:05 16.7 C 10.09 g/m*3 16.7 C 0 km/h
1212 26-08-2010 02:41:05 17 C 9.84 g/m*3 17 C 0 km/h
1213 26-08-2010 02:53:05 16.7 C 9.95 g/m*3 16.7 C 0 km/h
1214 26-08-2010 03:05:05 16.8 C 10.29 g/m*3 16.8 C 0 km/h
1215 26-08-2010 03:17:05 16.8 C 10.29 g/m*3 16.8 C 0 km/h
1216 26-08-2010 03:29:05 16.9 C 9.92 g/m*3 16.9 C 0 km/h
1217 26-08-2010 03:41:05 16.9 C 9.92 g/m*3 16.9 C 0 km/h
1218 26-08-2010 03:53:05 16.9 C 9.78 g/m*3 16.9 C 0 km/h
1219 26-08-2010 04:05:06 16.9 C 9.78 g/m*3 16.9 C 0 km/h
1220 26-08-2010 04:17:06 17 C 9.69 g/m*3 17 C 0 km/h
1221 26-08-2010 04:29:06 17 C 9.84 g/m*3 17 C 0 km/h
1222 26-08-2010 04:41:06 16.9 C 9.92 g/m*3 16.9 C 0 km/h
1223 26-08-2010 04:53:06 16.9 C 10.07 g/m*3 16.9 C 0 km/h
1224 26-08-2010 05:05:06 17.3 C 10.31 g/m*3 17.3 C 0 km/h
1225 26-08-2010 05:17:06 18.1 C 10.35 g/m*3 18.1 C 0 km/h
Sensor: Nr:Datum:Temp:Abs-Feuchte:Windchill:Wind:
Aussen-T/F 1226 26-08-2010 05:29:06 18.5 C 10.28 g/m*3 18.5 C 0 km/h
1227 26-08-2010 05:41:06 18.8 C 10.31 g/m*3 18.8 C 0 km/h
1228 26-08-2010 05:53:06 18.7 C 10.25 g/m*3 18.7 C 0 km/h
1229 26-08-2010 06:05:03 18.2 C 10.1 g/m*3 18.2 C 0 km/h
1230 26-08-2010 06:17:03 18.1 C 10.35 g/m*3 18.1 C 0 km/h
1231 26-08-2010 06:29:03 17.9 C 10.54 g/m*3 17.9 C 0 km/h
1232 26-08-2010 06:41:03 18.1 C 10.82 g/m*3 18.1 C 0 km/h
1233 26-08-2010 06:53:02 18.6 C 10.82 g/m*3 18.6 C 0 km/h
1234 26-08-2010 07:05:02 18.9 C 10.69 g/m*3 18.9 C 0 km/h
1235 26-08-2010 07:17:02 19 C 10.59 g/m*3 19 C 0 km/h
1236 26-08-2010 07:29:02 19.2 C 10.55 g/m*3 19.2 C 0 km/h
1237 26-08-2010 07:41:02 19.4 C 10.68 g/m*3 19.4 C 0 km/h
1238 26-08-2010 07:53:02 19.8 C 10.93 g/m*3 19.8 C 0 km/h
1239 26-08-2010 08:05:01 20 C 10.71 g/m*3 20 C 0 km/h
1240 26-08-2010 08:17:02 20.1 C 10.95 g/m*3 20.1 C 0 km/h
1241 26-08-2010 08:29:02 20.2 C 11.02 g/m*3 20.2 C 0 km/h
1242 26-08-2010 08:41:01 20.1 C 11.3 g/m*3 20.1 C 0 km/h
1243 26-08-2010 08:53:01 20.6 C 11.63 g/m*3 20.6 C 0 km/h
1244 26-08-2010 09:05:02 20.8 C 11.41 g/m*3 20.8 C 0 km/h
1245 26-08-2010 09:17:02 21.1 C 11.42 g/m*3 21.1 C 0 km/h
1246 26-08-2010 09:29:02 21.5 C 11.31 g/m*3 21.5 C 0 km/h
1247 26-08-2010 09:41:02 22 C 11.26 g/m*3 22 C 0 km/h
1248 26-08-2010 09:53:01 22.2 C 11.19 g/m*3 22.2 C 0 km/h
1249 26-08-2010 10:05:02 22.6 C 11.25 g/m*3 22.6 C 0 km/h
1250 26-08-2010 10:17:02 22.6 C 11.25 g/m*3 22.6 C 0 km/h
Sensor: Nr:Datum:Temp:Abs-Feuchte:Windchill:Wind:
Aussen-T/F 1251 26-08-2010 10:29:02 22.9 C 11.24 g/m*3 22.9 C 0 km/h
1252 26-08-2010 10:41:01 22.7 C 11.11 g/m*3 22.7 C 0 km/h
1253 26-08-2010 10:53:02 23 C 11.1 g/m*3 23 C 0 km/h
1254 26-08-2010 11:05:01 23.2 C 11.23 g/m*3 23.2 C 0 km/h
1255 26-08-2010 11:17:02 23.9 C 11.25 g/m*3 23.9 C 0 km/h
1256 26-08-2010 11:29:03 23.5 C 11.21 g/m*3 23.5 C 0 km/h
1257 26-08-2010 11:41:01 24.1 C 11.16 g/m*3 24.1 C 0 km/h
1258 26-08-2010 11:53:02 24.1 C 10.94 g/m*3 24.1 C 0 km/h
1259 26-08-2010 12:05:02 24.4 C 11.13 g/m*3 24.4 C 0 km/h
1260 26-08-2010 12:17:02 23.8 C 10.97 g/m*3 23.8 C 0 km/h
1261 26-08-2010 12:29:02 23.4 C 11.14 g/m*3 23.4 C 0 km/h
1262 26-08-2010 12:41:03 23.2 C 11.23 g/m*3 23.2 C 0 km/h
1263 26-08-2010 12:53:02 22.9 C 11.24 g/m*3 22.9 C 0 km/h
1264 26-08-2010 13:05:02 22.7 C 11.31 g/m*3 22.7 C 0 km/h
1265 26-08-2010 13:17:01 22.7 C 11.31 g/m*3 22.7 C 0 km/h
1266 26-08-2010 13:29:01 22.9 C 11.24 g/m*3 22.9 C 0 km/h
1267 26-08-2010 13:41:02 23.3 C 11.08 g/m*3 23.3 C 0 km/h
1268 26-08-2010 13:53:02 23.2 C 11.02 g/m*3 23.2 C 0 km/h
1269 26-08-2010 14:05:02 23.5 C 11.21 g/m*3 23.5 C 0 km/h
1270 26-08-2010 14:17:02 23.9 C 11.25 g/m*3 23.9 C 0 km/h
1271 26-08-2010 14:29:02 23.9 C 11.03 g/m*3 23.9 C 0 km/h
1272 26-08-2010 14:41:02 23.8 C 11.19 g/m*3 23.8 C 0 km/h
1273 26-08-2010 14:53:02 23.9 C 11.25 g/m*3 23.9 C 0 km/h
1274 26-08-2010 15:05:02 23.9 C 11.47 g/m*3 23.9 C 0 km/h
1275 26-08-2010 15:17:02 23.8 C 11.19 g/m*3 23.8 C 0 km/h
Sensor: Nr:Datum:Temp:Abs-Feuchte:Windchill:Wind:
Aussen-T/F 1276 26-08-2010 15:29:02 23.7 C 11.34 g/m*3 23.7 C 0 km/h
1277 26-08-2010 15:41:02 23.5 C 11.42 g/m*3 23.5 C 0 km/h
1278 26-08-2010 15:53:02 23.5 C 11.21 g/m*3 23.5 C 0 km/h
1279 26-08-2010 16:05:02 23.9 C 11.47 g/m*3 23.9 C 0 km/h
1280 26-08-2010 16:17:02 23.8 C 11.4 g/m*3 23.8 C 0 km/h
1281 26-08-2010 16:29:02 23.7 C 11.34 g/m*3 23.7 C 0 km/h
1282 26-08-2010 16:41:02 24.2 C 11.22 g/m*3 24.2 C 0 km/h
1283 26-08-2010 16:53:02 24.1 C 10.94 g/m*3 24.1 C 0 km/h
1284 26-08-2010 17:05:02 23.9 C 11.25 g/m*3 23.9 C 0 km/h
1285 26-08-2010 17:17:02 23.7 C 11.34 g/m*3 23.7 C 0 km/h
1286 26-08-2010 17:29:02 23.6 C 11.27 g/m*3 23.6 C 0 km/h
1287 26-08-2010 17:41:02 23.5 C 11.21 g/m*3 23.5 C 0 km/h
1288 26-08-2010 17:53:02 23.4 C 11.35 g/m*3 23.4 C 0 km/h
1289 26-08-2010 18:05:02 23.4 C 11.35 g/m*3 23.4 C 0 km/h
1290 26-08-2010 18:17:02 23.3 C 11.5 g/m*3 23.3 C 0 km/h
1291 26-08-2010 18:29:03 23.2 C 11.85 g/m*3 23.2 C 0 km/h
1292 26-08-2010 18:41:01 23 C 11.72 g/m*3 23 C 0 km/h
1293 26-08-2010 18:53:02 23 C 11.92 g/m*3 23 C 0 km/h
1294 26-08-2010 19:05:01 22.6 C 12.25 g/m*3 22.6 C 0 km/h
1295 26-08-2010 19:17:02 22.6 C 12.25 g/m*3 22.6 C 0 km/h
1296 26-08-2010 19:29:02 21.6 C 13.28 g/m*3 21.6 C 0 km/h
1297 26-08-2010 19:41:02 20.7 C 14.04 g/m*3 20.7 C 0 km/h
1298 26-08-2010 19:53:02 20.8 C 14.67 g/m*3 20.8 C 0 km/h
1299 26-08-2010 20:05:02 21 C 14.65 g/m*3 21 C 0 km/h
1300 26-08-2010 20:17:02 20.9 C 14.57 g/m*3 20.9 C 0 km/h
Sensor: Nr:Datum:Temp:Abs-Feuchte:Windchill:Wind:
Aussen-T/F 1301 26-08-2010 20:29:02 21 C 14.47 g/m*3 21 C 0 km/h
1302 26-08-2010 20:41:02 20.9 C 14.39 g/m*3 20.9 C 0 km/h
1303 26-08-2010 20:53:01 20.9 C 14.39 g/m*3 20.9 C 0 km/h
1304 26-08-2010 21:05:02 20.7 C 14.04 g/m*3 20.7 C 0 km/h
1305 26-08-2010 21:17:01 20.7 C 14.04 g/m*3 20.7 C 0 km/h
1306 26-08-2010 21:29:01 20.4 C 13.98 g/m*3 20.4 C 0 km/h
1307 26-08-2010 21:41:02 20.2 C 13.99 g/m*3 20.2 C 0 km/h
1308 26-08-2010 21:53:02 20.1 C 14.08 g/m*3 20.1 C 0 km/h
1309 26-08-2010 22:06:04 20 C 14.34 g/m*3 20 C 0 km/h
1310 26-08-2010 22:18:04 19.8 C 14.52 g/m*3 19.8 C 0 km/h
1311 26-08-2010 22:30:04 19.7 C 14.6 g/m*3 19.7 C 0 km/h
1312 26-08-2010 22:42:04 19.7 C 14.77 g/m*3 19.7 C 0 km/h
1313 26-08-2010 22:54:04 19.6 C 14.86 g/m*3 19.6 C 0 km/h
1314 26-08-2010 23:06:04 19.5 C 14.77 g/m*3 19.5 C 0 km/h
1315 26-08-2010 23:18:04 19.5 C 14.94 g/m*3 19.5 C 0 km/h
1316 26-08-2010 23:30:04 19.5 C 14.94 g/m*3 19.5 C 0 km/h
1317 26-08-2010 23:42:05 19.4 C 15.02 g/m*3 19.4 C 0 km/h
1318 26-08-2010 23:54:05 19.3 C 15.09 g/m*3 19.3 C 0 km/h
1319 27-08-2010 00:06:05 19.2 C 15.01 g/m*3 19.2 C 0 km/h
1320 27-08-2010 00:18:05 19 C 14.83 g/m*3 19 C 0 km/h
1321 27-08-2010 00:30:05 19 C 14.83 g/m*3 19 C 0 km/h
1322 27-08-2010 00:42:05 18.9 C 14.9 g/m*3 18.9 C 0 km/h
1323 27-08-2010 00:54:05 18.8 C 14.98 g/m*3 18.8 C 0 km/h
1324 27-08-2010 01:06:05 18.7 C 14.89 g/m*3 18.7 C 0 km/h
1325 27-08-2010 01:18:05 18.7 C 14.89 g/m*3 18.7 C 0 km/h
Sensor: Nr:Datum:Temp:Abs-Feuchte:Windchill:Wind:
Aussen-T/F 1326 27-08-2010 01:30:05 18.8 C 14.98 g/m*3 18.8 C 0 km/h
1327 27-08-2010 01:42:05 18.8 C 14.98 g/m*3 18.8 C 0 km/h
1328 27-08-2010 01:54:05 18.8 C 15.14 g/m*3 18.8 C 0 km/h
1329 27-08-2010 02:06:05 18.8 C 15.14 g/m*3 18.8 C 0 km/h
1330 27-08-2010 02:18:05 18.7 C 15.05 g/m*3 18.7 C 0 km/h
1331 27-08-2010 02:30:05 18.5 C 14.87 g/m*3 18.5 C 0 km/h
1332 27-08-2010 02:42:05 18.6 C 14.96 g/m*3 18.6 C 0 km/h
1333 27-08-2010 02:54:05 18.5 C 14.87 g/m*3 18.5 C 0 km/h
1334 27-08-2010 03:06:05 18.4 C 14.78 g/m*3 18.4 C 0 km/h
1335 27-08-2010 03:18:05 18.4 C 14.78 g/m*3 18.4 C 0 km/h
1336 27-08-2010 03:30:05 18.4 C 14.78 g/m*3 18.4 C 0 km/h
1337 27-08-2010 03:42:05 18.4 C 14.78 g/m*3 18.4 C 0 km/h
1338 27-08-2010 03:54:05 18.3 C 14.7 g/m*3 18.3 C 0 km/h
1339 27-08-2010 04:06:05 18.3 C 14.7 g/m*3 18.3 C 0 km/h
1340 27-08-2010 04:18:06 18.3 C 14.7 g/m*3 18.3 C 0 km/h
1341 27-08-2010 04:30:06 18.4 C 14.78 g/m*3 18.4 C 0 km/h
1342 27-08-2010 04:42:06 18.4 C 14.78 g/m*3 18.4 C 0 km/h
1343 27-08-2010 04:54:06 18.3 C 14.7 g/m*3 18.3 C 0 km/h
1344 27-08-2010 05:06:06 18.3 C 14.85 g/m*3 18.3 C 0 km/h
1345 27-08-2010 05:18:06 18.3 C 14.7 g/m*3 18.3 C 0 km/h
1346 27-08-2010 05:30:06 18.4 C 14.78 g/m*3 18.4 C 0 km/h
1347 27-08-2010 05:42:06 18.4 C 14.94 g/m*3 18.4 C 0 km/h
1348 27-08-2010 05:54:06 18.6 C 15.12 g/m*3 18.6 C 0 km/h
1349 27-08-2010 06:06:06 18.7 C 15.21 g/m*3 18.7 C 0 km/h
1350 27-08-2010 06:18:06 18.8 C 15.3 g/m*3 18.8 C 0 km/h
Sensor: Nr:Datum:Temp:Abs-Feuchte:Windchill:Wind:
Aussen-T/F 1351 27-08-2010 06:30:06 18.9 C 15.39 g/m*3 18.9 C 0 km/h
1352 27-08-2010 06:42:06 18.9 C 15.39 g/m*3 18.9 C 0 km/h
1353 27-08-2010 06:54:06 18.8 C 15.3 g/m*3 18.8 C 0 km/h
1354 27-08-2010 07:06:06 18.8 C 15.14 g/m*3 18.8 C 0 km/h
1355 27-08-2010 07:18:07 18.7 C 15.05 g/m*3 18.7 C 0 km/h
1356 27-08-2010 07:30:07 18.7 C 15.05 g/m*3 18.7 C 0 km/h
1357 27-08-2010 07:42:07 18.6 C 14.96 g/m*3 18.6 C 0 km/h
1358 27-08-2010 07:54:01 18.6 C 14.96 g/m*3 18.6 C 0 km/h
1359 27-08-2010 08:06:02 18.6 C 14.96 g/m*3 18.6 C 0 km/h
1360 27-08-2010 08:18:01 18.6 C 14.96 g/m*3 18.6 C 0 km/h
1361 27-08-2010 08:30:01 18.6 C 14.96 g/m*3 18.6 C 0 km/h
1362 27-08-2010 08:42:01 18.5 C 14.87 g/m*3 18.5 C 0 km/h
1363 27-08-2010 08:54:02 18.6 C 14.96 g/m*3 18.6 C 0 km/h
1364 27-08-2010 09:06:01 18.6 C 14.96 g/m*3 18.6 C 0 km/h
1365 27-08-2010 09:18:02 18.8 C 15.14 g/m*3 18.8 C 0 km/h
1366 27-08-2010 09:30:02 19.5 C 15.27 g/m*3 19.5 C 0 km/h
1367 27-08-2010 09:42:01 19.7 C 15.11 g/m*3 19.7 C 0 km/h
1368 27-08-2010 09:54:02 19.7 C 14.77 g/m*3 19.7 C 0 km/h
1369 27-08-2010 10:06:02 19.7 C 14.6 g/m*3 19.7 C 0 km/h
1370 27-08-2010 10:18:02 19.8 C 14.52 g/m*3 19.8 C 0 km/h
1371 27-08-2010 10:30:02 19.4 C 14.18 g/m*3 19.4 C 0 km/h
1372 27-08-2010 10:42:03 19 C 14.18 g/m*3 19 C 0 km/h
1373 27-08-2010 10:54:02 18.7 C 14.25 g/m*3 18.7 C 0 km/h
1374 27-08-2010 11:06:02 18.5 C 14.4 g/m*3 18.5 C 0 km/h
1375 27-08-2010 11:18:01 18.3 C 13.92 g/m*3 18.3 C 0 km/h
Sensor: Nr:Datum:Temp:Abs-Feuchte:Windchill:Wind:
Aussen-T/F 1376 27-08-2010 11:30:01 18.1 C 13.44 g/m*3 18.1 C 0 km/h
1377 27-08-2010 11:42:02 17.9 C 13.13 g/m*3 17.9 C 0 km/h
1378 27-08-2010 11:54:02 18 C 13.06 g/m*3 18 C 0 km/h
1379 27-08-2010 12:06:02 18.7 C 13.77 g/m*3 18.7 C 0 km/h
1380 27-08-2010 12:18:02 19.5 C 13.93 g/m*3 19.5 C 0 km/h
1381 27-08-2010 12:30:02 20.4 C 13.62 g/m*3 20.4 C 0 km/h
1382 27-08-2010 12:42:02 20.5 C 12.99 g/m*3 20.5 C 0 km/h
1383 27-08-2010 12:54:02 21.4 C 13.12 g/m*3 21.4 C 0 km/h
1384 27-08-2010 13:06:02 21.9 C 12.93 g/m*3 21.9 C 0 km/h
1385 27-08-2010 13:18:02 22.4 C 13.11 g/m*3 22.4 C 0 km/h
1386 27-08-2010 13:30:02 22.8 C 12.6 g/m*3 22.8 C 0 km/h
1387 27-08-2010 13:42:02 23.4 C 12.41 g/m*3 23.4 C 0 km/h
1388 27-08-2010 13:54:02 24.1 C 11.82 g/m*3 24.1 C 0 km/h
1389 27-08-2010 14:06:02 24.2 C 11.88 g/m*3 24.2 C 0 km/h
1390 27-08-2010 14:18:03 23.6 C 11.7 g/m*3 23.6 C 0 km/h
1391 27-08-2010 14:30:03 22.5 C 12.78 g/m*3 22.5 C 0 km/h
1392 27-08-2010 14:42:02 17 C 11 g/m*3 17 C 0 km/h
1393 27-08-2010 14:54:03 16.5 C 11.94 g/m*3 16.5 C 0 km/h
1394 27-08-2010 15:06:02 16.7 C 12.65 g/m*3 16.7 C 0 km/h
1395 27-08-2010 15:18:02 18.3 C 13.76 g/m*3 18.3 C 0 km/h
1396 27-08-2010 15:30:02 19 C 13.85 g/m*3 19 C 0 km/h
1397 27-08-2010 15:42:02 19.8 C 13.66 g/m*3 19.8 C 0 km/h
1398 27-08-2010 15:54:02 20.8 C 13.4 g/m*3 20.8 C 0 km/h
1399 27-08-2010 16:06:01 21.8 C 12.47 g/m*3 21.8 C 0 km/h
1400 27-08-2010 16:18:02 21.7 C 12.59 g/m*3 21.7 C 0 km/h
Sensor: Nr:Datum:Temp:Abs-Feuchte:Windchill:Wind:
Aussen-T/F 1401 27-08-2010 16:30:02 21.3 C 12.68 g/m*3 21.3 C 0 km/h
1402 27-08-2010 16:42:02 21.7 C 13.35 g/m*3 21.7 C 0 km/h
1403 27-08-2010 16:54:02 23 C 13.36 g/m*3 23 C 0 km/h
1404 27-08-2010 17:06:01 22.8 C 11.99 g/m*3 22.8 C 0 km/h
1405 27-08-2010 17:18:01 22.9 C 12.47 g/m*3 22.9 C 0 km/h
1406 27-08-2010 17:30:01 21.5 C 11.5 g/m*3 21.5 C 0 km/h
1407 27-08-2010 17:42:02 20.2 C 11.37 g/m*3 20.2 C 0 km/h
1408 27-08-2010 17:54:02 19.1 C 11.15 g/m*3 19.1 C 0 km/h
1409 27-08-2010 18:06:02 17.3 C 12.08 g/m*3 17.3 C 0 km/h
1410 27-08-2010 18:18:02 16.6 C 12.15 g/m*3 16.6 C 0 km/h
1411 27-08-2010 18:30:02 16.4 C 12.14 g/m*3 16.4 C 0 km/h
1412 27-08-2010 18:42:02 17 C 12.3 g/m*3 17 C 0 km/h
1413 27-08-2010 18:54:02 16.7 C 11.37 g/m*3 16.7 C 0 km/h
1414 27-08-2010 19:06:02 16.3 C 11.38 g/m*3 16.3 C 0 km/h
1415 27-08-2010 19:18:02 16 C 11.31 g/m*3 16 C 0 km/h
1416 27-08-2010 19:30:02 15.5 C 10.84 g/m*3 15.5 C 0 km/h
1417 27-08-2010 19:42:02 15.3 C 10.71 g/m*3 15.3 C 0 km/h
1418 27-08-2010 19:54:02 15.1 C 10.45 g/m*3 15.1 C 0 km/h
1419 27-08-2010 20:06:02 15.1 C 10.58 g/m*3 15.1 C 0 km/h
1420 27-08-2010 20:18:02 15.3 C 10.71 g/m*3 15.3 C 0 km/h
1421 27-08-2010 20:30:02 15.3 C 10.45 g/m*3 15.3 C 0 km/h
1422 27-08-2010 20:42:02 15.2 C 10.25 g/m*3 15.2 C 0 km/h
1423 27-08-2010 20:54:02 14.7 C 10.2 g/m*3 14.7 C 0 km/h
1424 27-08-2010 21:06:02 14.5 C 10.32 g/m*3 14.5 C 0 km/h
1425 27-08-2010 21:18:03 14.5 C 10.2 g/m*3 14.5 C 0 km/h
Sensor: Nr:Datum:Temp:Abs-Feuchte:Windchill:Wind:
Aussen-T/F 1426 27-08-2010 21:30:03 14.6 C 10.14 g/m*3 14.6 C 0 km/h
1427 27-08-2010 21:42:02 14.6 C 10.14 g/m*3 14.6 C 0 km/h
1428 27-08-2010 21:54:03 14.7 C 10.07 g/m*3 14.7 C 0 km/h
1429 27-08-2010 22:06:02 14.8 C 10.01 g/m*3 14.8 C 0 km/h
1430 27-08-2010 22:18:02 14.8 C 10.01 g/m*3 14.8 C 0 km/h
1431 27-08-2010 22:30:02 14.8 C 10.01 g/m*3 14.8 C 0 km/h
1432 27-08-2010 22:43:28 14.8 C 10.01 g/m*3 14.8 C 0 km/h
1433 27-08-2010 22:55:28 14.5 C 10.07 g/m*3 14.5 C 0 km/h
1434 27-08-2010 23:07:28 13.8 C 9.65 g/m*3 13.8 C 0 km/h
1435 27-08-2010 23:19:28 13.9 C 9.59 g/m*3 13.9 C 0 km/h
1436 27-08-2010 23:31:28 13.8 C 9.29 g/m*3 13.8 C 0 km/h
1437 27-08-2010 23:43:28 14.1 C 9.1 g/m*3 14.1 C 0 km/h
1438 27-08-2010 23:55:28 14.2 C 9.04 g/m*3 14.2 C 0 km/h
1439 28-08-2010 00:07:28 14.1 C 9.1 g/m*3 14.1 C 0 km/h
1440 28-08-2010 00:19:28 13.9 C 9.11 g/m*3 13.9 C 0 km/h
1441 28-08-2010 00:31:28 14 C 9.05 g/m*3 14 C 0 km/h
1442 28-08-2010 00:43:28 13.7 C 9.35 g/m*3 13.7 C 0 km/h
1443 28-08-2010 00:55:29 13.2 C 9.42 g/m*3 13.2 C 0 km/h
1444 28-08-2010 01:07:29 13.2 C 9.64 g/m*3 13.2 C 0 km/h
1445 28-08-2010 01:19:29 13.1 C 9.81 g/m*3 13.1 C 0 km/h
1446 28-08-2010 01:31:29 13 C 9.87 g/m*3 13 C 0 km/h
1447 28-08-2010 01:43:29 13.1 C 10.04 g/m*3 13.1 C 0 km/h
1448 28-08-2010 01:55:29 13.1 C 10.04 g/m*3 13.1 C 0 km/h
1449 28-08-2010 02:07:29 13.2 C 9.99 g/m*3 13.2 C 0 km/h
1450 28-08-2010 02:19:29 13.2 C 9.99 g/m*3 13.2 C 0 km/h
Sensor: Nr:Datum:Temp:Abs-Feuchte:Windchill:Wind:
Aussen-T/F 1451 28-08-2010 02:31:29 13.1 C 9.81 g/m*3 13.1 C 0 km/h
1452 28-08-2010 02:43:29 13.1 C 9.7 g/m*3 13.1 C 0 km/h
1453 28-08-2010 02:55:29 13.1 C 9.59 g/m*3 13.1 C 0 km/h
1454 28-08-2010 03:07:29 13.1 C 9.59 g/m*3 13.1 C 0 km/h
1455 28-08-2010 03:19:29 13.1 C 9.59 g/m*3 13.1 C 0 km/h
1456 28-08-2010 03:31:29 13.1 C 9.47 g/m*3 13.1 C 0 km/h
1457 28-08-2010 03:43:29 13.1 C 9.59 g/m*3 13.1 C 0 km/h
1458 28-08-2010 03:55:29 13.1 C 9.59 g/m*3 13.1 C 0 km/h
1459 28-08-2010 04:07:29 12.9 C 9.47 g/m*3 12.9 C 0 km/h
1460 28-08-2010 04:19:30 12.9 C 9.47 g/m*3 12.9 C 0 km/h
1461 28-08-2010 04:31:30 12.5 C 9.24 g/m*3 12.5 C 0 km/h
1462 28-08-2010 04:43:30 12.3 C 9.23 g/m*3 12.3 C 0 km/h
1463 28-08-2010 04:55:30 12.1 C 9.12 g/m*3 12.1 C 0 km/h
1464 28-08-2010 05:07:30 12.2 C 9.28 g/m*3 12.2 C 0 km/h
1465 28-08-2010 05:19:30 12.3 C 9.34 g/m*3 12.3 C 0 km/h
1466 28-08-2010 05:31:30 12.1 C 9.01 g/m*3 12.1 C 0 km/h
1467 28-08-2010 05:43:30 11.9 C 9 g/m*3 11.9 C 0 km/h
1468 28-08-2010 05:55:30 12.1 C 9.12 g/m*3 12.1 C 0 km/h
1469 28-08-2010 06:07:30 11.7 C 8.89 g/m*3 11.7 C 0 km/h
1470 28-08-2010 06:19:30 11.6 C 8.83 g/m*3 11.6 C 0 km/h
1471 28-08-2010 06:31:30 11.7 C 8.79 g/m*3 11.7 C 0 km/h
1472 28-08-2010 06:43:30 11.5 C 8.68 g/m*3 11.5 C 0 km/h
1473 28-08-2010 06:55:02 11.4 C 8.62 g/m*3 11.4 C 0 km/h
1474 28-08-2010 07:07:02 11.3 C 8.67 g/m*3 11.3 C 0 km/h
1475 28-08-2010 07:19:02 11.3 C 8.77 g/m*3 11.3 C 0 km/h
Sensor: Nr:Datum:Temp:Abs-Feuchte:Windchill:Wind:
Aussen-T/F 1476 28-08-2010 07:31:01 11.6 C 8.94 g/m*3 11.6 C 0 km/h
1477 28-08-2010 07:43:01 12 C 8.95 g/m*3 12 C 0 km/h
1478 28-08-2010 07:55:02 12.4 C 9.07 g/m*3 12.4 C 0 km/h
1479 28-08-2010 08:07:01 12.6 C 9.07 g/m*3 12.6 C 0 km/h
1480 28-08-2010 08:19:02 12.8 C 8.96 g/m*3 12.8 C 0 km/h
1481 28-08-2010 08:31:01 13 C 8.85 g/m*3 13 C 0 km/h
1482 28-08-2010 08:43:01 13.4 C 8.95 g/m*3 13.4 C 0 km/h
1483 28-08-2010 08:55:02 13.6 C 8.83 g/m*3 13.6 C 0 km/h
1484 28-08-2010 09:07:02 14.3 C 8.97 g/m*3 14.3 C 0 km/h
1485 28-08-2010 09:19:01 14.2 C 8.55 g/m*3 14.2 C 0 km/h
1486 28-08-2010 09:31:02 14.1 C 8.62 g/m*3 14.1 C 0 km/h
1487 28-08-2010 09:43:02 14.1 C 8.37 g/m*3 14.1 C 0 km/h
1488 28-08-2010 09:55:02 14.4 C 8.41 g/m*3 14.4 C 0 km/h
1489 28-08-2010 10:07:02 14.6 C 8.38 g/m*3 14.6 C 0 km/h
1490 28-08-2010 10:19:02 14.6 C 8.38 g/m*3 14.6 C 0 km/h
1491 28-08-2010 10:31:02 15.1 C 8.39 g/m*3 15.1 C 0 km/h
1492 28-08-2010 10:43:02 15.6 C 8.51 g/m*3 15.6 C 0 km/h
1493 28-08-2010 10:55:02 15.8 C 8.08 g/m*3 15.8 C 0 km/h
1494 28-08-2010 11:07:03 15.8 C 8.21 g/m*3 15.8 C 0 km/h
1495 28-08-2010 11:19:02 16.4 C 7.96 g/m*3 16.4 C 0 km/h
1496 28-08-2010 11:31:03 16.9 C 7.77 g/m*3 16.9 C 0 km/h
1497 28-08-2010 11:43:03 16.7 C 7.25 g/m*3 16.7 C 0 km/h
1498 28-08-2010 11:55:02 16.4 C 7.82 g/m*3 16.4 C 0 km/h
1499 28-08-2010 12:07:02 17 C 7.67 g/m*3 17 C 0 km/h
1500 28-08-2010 12:19:02 18 C 7.22 g/m*3 18 C 0 km/h
Sensor: Nr:Datum:Temp:Abs-Feuchte:Windchill:Wind:
Aussen-T/F 1501 28-08-2010 12:31:02 13.7 C 8.05 g/m*3 13.7 C 0 km/h
1502 28-08-2010 12:43:02 13.7 C 9.35 g/m*3 13.7 C 0 km/h
1503 28-08-2010 12:55:02 14.7 C 10.58 g/m*3 14.7 C 0 km/h
1504 28-08-2010 13:07:02 15.7 C 10.84 g/m*3 15.7 C 0 km/h
1505 28-08-2010 13:19:03 15.8 C 10.23 g/m*3 15.8 C 0 km/h
1506 28-08-2010 13:31:02 15.5 C 10.31 g/m*3 15.5 C 0 km/h
1507 28-08-2010 13:43:02 17.2 C 11.57 g/m*3 17.2 C 0 km/h
1508 28-08-2010 13:55:03 17 C 10.13 g/m*3 17 C 0 km/h
1509 28-08-2010 14:07:02 15.8 C 8.88 g/m*3 15.8 C 0 km/h
1510 28-08-2010 14:19:03 16.8 C 8.01 g/m*3 16.8 C 0 km/h
1511 28-08-2010 14:31:02 15.9 C 6.91 g/m*3 15.9 C 0 km/h
1512 28-08-2010 14:43:02 14.9 C 7.01 g/m*3 14.9 C 0 km/h
1513 28-08-2010 14:55:02 14.6 C 7.63 g/m*3 14.6 C 0 km/h
1514 28-08-2010 15:07:02 14.7 C 7.68 g/m*3 14.7 C 0 km/h
1515 28-08-2010 15:19:02 15.8 C 7.94 g/m*3 15.8 C 0 km/h
1516 28-08-2010 15:31:03 17.6 C 7.65 g/m*3 17.6 C 0 km/h
1517 28-08-2010 15:43:03 17.9 C 6.72 g/m*3 17.9 C 0 km/h
1518 28-08-2010 15:55:02 17.6 C 7.05 g/m*3 17.6 C 0 km/h
1519 28-08-2010 16:07:01 17 C 6.8 g/m*3 17 C 0 km/h
1520 28-08-2010 16:19:02 14.9 C 7.65 g/m*3 14.9 C 0 km/h
1521 28-08-2010 16:31:02 13.9 C 8.27 g/m*3 13.9 C 0 km/h
1522 28-08-2010 16:43:02 14.5 C 8.95 g/m*3 14.5 C 0 km/h
1523 28-08-2010 16:55:01 15.2 C 8.44 g/m*3 15.2 C 0 km/h
1524 28-08-2010 17:07:02 15.9 C 9.21 g/m*3 15.9 C 0 km/h
1525 28-08-2010 17:19:01 16 C 8.72 g/m*3 16 C 0 km/h
Sensor: Nr:Datum:Temp:Abs-Feuchte:Windchill:Wind:
Aussen-T/F 1526 28-08-2010 17:31:02 15.7 C 8.3 g/m*3 15.7 C 0 km/h
1527 28-08-2010 17:43:02 15.2 C 8.05 g/m*3 15.2 C 0 km/h
1528 28-08-2010 17:55:01 15.2 C 9.09 g/m*3 15.2 C 0 km/h
1529 28-08-2010 18:07:02 16.2 C 8.27 g/m*3 16.2 C 0 km/h
1530 28-08-2010 18:19:01 17 C 6.95 g/m*3 17 C 0 km/h
1531 28-08-2010 18:31:02 18.1 C 7.26 g/m*3 18.1 C 0 km/h
1532 28-08-2010 18:43:02 18.3 C 7.04 g/m*3 18.3 C 0 km/h
1533 28-08-2010 18:55:01 18.2 C 7.46 g/m*3 18.2 C 0 km/h
1534 28-08-2010 19:07:02 16.8 C 7.86 g/m*3 16.8 C 0 km/h
1535 28-08-2010 19:19:02 16.1 C 7.95 g/m*3 16.1 C 0 km/h
1536 28-08-2010 19:31:02 15 C 8.59 g/m*3 15 C 0 km/h
1537 28-08-2010 19:43:02 14.2 C 8.79 g/m*3 14.2 C 0 km/h
1538 28-08-2010 19:55:01 14.2 C 8.3 g/m*3 14.2 C 0 km/h
1539 28-08-2010 20:07:02 13.4 C 8.6 g/m*3 13.4 C 0 km/h
1540 28-08-2010 20:19:02 13 C 8.85 g/m*3 13 C 0 km/h
1541 28-08-2010 20:31:01 13.1 C 9.13 g/m*3 13.1 C 0 km/h
1542 28-08-2010 20:43:01 13.1 C 9.24 g/m*3 13.1 C 0 km/h
1543 28-08-2010 20:55:02 12.9 C 9.35 g/m*3 12.9 C 0 km/h
1544 28-08-2010 21:07:01 12.8 C 9.3 g/m*3 12.8 C 0 km/h
1545 28-08-2010 21:19:02 12.7 C 9.24 g/m*3 12.7 C 0 km/h
1546 28-08-2010 21:31:01 12.4 C 9.07 g/m*3 12.4 C 0 km/h
1547 28-08-2010 21:43:01 12.2 C 8.96 g/m*3 12.2 C 0 km/h
1548 28-08-2010 21:55:02 12.2 C 9.06 g/m*3 12.2 C 0 km/h
1549 28-08-2010 22:08:02 12.3 C 9.12 g/m*3 12.3 C 0 km/h
1550 28-08-2010 22:20:02 12.3 C 9.01 g/m*3 12.3 C 0 km/h
Sensor: Nr:Datum:Temp:Abs-Feuchte:Windchill:Wind:
Aussen-T/F 1551 28-08-2010 22:32:03 12.2 C 8.85 g/m*3 12.2 C 0 km/h
1552 28-08-2010 22:44:03 12.1 C 8.79 g/m*3 12.1 C 0 km/h
1553 28-08-2010 22:56:03 12.3 C 9.01 g/m*3 12.3 C 0 km/h
1554 28-08-2010 23:08:03 12.6 C 8.96 g/m*3 12.6 C 0 km/h
1555 28-08-2010 23:20:03 12.7 C 8.79 g/m*3 12.7 C 0 km/h
1556 28-08-2010 23:32:03 12.4 C 8.74 g/m*3 12.4 C 0 km/h
1557 28-08-2010 23:44:03 12.1 C 8.58 g/m*3 12.1 C 0 km/h
1558 28-08-2010 23:56:03 12 C 8.53 g/m*3 12 C 0 km/h
1559 29-08-2010 00:08:03 11.8 C 8.42 g/m*3 11.8 C 0 km/h
1560 29-08-2010 00:20:03 11.8 C 8.42 g/m*3 11.8 C 0 km/h
1561 29-08-2010 00:32:03 11.9 C 8.58 g/m*3 11.9 C 0 km/h
1562 29-08-2010 00:44:03 12 C 8.53 g/m*3 12 C 0 km/h
1563 29-08-2010 00:56:03 12 C 8.42 g/m*3 12 C 0 km/h
1564 29-08-2010 01:08:03 11.7 C 8.47 g/m*3 11.7 C 0 km/h
1565 29-08-2010 01:20:03 11.5 C 8.37 g/m*3 11.5 C 0 km/h
1566 29-08-2010 01:32:03 11.5 C 8.47 g/m*3 11.5 C 0 km/h
1567 29-08-2010 01:44:03 11.4 C 8.42 g/m*3 11.4 C 0 km/h
1568 29-08-2010 01:56:03 11.4 C 8.52 g/m*3 11.4 C 0 km/h
1569 29-08-2010 02:08:03 11.7 C 8.58 g/m*3 11.7 C 0 km/h
1570 29-08-2010 02:20:03 11.7 C 8.47 g/m*3 11.7 C 0 km/h
1571 29-08-2010 02:32:03 11.7 C 8.58 g/m*3 11.7 C 0 km/h
1572 29-08-2010 02:44:04 11.8 C 8.53 g/m*3 11.8 C 0 km/h
1573 29-08-2010 02:56:04 11.8 C 8.53 g/m*3 11.8 C 0 km/h
1574 29-08-2010 03:08:04 11.8 C 8.42 g/m*3 11.8 C 0 km/h
1575 29-08-2010 03:20:04 11.8 C 8.53 g/m*3 11.8 C 0 km/h
Sensor: Nr:Datum:Temp:Abs-Feuchte:Windchill:Wind:
Aussen-T/F 1576 29-08-2010 03:32:04 11.8 C 8.53 g/m*3 11.8 C 0 km/h
1577 29-08-2010 03:44:04 11.7 C 8.47 g/m*3 11.7 C 0 km/h
1578 29-08-2010 03:56:04 11.7 C 8.47 g/m*3 11.7 C 0 km/h
1579 29-08-2010 04:08:04 11.6 C 8.42 g/m*3 11.6 C 0 km/h
1580 29-08-2010 04:20:04 11.4 C 8.31 g/m*3 11.4 C 0 km/h
1581 29-08-2010 04:32:04 11.4 C 8.42 g/m*3 11.4 C 0 km/h
1582 29-08-2010 04:44:04 11.4 C 8.42 g/m*3 11.4 C 0 km/h
1583 29-08-2010 04:56:04 11.7 C 8.37 g/m*3 11.7 C 0 km/h
1584 29-08-2010 05:08:04 11.8 C 8.31 g/m*3 11.8 C 0 km/h
1585 29-08-2010 05:20:04 11.7 C 8.26 g/m*3 11.7 C 0 km/h
1586 29-08-2010 05:32:04 11.7 C 8.26 g/m*3 11.7 C 0 km/h
1587 29-08-2010 05:44:04 11.7 C 8.37 g/m*3 11.7 C 0 km/h
1588 29-08-2010 05:56:04 11.8 C 8.42 g/m*3 11.8 C 0 km/h
1589 29-08-2010 06:08:04 12.2 C 8.31 g/m*3 12.2 C 0 km/h
1590 29-08-2010 06:20:04 12.1 C 8.26 g/m*3 12.1 C 0 km/h
1591 29-08-2010 06:32:04 12.2 C 8.2 g/m*3 12.2 C 0 km/h
1592 29-08-2010 06:44:04 12 C 8.31 g/m*3 12 C 0 km/h
1593 29-08-2010 06:56:04 12 C 8.42 g/m*3 12 C 0 km/h
1594 29-08-2010 07:08:02 12.1 C 8.36 g/m*3 12.1 C 0 km/h
1595 29-08-2010 07:20:02 12.2 C 8.31 g/m*3 12.2 C 0 km/h
1596 29-08-2010 07:32:02 12.2 C 8.31 g/m*3 12.2 C 0 km/h
1597 29-08-2010 07:44:02 12.2 C 8.31 g/m*3 12.2 C 0 km/h
1598 29-08-2010 07:56:02 12.3 C 8.36 g/m*3 12.3 C 0 km/h
1599 29-08-2010 08:08:02 12.1 C 8.36 g/m*3 12.1 C 0 km/h
1600 29-08-2010 08:20:01 12.2 C 8.42 g/m*3 12.2 C 0 km/h
Sensor: Nr:Datum:Temp:Abs-Feuchte:Windchill:Wind:
Aussen-T/F 1601 29-08-2010 08:32:02 12.5 C 8.36 g/m*3 12.5 C 0 km/h
1602 29-08-2010 08:44:02 12.6 C 8.3 g/m*3 12.6 C 0 km/h
1603 29-08-2010 08:56:01 12.8 C 8.29 g/m*3 12.8 C 0 km/h
1604 29-08-2010 09:08:02 13.5 C 8.3 g/m*3 13.5 C 0 km/h
1605 29-08-2010 09:20:02 13.8 C 8.1 g/m*3 13.8 C 0 km/h
1606 29-08-2010 09:32:01 14 C 8.08 g/m*3 14 C 0 km/h
1607 29-08-2010 09:44:01 14.3 C 8.23 g/m*3 14.3 C 0 km/h
1608 29-08-2010 09:56:03 14.4 C 8.16 g/m*3 14.4 C 0 km/h
1609 29-08-2010 10:08:03 14.9 C 8.28 g/m*3 14.9 C 0 km/h
1610 29-08-2010 10:20:03 15.3 C 7.97 g/m*3 15.3 C 0 km/h
1611 29-08-2010 10:32:02 15.3 C 7.97 g/m*3 15.3 C 0 km/h
1612 29-08-2010 10:44:02 15.7 C 8.03 g/m*3 15.7 C 0 km/h
1613 29-08-2010 10:56:01 15.8 C 7.94 g/m*3 15.8 C 0 km/h
1614 29-08-2010 11:08:02 16.3 C 8.05 g/m*3 16.3 C 0 km/h
1615 29-08-2010 11:20:01 16.4 C 7.96 g/m*3 16.4 C 0 km/h
1616 29-08-2010 11:32:01 16.6 C 7.91 g/m*3 16.6 C 0 km/h
1617 29-08-2010 11:44:01 16 C 7.77 g/m*3 16 C 0 km/h
1618 29-08-2010 11:56:01 16 C 7.9 g/m*3 16 C 0 km/h
1619 29-08-2010 12:08:01 15.9 C 7.85 g/m*3 15.9 C 0 km/h
1620 29-08-2010 12:20:02 14 C 9.17 g/m*3 14 C 0 km/h
1621 29-08-2010 12:32:01 14.6 C 9.76 g/m*3 14.6 C 0 km/h
1622 29-08-2010 12:44:01 15.1 C 9.16 g/m*3 15.1 C 0 km/h
1623 29-08-2010 12:56:03 16 C 9.13 g/m*3 16 C 0 km/h
1624 29-08-2010 13:08:02 16.9 C 8.92 g/m*3 16.9 C 0 km/h
1625 29-08-2010 13:20:02 16.9 C 8.63 g/m*3 16.9 C 0 km/h
Sensor: Nr:Datum:Temp:Abs-Feuchte:Windchill:Wind:
Aussen-T/F 1626 29-08-2010 13:32:02 16.4 C 8.37 g/m*3 16.4 C 0 km/h
1627 29-08-2010 13:44:02 15.3 C 8.62 g/m*3 15.3 C 0 km/h
1628 29-08-2010 13:56:02 14.7 C 8.94 g/m*3 14.7 C 0 km/h
1629 29-08-2010 14:08:01 15.2 C 8.83 g/m*3 15.2 C 0 km/h
1630 29-08-2010 14:20:02 16.4 C 8.51 g/m*3 16.4 C 0 km/h
1631 29-08-2010 14:32:02 17 C 7.96 g/m*3 17 C 0 km/h
1632 29-08-2010 14:44:02 17.1 C 8.3 g/m*3 17.1 C 0 km/h
1633 29-08-2010 14:56:01 16.6 C 8.33 g/m*3 16.6 C 0 km/h
1634 29-08-2010 15:08:01 15.7 C 8.3 g/m*3 15.7 C 0 km/h
1635 29-08-2010 15:20:01 15.5 C 8.2 g/m*3 15.5 C 0 km/h
1636 29-08-2010 15:32:02 14.2 C 8.91 g/m*3 14.2 C 0 km/h
1637 29-08-2010 15:44:02 14.7 C 9.69 g/m*3 14.7 C 0 km/h
1638 29-08-2010 15:56:02 15.3 C 9.4 g/m*3 15.3 C 0 km/h
1639 29-08-2010 16:08:02 15.1 C 9.03 g/m*3 15.1 C 0 km/h
1640 29-08-2010 16:20:02 15.5 C 8.99 g/m*3 15.5 C 0 km/h
1641 29-08-2010 16:32:02 15.9 C 8.53 g/m*3 15.9 C 0 km/h
1642 29-08-2010 16:44:03 16.2 C 8.14 g/m*3 16.2 C 0 km/h
1643 29-08-2010 16:56:02 16.1 C 7.81 g/m*3 16.1 C 0 km/h
1644 29-08-2010 17:08:02 15.9 C 7.85 g/m*3 15.9 C 0 km/h
1645 29-08-2010 17:20:02 15.6 C 7.98 g/m*3 15.6 C 0 km/h
1646 29-08-2010 17:32:02 15.2 C 8.18 g/m*3 15.2 C 0 km/h
1647 29-08-2010 17:44:02 14.1 C 8.74 g/m*3 14.1 C 0 km/h
1648 29-08-2010 17:56:02 14 C 8.68 g/m*3 14 C 0 km/h
1649 29-08-2010 18:08:02 13.8 C 8.94 g/m*3 13.8 C 0 km/h
1650 29-08-2010 18:20:01 13.4 C 9.3 g/m*3 13.4 C 0 km/h
Sensor: Nr:Datum:Temp:Abs-Feuchte:Windchill:Wind:
Aussen-T/F 1651 29-08-2010 18:32:01 13.1 C 9.59 g/m*3 13.1 C 0 km/h
1652 29-08-2010 18:44:01 12.7 C 9.46 g/m*3 12.7 C 0 km/h
1653 29-08-2010 18:56:02 12.3 C 9.23 g/m*3 12.3 C 0 km/h
1654 29-08-2010 19:08:02 12.2 C 9.28 g/m*3 12.2 C 0 km/h
1655 29-08-2010 19:20:01 12.2 C 9.39 g/m*3 12.2 C 0 km/h
1656 29-08-2010 19:32:02 12 C 9.38 g/m*3 12 C 0 km/h
1657 29-08-2010 19:44:02 11.8 C 9.26 g/m*3 11.8 C 0 km/h
1658 29-08-2010 19:56:02 11.8 C 9.16 g/m*3 11.8 C 0 km/h
1659 29-08-2010 20:08:02 11.8 C 8.95 g/m*3 11.8 C 0 km/h
1660 29-08-2010 20:20:03 11.8 C 8.95 g/m*3 11.8 C 0 km/h
1661 29-08-2010 20:32:02 11.7 C 8.89 g/m*3 11.7 C 0 km/h
1662 29-08-2010 20:44:02 11.7 C 8.99 g/m*3 11.7 C 0 km/h
1663 29-08-2010 20:56:01 11.9 C 9 g/m*3 11.9 C 0 km/h
1664 29-08-2010 21:08:01 12 C 8.95 g/m*3 12 C 0 km/h
1665 29-08-2010 21:20:02 12.2 C 8.96 g/m*3 12.2 C 0 km/h
1666 29-08-2010 21:32:01 12.3 C 9.01 g/m*3 12.3 C 0 km/h
1667 29-08-2010 21:44:01 12 C 8.95 g/m*3 12 C 0 km/h
1668 29-08-2010 21:56:02 9.7 C 7.74 g/m*3 9.7 C 0 km/h
1669 29-08-2010 22:09:03 9.3 C 7.82 g/m*3 9.3 C 0 km/h
1670 29-08-2010 22:21:03 9.2 C 7.95 g/m*3 9.2 C 0 km/h
1671 29-08-2010 22:33:03 9.2 C 8.04 g/m*3 9.2 C 0 km/h
1672 29-08-2010 22:45:03 9.2 C 8.13 g/m*3 9.2 C 0 km/h
1673 29-08-2010 22:57:03 9.1 C 8.16 g/m*3 9.1 C 0 km/h
1674 29-08-2010 23:09:03 9 C 8.11 g/m*3 9 C 0 km/h
1675 29-08-2010 23:21:03 9 C 8.11 g/m*3 9 C 0 km/h
Sensor: Nr:Datum:Temp:Abs-Feuchte:Windchill:Wind:
Aussen-T/F 1676 29-08-2010 23:33:03 9 C 8.11 g/m*3 9 C 0 km/h
1677 29-08-2010 23:45:03 9.3 C 8.27 g/m*3 9.3 C 0 km/h
1678 29-08-2010 23:57:03 9.3 C 8.18 g/m*3 9.3 C 0 km/h
1679 30-08-2010 00:09:03 9.1 C 7.99 g/m*3 9.1 C 0 km/h
1680 30-08-2010 00:21:03 9.1 C 7.99 g/m*3 9.1 C 0 km/h
1681 30-08-2010 00:33:03 9.1 C 7.99 g/m*3 9.1 C 0 km/h
1682 30-08-2010 00:45:03 9.2 C 7.95 g/m*3 9.2 C 0 km/h
1683 30-08-2010 00:57:03 9.5 C 8.01 g/m*3 9.5 C 0 km/h
1684 30-08-2010 01:09:03 9.7 C 7.93 g/m*3 9.7 C 0 km/h
1685 30-08-2010 01:21:03 9.8 C 7.89 g/m*3 9.8 C 0 km/h
1686 30-08-2010 01:33:03 10 C 7.8 g/m*3 10 C 0 km/h
1687 30-08-2010 01:45:04 10 C 7.8 g/m*3 10 C 0 km/h
1688 30-08-2010 01:57:04 10.2 C 7.8 g/m*3 10.2 C 0 km/h
1689 30-08-2010 02:09:04 10.1 C 7.75 g/m*3 10.1 C 0 km/h
1690 30-08-2010 02:21:04 10.2 C 7.8 g/m*3 10.2 C 0 km/h
1691 30-08-2010 02:33:04 10.5 C 7.86 g/m*3 10.5 C 0 km/h
1692 30-08-2010 02:45:04 10.8 C 7.81 g/m*3 10.8 C 0 km/h
1693 30-08-2010 02:57:04 11 C 7.61 g/m*3 11 C 0 km/h
1694 30-08-2010 03:09:04 11.1 C 7.45 g/m*3 11.1 C 0 km/h
1695 30-08-2010 03:21:04 11.2 C 7.5 g/m*3 11.2 C 0 km/h
1696 30-08-2010 03:33:04 11 C 7.61 g/m*3 11 C 0 km/h
1697 30-08-2010 03:45:04 10.5 C 7.76 g/m*3 10.5 C 0 km/h
1698 30-08-2010 03:57:04 10.3 C 7.95 g/m*3 10.3 C 0 km/h
1699 30-08-2010 04:09:04 10.3 C 8.04 g/m*3 10.3 C 0 km/h
1700 30-08-2010 04:21:04 10.3 C 8.04 g/m*3 10.3 C 0 km/h
Sensor: Nr:Datum:Temp:Abs-Feuchte:Windchill:Wind:
Aussen-T/F 1701 30-08-2010 04:33:04 10.3 C 8.04 g/m*3 10.3 C 0 km/h
1702 30-08-2010 04:45:04 10.2 C 7.99 g/m*3 10.2 C 0 km/h
1703 30-08-2010 04:57:04 10.2 C 7.8 g/m*3 10.2 C 0 km/h
1704 30-08-2010 05:09:04 9.8 C 7.7 g/m*3 9.8 C 0 km/h
1705 30-08-2010 05:21:04 9.6 C 7.79 g/m*3 9.6 C 0 km/h
1706 30-08-2010 05:33:04 9.3 C 7.91 g/m*3 9.3 C 0 km/h
1707 30-08-2010 05:45:05 9.6 C 8.24 g/m*3 9.6 C 0 km/h
1708 30-08-2010 05:57:05 9.8 C 8.44 g/m*3 9.8 C 0 km/h
1709 30-08-2010 06:09:05 9.9 C 8.5 g/m*3 9.9 C 0 km/h
1710 30-08-2010 06:21:05 10 C 8.46 g/m*3 10 C 0 km/h
1711 30-08-2010 06:33:05 10.1 C 8.51 g/m*3 10.1 C 0 km/h
1712 30-08-2010 06:45:05 10.1 C 8.42 g/m*3 10.1 C 0 km/h
1713 30-08-2010 06:57:05 10.2 C 8.47 g/m*3 10.2 C 0 km/h
1714 30-08-2010 07:09:05 10.1 C 8.42 g/m*3 10.1 C 0 km/h
1715 30-08-2010 07:21:05 9.9 C 8.4 g/m*3 9.9 C 0 km/h
1716 30-08-2010 07:33:05 9.8 C 8.35 g/m*3 9.8 C 0 km/h
1717 30-08-2010 07:45:05 9.9 C 8.4 g/m*3 9.9 C 0 km/h
1718 30-08-2010 07:57:05 10.1 C 8.42 g/m*3 10.1 C 0 km/h
1719 30-08-2010 08:09:05 10.1 C 8.42 g/m*3 10.1 C 0 km/h
1720 30-08-2010 08:21:02 10.7 C 8.74 g/m*3 10.7 C 0 km/h
1721 30-08-2010 08:33:02 11 C 8.71 g/m*3 11 C 0 km/h
1722 30-08-2010 08:45:01 11.2 C 8.72 g/m*3 11.2 C 0 km/h
1723 30-08-2010 08:57:01 11.1 C 8.56 g/m*3 11.1 C 0 km/h
1724 30-08-2010 09:09:01 11.2 C 8.62 g/m*3 11.2 C 0 km/h
1725 30-08-2010 09:21:01 10.8 C 8.4 g/m*3 10.8 C 0 km/h
Sensor: Nr:Datum:Temp:Abs-Feuchte:Windchill:Wind:
Aussen-T/F 1726 30-08-2010 09:33:01 10.8 C 8.6 g/m*3 10.8 C 0 km/h
1727 30-08-2010 09:45:01 11 C 8.71 g/m*3 11 C 0 km/h
1728 30-08-2010 09:57:01 11.1 C 8.86 g/m*3 11.1 C 0 km/h
1729 30-08-2010 10:09:01 11 C 8.61 g/m*3 11 C 0 km/h
1730 30-08-2010 10:21:02 11.5 C 8.88 g/m*3 11.5 C 0 km/h
1731 30-08-2010 10:33:01 11.9 C 8.9 g/m*3 11.9 C 0 km/h
1732 30-08-2010 10:45:02 12.4 C 8.96 g/m*3 12.4 C 0 km/h
1733 30-08-2010 10:57:02 12.5 C 8.8 g/m*3 12.5 C 0 km/h
1734 30-08-2010 11:09:03 12.6 C 8.96 g/m*3 12.6 C 0 km/h
1735 30-08-2010 11:21:02 12.7 C 8.13 g/m*3 12.7 C 0 km/h
1736 30-08-2010 11:33:02 13.1 C 8.1 g/m*3 13.1 C 0 km/h
1737 30-08-2010 11:45:02 13.1 C 8.1 g/m*3 13.1 C 0 km/h
1738 30-08-2010 11:57:02 13.5 C 8.3 g/m*3 13.5 C 0 km/h
1739 30-08-2010 12:09:01 13.8 C 8.22 g/m*3 13.8 C 0 km/h
1740 30-08-2010 12:21:02 13.4 C 7.9 g/m*3 13.4 C 0 km/h
1741 30-08-2010 12:33:01 13.8 C 8.22 g/m*3 13.8 C 0 km/h
1742 30-08-2010 12:45:02 14.5 C 6.96 g/m*3 14.5 C 0 km/h
1743 30-08-2010 12:57:02 14.6 C 6.76 g/m*3 14.6 C 0 km/h
1744 30-08-2010 13:09:01 15.5 C 6.74 g/m*3 15.5 C 0 km/h
1745 30-08-2010 13:21:01 16 C 6.81 g/m*3 16 C 0 km/h
1746 30-08-2010 13:33:01 16.3 C 6.52 g/m*3 16.3 C 0 km/h
1747 30-08-2010 13:45:02 16.2 C 6.76 g/m*3 16.2 C 0 km/h
1748 30-08-2010 13:57:02 16.2 C 7.03 g/m*3 16.2 C 0 km/h
1749 30-08-2010 14:09:01 15.7 C 7.36 g/m*3 15.7 C 0 km/h
1750 30-08-2010 14:21:02 15.6 C 7.85 g/m*3 15.6 C 0 km/h
Sensor: Nr:Datum:Temp:Abs-Feuchte:Windchill:Wind:
Aussen-T/F 1751 30-08-2010 14:33:02 16.6 C 7.91 g/m*3 16.6 C 0 km/h
1752 30-08-2010 14:45:02 16.7 C 7.67 g/m*3 16.7 C 0 km/h
1753 30-08-2010 14:57:02 16.8 C 7.86 g/m*3 16.8 C 0 km/h
1754 30-08-2010 15:09:03 17.3 C 8.25 g/m*3 17.3 C 0 km/h
1755 30-08-2010 15:21:02 17.7 C 7.85 g/m*3 17.7 C 0 km/h
1756 30-08-2010 15:33:02 17.3 C 7.66 g/m*3 17.3 C 0 km/h
1757 30-08-2010 15:45:01 17.7 C 7.54 g/m*3 17.7 C 0 km/h
1758 30-08-2010 15:57:01 17.4 C 7.71 g/m*3 17.4 C 0 km/h
1759 30-08-2010 16:09:02 16.9 C 7.77 g/m*3 16.9 C 0 km/h
1760 30-08-2010 16:21:01 15.8 C 8.88 g/m*3 15.8 C 0 km/h
1761 30-08-2010 16:33:02 14.8 C 9.37 g/m*3 14.8 C 0 km/h
1762 30-08-2010 16:45:02 15.5 C 9.78 g/m*3 15.5 C 0 km/h
1763 30-08-2010 16:57:02 16.3 C 9.85 g/m*3 16.3 C 0 km/h
1764 30-08-2010 17:09:02 15.8 C 9.42 g/m*3 15.8 C 0 km/h
1765 30-08-2010 17:21:01 15 C 9.49 g/m*3 15 C 0 km/h
1766 30-08-2010 17:33:02 14.8 C 9.5 g/m*3 14.8 C 0 km/h
1767 30-08-2010 17:45:01 14.7 C 8.81 g/m*3 14.7 C 0 km/h
1768 30-08-2010 17:57:01 14.9 C 8.92 g/m*3 14.9 C 0 km/h
1769 30-08-2010 18:09:02 14.7 C 8.69 g/m*3 14.7 C 0 km/h
1770 30-08-2010 18:21:01 14.6 C 8.76 g/m*3 14.6 C 0 km/h
1771 30-08-2010 18:33:02 14.3 C 8.6 g/m*3 14.3 C 0 km/h
1772 30-08-2010 18:45:01 14.1 C 8.74 g/m*3 14.1 C 0 km/h
1773 30-08-2010 18:57:01 13.9 C 8.99 g/m*3 13.9 C 0 km/h
1774 30-08-2010 19:09:02 13.9 C 8.99 g/m*3 13.9 C 0 km/h
1775 30-08-2010 19:21:02 13.9 C 9.23 g/m*3 13.9 C 0 km/h
Sensor: Nr:Datum:Temp:Abs-Feuchte:Windchill:Wind:
Aussen-T/F 1776 30-08-2010 19:33:01 14.1 C 9.22 g/m*3 14.1 C 0 km/h
1777 30-08-2010 19:45:02 14.2 C 8.91 g/m*3 14.2 C 0 km/h
1778 30-08-2010 19:57:02 14.1 C 8.5 g/m*3 14.1 C 0 km/h
1779 30-08-2010 20:09:01 13.9 C 8.51 g/m*3 13.9 C 0 km/h
1780 30-08-2010 20:21:02 13.9 C 8.51 g/m*3 13.9 C 0 km/h
1781 30-08-2010 20:33:01 14 C 8.56 g/m*3 14 C 0 km/h
1782 30-08-2010 20:45:02 13.8 C 8.94 g/m*3 13.8 C 0 km/h
1783 30-08-2010 20:57:02 13.2 C 9.07 g/m*3 13.2 C 0 km/h
1784 30-08-2010 21:09:02 13.1 C 9.36 g/m*3 13.1 C 0 km/h
1785 30-08-2010 21:21:01 12.9 C 9.58 g/m*3 12.9 C 0 km/h
1786 30-08-2010 21:33:01 12.7 C 9.68 g/m*3 12.7 C 0 km/h
1787 30-08-2010 21:45:02 12.4 C 9.51 g/m*3 12.4 C 0 km/h
1788 30-08-2010 21:57:02 12.5 C 9.68 g/m*3 12.5 C 0 km/h
1789 30-08-2010 22:09:02 12.8 C 9.97 g/m*3 12.8 C 0 km/h
1790 30-08-2010 22:21:02 12.8 C 9.97 g/m*3 12.8 C 0 km/h
1791 30-08-2010 22:33:02 12.7 C 9.91 g/m*3 12.7 C 0 km/h
1792 30-08-2010 22:45:02 12.7 C 9.91 g/m*3 12.7 C 0 km/h
1793 30-08-2010 22:57:02 12.6 C 9.85 g/m*3 12.6 C 0 km/h
1794 30-08-2010 23:10:03 12.4 C 9.72 g/m*3 12.4 C 0 km/h
1795 30-08-2010 23:22:03 12.4 C 9.72 g/m*3 12.4 C 0 km/h
1796 30-08-2010 23:34:03 12.4 C 9.83 g/m*3 12.4 C 0 km/h
1797 30-08-2010 23:46:03 12.2 C 9.6 g/m*3 12.2 C 0 km/h
1798 30-08-2010 23:58:03 12.1 C 9.54 g/m*3 12.1 C 0 km/h
1799 31-08-2010 00:10:03 12 C 9.48 g/m*3 12 C 0 km/h
1800 31-08-2010 00:22:03 12.1 C 9.54 g/m*3 12.1 C 0 km/h
Sensor: Nr:Datum:Temp:Abs-Feuchte:Windchill:Wind:
Aussen-T/F 1801 31-08-2010 00:34:03 12.2 C 9.6 g/m*3 12.2 C 0 km/h
1802 31-08-2010 00:46:03 12.4 C 9.72 g/m*3 12.4 C 0 km/h
1803 31-08-2010 00:58:03 12.4 C 9.72 g/m*3 12.4 C 0 km/h
1804 31-08-2010 01:10:03 12.5 C 9.68 g/m*3 12.5 C 0 km/h
1805 31-08-2010 01:22:03 12.6 C 9.62 g/m*3 12.6 C 0 km/h
1806 31-08-2010 01:34:03 12.5 C 9.46 g/m*3 12.5 C 0 km/h
1807 31-08-2010 01:46:03 12.4 C 9.4 g/m*3 12.4 C 0 km/h
1808 31-08-2010 01:58:03 12.1 C 9.12 g/m*3 12.1 C 0 km/h
1809 31-08-2010 02:10:03 12.2 C 9.28 g/m*3 12.2 C 0 km/h
1810 31-08-2010 02:22:03 12.4 C 9.4 g/m*3 12.4 C 0 km/h
1811 31-08-2010 02:34:03 12.4 C 9.29 g/m*3 12.4 C 0 km/h
1812 31-08-2010 02:46:03 12.4 C 9.29 g/m*3 12.4 C 0 km/h
1813 31-08-2010 02:58:04 12.4 C 9.29 g/m*3 12.4 C 0 km/h
1814 31-08-2010 03:10:04 12.3 C 9.12 g/m*3 12.3 C 0 km/h
1815 31-08-2010 03:22:04 12.3 C 9.12 g/m*3 12.3 C 0 km/h
1816 31-08-2010 03:34:04 12 C 8.95 g/m*3 12 C 0 km/h
1817 31-08-2010 03:46:04 11.9 C 9.11 g/m*3 11.9 C 0 km/h
1818 31-08-2010 03:58:04 12 C 9.06 g/m*3 12 C 0 km/h
1819 31-08-2010 04:10:04 11.5 C 8.88 g/m*3 11.5 C 0 km/h
1820 31-08-2010 04:22:04 11.3 C 8.87 g/m*3 11.3 C 0 km/h
1821 31-08-2010 04:34:04 11.4 C 9.03 g/m*3 11.4 C 0 km/h
1822 31-08-2010 04:46:04 11.6 C 9.15 g/m*3 11.6 C 0 km/h
1823 31-08-2010 04:58:04 11.8 C 9.37 g/m*3 11.8 C 0 km/h
1824 31-08-2010 05:10:04 11.8 C 9.26 g/m*3 11.8 C 0 km/h
1825 31-08-2010 05:22:04 11.5 C 9.09 g/m*3 11.5 C 0 km/h
Sensor: Nr:Datum:Temp:Abs-Feuchte:Windchill:Wind:
Aussen-T/F 1826 31-08-2010 05:34:04 11.2 C 8.92 g/m*3 11.2 C 0 km/h
1827 31-08-2010 05:46:04 11.1 C 8.86 g/m*3 11.1 C 0 km/h
1828 31-08-2010 05:58:04 11.3 C 9.08 g/m*3 11.3 C 0 km/h
1829 31-08-2010 06:10:04 11.4 C 9.14 g/m*3 11.4 C 0 km/h
1830 31-08-2010 06:22:04 11.5 C 9.19 g/m*3 11.5 C 0 km/h
1831 31-08-2010 06:34:04 11.7 C 9.31 g/m*3 11.7 C 0 km/h
1832 31-08-2010 06:46:02 11.9 C 9.32 g/m*3 11.9 C 0 km/h
1833 31-08-2010 06:58:02 12 C 9.17 g/m*3 12 C 0 km/h
1834 31-08-2010 07:10:02 12.1 C 9.12 g/m*3 12.1 C 0 km/h
1835 31-08-2010 07:22:03 12.1 C 9.12 g/m*3 12.1 C 0 km/h
1836 31-08-2010 07:34:02 12.2 C 9.06 g/m*3 12.2 C 0 km/h
1837 31-08-2010 07:46:02 12.2 C 9.06 g/m*3 12.2 C 0 km/h
1838 31-08-2010 07:58:02 12.4 C 9.07 g/m*3 12.4 C 0 km/h
1839 31-08-2010 08:10:02 12.5 C 9.02 g/m*3 12.5 C 0 km/h
1840 31-08-2010 08:22:02 12.5 C 9.02 g/m*3 12.5 C 0 km/h
1841 31-08-2010 08:34:02 12.6 C 9.07 g/m*3 12.6 C 0 km/h
1842 31-08-2010 08:46:02 12.7 C 9.13 g/m*3 12.7 C 0 km/h
1843 31-08-2010 08:58:02 12.9 C 9.13 g/m*3 12.9 C 0 km/h
1844 31-08-2010 09:10:02 13.2 C 9.07 g/m*3 13.2 C 0 km/h
1845 31-08-2010 09:22:02 13.4 C 8.95 g/m*3 13.4 C 0 km/h
1846 31-08-2010 09:34:02 13.6 C 8.94 g/m*3 13.6 C 0 km/h
1847 31-08-2010 09:46:02 13.7 C 8.76 g/m*3 13.7 C 0 km/h
1848 31-08-2010 09:58:02 14 C 8.56 g/m*3 14 C 0 km/h
1849 31-08-2010 10:10:02 14.1 C 8.5 g/m*3 14.1 C 0 km/h
1850 31-08-2010 10:22:03 14 C 8.2 g/m*3 14 C 0 km/h
Sensor: Nr:Datum:Temp:Abs-Feuchte:Windchill:Wind:
Aussen-T/F 1851 31-08-2010 10:34:02 14 C 8.32 g/m*3 14 C 0 km/h
1852 31-08-2010 10:46:03 14.2 C 8.3 g/m*3 14.2 C 0 km/h
1853 31-08-2010 10:58:03 14.4 C 8.41 g/m*3 14.4 C 0 km/h
1854 31-08-2010 11:10:02 14.8 C 8.23 g/m*3 14.8 C 0 km/h
1855 31-08-2010 11:22:02 15.1 C 8.13 g/m*3 15.1 C 0 km/h
1856 31-08-2010 11:34:02 15.6 C 8.11 g/m*3 15.6 C 0 km/h
1857 31-08-2010 11:46:02 16.1 C 8.09 g/m*3 16.1 C 0 km/h
1858 31-08-2010 11:58:02 16.4 C 7.82 g/m*3 16.4 C 0 km/h
1859 31-08-2010 12:10:02 16.8 C 7.86 g/m*3 16.8 C 0 km/h
1860 31-08-2010 12:22:02 16.3 C 7.91 g/m*3 16.3 C 0 km/h
1861 31-08-2010 12:34:01 16.9 C 8.2 g/m*3 16.9 C 0 km/h
1862 31-08-2010 12:46:02 16.7 C 7.82 g/m*3 16.7 C 0 km/h
1863 31-08-2010 12:58:03 17.7 C 7.85 g/m*3 17.7 C 0 km/h
1864 31-08-2010 13:10:01 17.3 C 7.37 g/m*3 17.3 C 0 km/h
1865 31-08-2010 13:22:01 17.5 C 6.86 g/m*3 17.5 C 0 km/h
1866 31-08-2010 13:34:02 18.2 C 6.84 g/m*3 18.2 C 0 km/h
1867 31-08-2010 13:46:02 18.3 C 7.04 g/m*3 18.3 C 0 km/h
1868 31-08-2010 13:58:02 18.5 C 6.8 g/m*3 18.5 C 0 km/h
1869 31-08-2010 14:10:02 19.2 C 6.76 g/m*3 19.2 C 0 km/h
1870 31-08-2010 14:22:02 19.9 C 6.7 g/m*3 19.9 C 0 km/h
1871 31-08-2010 14:34:02 20.3 C 6.51 g/m*3 20.3 C 0 km/h
1872 31-08-2010 14:46:02 20.8 C 6.34 g/m*3 20.8 C 0 km/h
1873 31-08-2010 14:58:02 20.6 C 5.91 g/m*3 20.6 C 0 km/h
1874 31-08-2010 15:10:02 20.4 C 6.19 g/m*3 20.4 C 0 km/h
1875 31-08-2010 15:22:02 20.1 C 6.26 g/m*3 20.1 C 0 km/h
Sensor: Nr:Datum:Temp:Abs-Feuchte:Windchill:Wind:
Aussen-T/F 1876 31-08-2010 15:34:02 21.4 C 5.62 g/m*3 21.4 C 0 km/h
1877 31-08-2010 15:46:02 22 C 5.43 g/m*3 22 C 0 km/h
1878 31-08-2010 15:58:02 22.1 C 5.66 g/m*3 22.1 C 0 km/h
1879 31-08-2010 16:10:02 21.4 C 5.81 g/m*3 21.4 C 0 km/h
1880 31-08-2010 16:22:02 21.1 C 5.9 g/m*3 21.1 C 0 km/h
1881 31-08-2010 16:34:02 22.6 C 5.42 g/m*3 22.6 C 0 km/h
1882 31-08-2010 16:46:02 21.3 C 5.59 g/m*3 21.3 C 0 km/h
1883 31-08-2010 16:58:02 20.9 C 5.46 g/m*3 20.9 C 0 km/h
1884 31-08-2010 17:10:02 22.8 C 5.08 g/m*3 22.8 C 0 km/h
1885 31-08-2010 17:22:03 20.9 C 5.83 g/m*3 20.9 C 0 km/h
1886 31-08-2010 17:34:02 21.8 C 5.56 g/m*3 21.8 C 0 km/h
1887 31-08-2010 17:46:02 21.6 C 5.69 g/m*3 21.6 C 0 km/h
1888 31-08-2010 17:58:02 22 C 5.63 g/m*3 22 C 0 km/h
1889 31-08-2010 18:10:02 22.7 C 5.66 g/m*3 22.7 C 0 km/h
1890 31-08-2010 18:22:02 22.3 C 5.33 g/m*3 22.3 C 0 km/h
1891 31-08-2010 18:34:02 22.1 C 5.47 g/m*3 22.1 C 0 km/h
1892 31-08-2010 18:46:02 22.1 C 5.86 g/m*3 22.1 C 0 km/h
1893 31-08-2010 18:58:02 22.1 C 6.05 g/m*3 22.1 C 0 km/h
1894 31-08-2010 19:10:01 21.7 C 6.1 g/m*3 21.7 C 0 km/h
1895 31-08-2010 19:22:02 20.5 C 5.69 g/m*3 20.5 C 0 km/h
1896 31-08-2010 19:34:02 20.4 C 6.55 g/m*3 20.4 C 0 km/h
1897 31-08-2010 19:46:02 20 C 6.91 g/m*3 20 C 0 km/h
1898 31-08-2010 19:58:03 19 C 7.33 g/m*3 19 C 0 km/h
1899 31-08-2010 20:10:01 17.9 C 7.18 g/m*3 17.9 C 0 km/h
1900 31-08-2010 20:22:01 16.9 C 7.19 g/m*3 16.9 C 0 km/h
Sensor: Nr:Datum:Temp:Abs-Feuchte:Windchill:Wind:
Aussen-T/F 1901 31-08-2010 20:34:02 16.2 C 7.17 g/m*3 16.2 C 0 km/h
1902 31-08-2010 20:46:02 15.7 C 7.09 g/m*3 15.7 C 0 km/h
1903 31-08-2010 20:58:02 15.2 C 7.14 g/m*3 15.2 C 0 km/h
1904 31-08-2010 21:10:02 14.9 C 7.39 g/m*3 14.9 C 0 km/h
1905 31-08-2010 21:22:02 14.7 C 7.43 g/m*3 14.7 C 0 km/h
1906 31-08-2010 21:34:02 14.5 C 7.59 g/m*3 14.5 C 0 km/h
1907 31-08-2010 21:47:09 14.2 C 7.69 g/m*3 14.2 C 0 km/h
1908 31-08-2010 21:59:09 13.9 C 7.91 g/m*3 13.9 C 0 km/h
1909 31-08-2010 22:11:09 13.8 C 8.22 g/m*3 13.8 C 0 km/h
1910 31-08-2010 22:23:09 13.5 C 8.07 g/m*3 13.5 C 0 km/h
1911 31-08-2010 22:35:09 13.2 C 8.04 g/m*3 13.2 C 0 km/h
1912 31-08-2010 22:47:09 13 C 8.05 g/m*3 13 C 0 km/h
1913 31-08-2010 22:59:09 12.7 C 8.13 g/m*3 12.7 C 0 km/h
1914 31-08-2010 23:11:09 12.5 C 8.14 g/m*3 12.5 C 0 km/h
1915 31-08-2010 23:23:09 12.4 C 8.19 g/m*3 12.4 C 0 km/h
1916 31-08-2010 23:35:09 12.4 C 8.09 g/m*3 12.4 C 0 km/h
1917 31-08-2010 23:47:09 12.2 C 7.99 g/m*3 12.2 C 0 km/h
1918 31-08-2010 23:59:09 12.1 C 8.04 g/m*3 12.1 C 0 km/h
1919 01-09-2010 00:11:09 12 C 8.1 g/m*3 12 C 0 km/h
1920 01-09-2010 00:23:09 11.8 C 8.1 g/m*3 11.8 C 0 km/h
1921 01-09-2010 00:35:09 11.6 C 8.11 g/m*3 11.6 C 0 km/h
1922 01-09-2010 00:47:10 11.3 C 8.06 g/m*3 11.3 C 0 km/h
1923 01-09-2010 00:59:10 11.2 C 8.01 g/m*3 11.2 C 0 km/h
1924 01-09-2010 01:11:10 11.2 C 8.11 g/m*3 11.2 C 0 km/h
1925 01-09-2010 01:23:10 11.1 C 8.06 g/m*3 11.1 C 0 km/h
Sensor: Nr:Datum:Temp:Abs-Feuchte:Windchill:Wind:
Aussen-T/F 1926 01-09-2010 01:35:10 11 C 8.11 g/m*3 11 C 0 km/h
1927 01-09-2010 01:47:10 10.9 C 8.16 g/m*3 10.9 C 0 km/h
1928 01-09-2010 01:59:10 10.7 C 8.05 g/m*3 10.7 C 0 km/h
1929 01-09-2010 02:11:10 10.6 C 8 g/m*3 10.6 C 0 km/h
1930 01-09-2010 02:23:10 10.5 C 7.95 g/m*3 10.5 C 0 km/h
1931 01-09-2010 02:35:10 10.4 C 8 g/m*3 10.4 C 0 km/h
1932 01-09-2010 02:47:10 10.2 C 7.9 g/m*3 10.2 C 0 km/h
1933 01-09-2010 02:59:10 10.1 C 7.94 g/m*3 10.1 C 0 km/h
1934 01-09-2010 03:11:10 10 C 7.89 g/m*3 10 C 0 km/h
1935 01-09-2010 03:23:10 9.9 C 8.03 g/m*3 9.9 C 0 km/h
1936 01-09-2010 03:35:10 9.8 C 8.07 g/m*3 9.8 C 0 km/h
1937 01-09-2010 03:47:10 9.6 C 7.97 g/m*3 9.6 C 0 km/h
1938 01-09-2010 03:59:10 9.4 C 7.87 g/m*3 9.4 C 0 km/h
1939 01-09-2010 04:11:10 9.3 C 7.91 g/m*3 9.3 C 0 km/h
1940 01-09-2010 04:23:10 9.2 C 7.86 g/m*3 9.2 C 0 km/h
1941 01-09-2010 04:35:10 9.1 C 7.81 g/m*3 9.1 C 0 km/h
1942 01-09-2010 04:47:10 9.1 C 7.9 g/m*3 9.1 C 0 km/h
1943 01-09-2010 04:59:11 9 C 7.85 g/m*3 9 C 0 km/h
1944 01-09-2010 05:11:11 8.9 C 7.88 g/m*3 8.9 C 0 km/h
1945 01-09-2010 05:23:11 8.9 C 7.97 g/m*3 8.9 C 0 km/h
1946 01-09-2010 05:35:11 8.9 C 7.97 g/m*3 8.9 C 0 km/h
1947 01-09-2010 05:47:11 8.9 C 7.97 g/m*3 8.9 C 0 km/h
1948 01-09-2010 05:59:11 9 C 7.93 g/m*3 9 C 0 km/h
1949 01-09-2010 06:11:11 9 C 8.02 g/m*3 9 C 0 km/h
1950 01-09-2010 06:23:11 8.9 C 8.06 g/m*3 8.9 C 0 km/h
Sensor: Nr:Datum:Temp:Abs-Feuchte:Windchill:Wind:
Aussen-T/F 1951 01-09-2010 06:35:11 8.9 C 8.06 g/m*3 8.9 C 0 km/h
1952 01-09-2010 06:47:11 9 C 8.02 g/m*3 9 C 0 km/h
1953 01-09-2010 06:59:11 8.9 C 8.06 g/m*3 8.9 C 0 km/h
1954 01-09-2010 07:11:03 9.1 C 8.07 g/m*3 9.1 C 0 km/h
1955 01-09-2010 07:23:03 9.1 C 7.99 g/m*3 9.1 C 0 km/h
1956 01-09-2010 07:35:02 9 C 7.93 g/m*3 9 C 0 km/h
1957 01-09-2010 07:47:01 8.9 C 7.97 g/m*3 8.9 C 0 km/h
1958 01-09-2010 07:59:01 9 C 7.93 g/m*3 9 C 0 km/h
1959 01-09-2010 08:11:02 9 C 7.93 g/m*3 9 C 0 km/h
1960 01-09-2010 08:23:02 9.1 C 7.99 g/m*3 9.1 C 0 km/h
1961 01-09-2010 08:35:01 9.2 C 8.04 g/m*3 9.2 C 0 km/h
1962 01-09-2010 08:47:02 9.3 C 8.09 g/m*3 9.3 C 0 km/h
1963 01-09-2010 08:59:02 9.7 C 8.2 g/m*3 9.7 C 0 km/h
1964 01-09-2010 09:11:02 9.8 C 8.16 g/m*3 9.8 C 0 km/h
1965 01-09-2010 09:23:02 10 C 8.08 g/m*3 10 C 0 km/h
1966 01-09-2010 09:35:02 10.2 C 8.09 g/m*3 10.2 C 0 km/h
1967 01-09-2010 09:47:02 10.5 C 8.15 g/m*3 10.5 C 0 km/h
1968 01-09-2010 09:59:02 10.6 C 8.2 g/m*3 10.6 C 0 km/h
1969 01-09-2010 10:11:02 11.2 C 8.41 g/m*3 11.2 C 0 km/h
1970 01-09-2010 10:23:01 11.7 C 8.58 g/m*3 11.7 C 0 km/h
1971 01-09-2010 10:35:02 12.2 C 8.52 g/m*3 12.2 C 0 km/h
1972 01-09-2010 10:47:01 12.4 C 8.52 g/m*3 12.4 C 0 km/h
1973 01-09-2010 10:59:01 13 C 8.73 g/m*3 13 C 0 km/h
1974 01-09-2010 11:11:02 13.4 C 8.72 g/m*3 13.4 C 0 km/h
1975 01-09-2010 11:23:02 13.7 C 8.64 g/m*3 13.7 C 0 km/h
Sensor: Nr:Datum:Temp:Abs-Feuchte:Windchill:Wind:
Aussen-T/F 1976 01-09-2010 11:35:02 14.1 C 8.74 g/m*3 14.1 C 0 km/h
1977 01-09-2010 11:47:02 14.7 C 8.94 g/m*3 14.7 C 0 km/h
1978 01-09-2010 11:59:02 15.4 C 8.8 g/m*3 15.4 C 0 km/h
1979 01-09-2010 12:11:02 16 C 8.72 g/m*3 16 C 0 km/h
1980 01-09-2010 12:23:02 16.9 C 8.63 g/m*3 16.9 C 0 km/h
1981 01-09-2010 12:35:01 17.2 C 8.2 g/m*3 17.2 C 0 km/h
1982 01-09-2010 12:47:02 17.8 C 8.5 g/m*3 17.8 C 0 km/h
1983 01-09-2010 12:59:02 18.3 C 8.6 g/m*3 18.3 C 0 km/h
1984 01-09-2010 13:11:01 18.7 C 8.33 g/m*3 18.7 C 0 km/h
1985 01-09-2010 13:23:01 19.2 C 8.08 g/m*3 19.2 C 0 km/h
1986 01-09-2010 13:35:02 19.7 C 7.81 g/m*3 19.7 C 0 km/h
1987 01-09-2010 13:47:02 19.9 C 7.9 g/m*3 19.9 C 0 km/h
1988 01-09-2010 13:59:02 20.1 C 7.65 g/m*3 20.1 C 0 km/h
1989 01-09-2010 14:11:02 20.9 C 7.47 g/m*3 20.9 C 0 km/h
1990 01-09-2010 14:23:02 20.1 C 6.95 g/m*3 20.1 C 0 km/h
1991 01-09-2010 14:35:02 21 C 7.33 g/m*3 21 C 0 km/h
1992 01-09-2010 14:47:02 21.7 C 6.87 g/m*3 21.7 C 0 km/h
1993 01-09-2010 14:59:02 22.2 C 6.48 g/m*3 22.2 C 0 km/h
1994 01-09-2010 15:11:03 22.6 C 6.43 g/m*3 22.6 C 0 km/h
1995 01-09-2010 15:23:02 23.2 C 6.03 g/m*3 23.2 C 0 km/h
1996 01-09-2010 15:35:02 23.5 C 5.71 g/m*3 23.5 C 0 km/h
1997 01-09-2010 15:47:01 24.1 C 5.91 g/m*3 24.1 C 0 km/h
1998 01-09-2010 15:59:01 24.6 C 5.85 g/m*3 24.6 C 0 km/h
1999 01-09-2010 16:11:02 23.5 C 5.5 g/m*3 23.5 C 0 km/h
2000 01-09-2010 16:23:01 24 C 5.87 g/m*3 24 C 0 km/h
Sensor: Nr:Datum:Temp:Abs-Feuchte:Windchill:Wind:
Aussen-T/F 2001 01-09-2010 16:35:01 23.8 C 6.02 g/m*3 23.8 C 0 km/h
2002 01-09-2010 16:47:01 23.8 C 6.45 g/m*3 23.8 C 0 km/h
2003 01-09-2010 16:59:01 23.9 C 6.27 g/m*3 23.9 C 0 km/h
2004 01-09-2010 17:11:02 23.1 C 6.2 g/m*3 23.1 C 0 km/h
2005 01-09-2010 17:23:01 22.7 C 6.47 g/m*3 22.7 C 0 km/h
2006 01-09-2010 17:35:01 22.1 C 6.05 g/m*3 22.1 C 0 km/h
2007 01-09-2010 17:47:01 21.3 C 6.52 g/m*3 21.3 C 0 km/h
2008 01-09-2010 17:59:01 21 C 6.59 g/m*3 21 C 0 km/h
2009 01-09-2010 18:11:01 20.7 C 7.02 g/m*3 20.7 C 0 km/h
2010 01-09-2010 18:23:02 20.3 C 6.86 g/m*3 20.3 C 0 km/h
2011 01-09-2010 18:35:01 21.6 C 7.02 g/m*3 21.6 C 0 km/h
2012 01-09-2010 18:47:02 22.1 C 6.83 g/m*3 22.1 C 0 km/h
2013 01-09-2010 18:59:02 20.8 C 7.06 g/m*3 20.8 C 0 km/h
2014 01-09-2010 19:11:01 20.7 C 7.38 g/m*3 20.7 C 0 km/h
2015 01-09-2010 19:23:02 20.3 C 7.56 g/m*3 20.3 C 0 km/h
2016 01-09-2010 19:35:01 19.6 C 7.77 g/m*3 19.6 C 0 km/h
2017 01-09-2010 19:47:02 19.1 C 8.03 g/m*3 19.1 C 0 km/h
2018 01-09-2010 19:59:02 18.4 C 8.49 g/m*3 18.4 C 0 km/h
2019 01-09-2010 20:11:02 18 C 8.45 g/m*3 18 C 0 km/h
2020 01-09-2010 20:23:02 17.6 C 8.7 g/m*3 17.6 C 0 km/h
2021 01-09-2010 20:35:03 17.3 C 8.84 g/m*3 17.3 C 0 km/h
2022 01-09-2010 20:47:02 17.1 C 8.73 g/m*3 17.1 C 0 km/h
2023 01-09-2010 20:59:02 16.8 C 8.86 g/m*3 16.8 C 0 km/h
2024 01-09-2010 21:11:01 16.6 C 8.9 g/m*3 16.6 C 0 km/h
2025 01-09-2010 21:23:02 16.5 C 8.85 g/m*3 16.5 C 0 km/h
Sensor: Nr:Datum:Temp:Abs-Feuchte:Windchill:Wind:
Aussen-T/F 2026 01-09-2010 21:35:02 16.3 C 8.88 g/m*3 16.3 C 0 km/h
2027 01-09-2010 21:47:02 16 C 8.72 g/m*3 16 C 0 km/h
2028 01-09-2010 21:59:02 15.8 C 8.88 g/m*3 15.8 C 0 km/h
2029 01-09-2010 22:12:03 15.8 C 8.88 g/m*3 15.8 C 0 km/h
2030 01-09-2010 22:24:03 15.6 C 8.78 g/m*3 15.6 C 0 km/h
2031 01-09-2010 22:36:03 15.5 C 8.86 g/m*3 15.5 C 0 km/h
2032 01-09-2010 22:48:03 15.3 C 8.75 g/m*3 15.3 C 0 km/h
2033 01-09-2010 23:00:03 15 C 8.59 g/m*3 15 C 0 km/h
2034 01-09-2010 23:12:03 14.6 C 8.38 g/m*3 14.6 C 0 km/h
2035 01-09-2010 23:24:03 14.1 C 8.13 g/m*3 14.1 C 0 km/h
2036 01-09-2010 23:36:03 13.6 C 8.12 g/m*3 13.6 C 0 km/h
2037 01-09-2010 23:48:03 13.5 C 8.19 g/m*3 13.5 C 0 km/h
2038 02-09-2010 00:00:04 13.3 C 8.2 g/m*3 13.3 C 0 km/h
2039 02-09-2010 00:12:04 13.1 C 8.1 g/m*3 13.1 C 0 km/h
2040 02-09-2010 00:24:04 13 C 8.17 g/m*3 13 C 0 km/h
2041 02-09-2010 00:36:04 12.9 C 8.34 g/m*3 12.9 C 0 km/h
2042 02-09-2010 00:48:04 12.8 C 8.29 g/m*3 12.8 C 0 km/h
2043 02-09-2010 01:00:04 12.6 C 8.3 g/m*3 12.6 C 0 km/h
2044 02-09-2010 01:12:04 12.5 C 8.36 g/m*3 12.5 C 0 km/h
2045 02-09-2010 01:24:04 12.3 C 8.36 g/m*3 12.3 C 0 km/h
2046 02-09-2010 01:36:04 12.1 C 8.26 g/m*3 12.1 C 0 km/h
2047 02-09-2010 01:48:04 12.1 C 8.58 g/m*3 12.1 C 0 km/h
2048 02-09-2010 02:00:04 11.9 C 8.58 g/m*3 11.9 C 0 km/h
2049 02-09-2010 02:12:04 11.7 C 8.58 g/m*3 11.7 C 0 km/h
2050 02-09-2010 02:24:04 11.6 C 8.63 g/m*3 11.6 C 0 km/h
Sensor: Nr:Datum:Temp:Abs-Feuchte:Windchill:Wind:
Aussen-T/F 2051 02-09-2010 02:36:04 11.5 C 8.57 g/m*3 11.5 C 0 km/h
2052 02-09-2010 02:48:04 11.3 C 8.47 g/m*3 11.3 C 0 km/h
2053 02-09-2010 03:00:04 11.2 C 8.41 g/m*3 11.2 C 0 km/h
2054 02-09-2010 03:12:04 11.1 C 8.36 g/m*3 11.1 C 0 km/h
2055 02-09-2010 03:24:04 11 C 8.31 g/m*3 11 C 0 km/h
2056 02-09-2010 03:36:04 10.9 C 8.26 g/m*3 10.9 C 0 km/h
2057 02-09-2010 03:48:04 10.8 C 8.2 g/m*3 10.8 C 0 km/h
2058 02-09-2010 04:00:04 10.7 C 8.25 g/m*3 10.7 C 0 km/h
2059 02-09-2010 04:12:05 10.5 C 8.24 g/m*3 10.5 C 0 km/h
2060 02-09-2010 04:24:05 10.4 C 8.29 g/m*3 10.4 C 0 km/h
2061 02-09-2010 04:36:05 10.3 C 8.33 g/m*3 10.3 C 0 km/h
2062 02-09-2010 04:48:05 10.3 C 8.33 g/m*3 10.3 C 0 km/h
2063 02-09-2010 05:00:05 10.3 C 8.43 g/m*3 10.3 C 0 km/h
2064 02-09-2010 05:12:05 10.3 C 8.43 g/m*3 10.3 C 0 km/h
2065 02-09-2010 05:24:05 10.3 C 8.52 g/m*3 10.3 C 0 km/h
2066 02-09-2010 05:36:05 10.3 C 8.52 g/m*3 10.3 C 0 km/h
2067 02-09-2010 05:48:05 10.4 C 8.58 g/m*3 10.4 C 0 km/h
2068 02-09-2010 06:00:05 10.3 C 8.52 g/m*3 10.3 C 0 km/h
2069 02-09-2010 06:12:05 10.3 C 8.52 g/m*3 10.3 C 0 km/h
2070 02-09-2010 06:24:05 10.3 C 8.62 g/m*3 10.3 C 0 km/h
2071 02-09-2010 06:36:03 10.4 C 8.67 g/m*3 10.4 C 0 km/h
2072 02-09-2010 06:48:01 10.4 C 8.67 g/m*3 10.4 C 0 km/h
2073 02-09-2010 07:00:01 10.4 C 8.67 g/m*3 10.4 C 0 km/h
2074 02-09-2010 07:12:02 10.5 C 8.73 g/m*3 10.5 C 0 km/h
2075 02-09-2010 07:24:01 10.7 C 8.84 g/m*3 10.7 C 0 km/h
Sensor: Nr:Datum:Temp:Abs-Feuchte:Windchill:Wind:
Aussen-T/F 2076 02-09-2010 07:36:01 10.9 C 8.95 g/m*3 10.9 C 0 km/h
2077 02-09-2010 07:48:01 10.9 C 8.85 g/m*3 10.9 C 0 km/h
2078 02-09-2010 08:00:01 11 C 8.81 g/m*3 11 C 0 km/h
2079 02-09-2010 08:12:02 11.3 C 8.98 g/m*3 11.3 C 0 km/h
2080 02-09-2010 08:24:02 11.3 C 8.98 g/m*3 11.3 C 0 km/h
2081 02-09-2010 08:36:01 11.4 C 8.93 g/m*3 11.4 C 0 km/h
2082 02-09-2010 08:48:02 11.7 C 9.1 g/m*3 11.7 C 0 km/h
2083 02-09-2010 09:00:03 11.7 C 8.99 g/m*3 11.7 C 0 km/h
2084 02-09-2010 09:12:02 12 C 8.95 g/m*3 12 C 0 km/h
2085 02-09-2010 09:24:02 12.5 C 9.13 g/m*3 12.5 C 0 km/h
2086 02-09-2010 09:36:02 12.8 C 9.07 g/m*3 12.8 C 0 km/h
2087 02-09-2010 09:48:01 13 C 8.73 g/m*3 13 C 0 km/h
2088 02-09-2010 10:00:01 13.5 C 8.77 g/m*3 13.5 C 0 km/h
2089 02-09-2010 10:12:02 13.9 C 8.75 g/m*3 13.9 C 0 km/h
2090 02-09-2010 10:24:01 14.1 C 8.62 g/m*3 14.1 C 0 km/h
2091 02-09-2010 10:36:01 14.3 C 8.6 g/m*3 14.3 C 0 km/h
2092 02-09-2010 10:48:02 14.3 C 8.48 g/m*3 14.3 C 0 km/h
2093 02-09-2010 11:00:02 14.4 C 8.65 g/m*3 14.4 C 0 km/h
2094 02-09-2010 11:12:02 14.8 C 9.12 g/m*3 14.8 C 0 km/h
2095 02-09-2010 11:24:01 15.3 C 9.14 g/m*3 15.3 C 0 km/h
2096 02-09-2010 11:36:02 16 C 8.99 g/m*3 16 C 0 km/h
2097 02-09-2010 11:48:01 16.8 C 9.15 g/m*3 16.8 C 0 km/h
2098 02-09-2010 12:00:01 17.5 C 9.24 g/m*3 17.5 C 0 km/h
2099 02-09-2010 12:12:02 18.1 C 9.12 g/m*3 18.1 C 0 km/h
2100 02-09-2010 12:24:02 18.5 C 8.86 g/m*3 18.5 C 0 km/h
Sensor: Nr:Datum:Temp:Abs-Feuchte:Windchill:Wind:
Aussen-T/F 2101 02-09-2010 12:36:01 19.2 C 8.41 g/m*3 19.2 C 0 km/h
2102 02-09-2010 12:48:02 20 C 7.95 g/m*3 20 C 0 km/h
2103 02-09-2010 13:00:02 20.2 C 7.34 g/m*3 20.2 C 0 km/h
2104 02-09-2010 13:12:01 20.1 C 7.3 g/m*3 20.1 C 0 km/h
2105 02-09-2010 13:24:01 21 C 7.51 g/m*3 21 C 0 km/h
2106 02-09-2010 13:36:02 21.6 C 7.21 g/m*3 21.6 C 0 km/h
2107 02-09-2010 13:48:02 21.3 C 7.46 g/m*3 21.3 C 0 km/h
2108 02-09-2010 14:00:02 21.7 C 7.63 g/m*3 21.7 C 0 km/h
2109 02-09-2010 14:12:01 22 C 7.38 g/m*3 22 C 0 km/h
2110 02-09-2010 14:24:02 21.7 C 7.06 g/m*3 21.7 C 0 km/h
2111 02-09-2010 14:36:02 22.9 C 6.95 g/m*3 22.9 C 0 km/h
2112 02-09-2010 14:48:02 22.7 C 7.07 g/m*3 22.7 C 0 km/h
2113 02-09-2010 15:00:02 22.6 C 7.03 g/m*3 22.6 C 0 km/h
2114 02-09-2010 15:12:02 21.8 C 6.72 g/m*3 21.8 C 0 km/h
2115 02-09-2010 15:24:02 20.3 C 6.68 g/m*3 20.3 C 0 km/h
2116 02-09-2010 15:36:02 20.9 C 7.1 g/m*3 20.9 C 0 km/h
2117 02-09-2010 15:48:02 21.5 C 6.98 g/m*3 21.5 C 0 km/h
2118 02-09-2010 16:00:02 20.9 C 6.74 g/m*3 20.9 C 0 km/h
2119 02-09-2010 16:12:02 20.2 C 6.82 g/m*3 20.2 C 0 km/h
2120 02-09-2010 16:24:02 20.3 C 7.03 g/m*3 20.3 C 0 km/h
2121 02-09-2010 16:36:02 20.8 C 7.24 g/m*3 20.8 C 0 km/h
2122 02-09-2010 16:48:02 20.8 C 6.7 g/m*3 20.8 C 0 km/h
2123 02-09-2010 17:00:02 20 C 6.91 g/m*3 20 C 0 km/h
2124 02-09-2010 17:12:02 19.3 C 7.13 g/m*3 19.3 C 0 km/h
2125 02-09-2010 17:24:02 19.6 C 7.26 g/m*3 19.6 C 0 km/h
Sensor: Nr:Datum:Temp:Abs-Feuchte:Windchill:Wind:
Aussen-T/F 2126 02-09-2010 17:36:02 19.6 C 7.26 g/m*3 19.6 C 0 km/h
2127 02-09-2010 17:48:02 19.2 C 7.09 g/m*3 19.2 C 0 km/h
2128 02-09-2010 18:00:02 18.9 C 7.13 g/m*3 18.9 C 0 km/h
2129 02-09-2010 18:12:01 18.7 C 7.36 g/m*3 18.7 C 0 km/h
2130 02-09-2010 18:24:02 18.7 C 7.52 g/m*3 18.7 C 0 km/h
2131 02-09-2010 18:36:02 18.6 C 7.48 g/m*3 18.6 C 0 km/h
2132 02-09-2010 18:48:01 18.4 C 7.55 g/m*3 18.4 C 0 km/h
2133 02-09-2010 19:00:01 18.5 C 8.07 g/m*3 18.5 C 0 km/h
2134 02-09-2010 19:12:02 18.3 C 8.6 g/m*3 18.3 C 0 km/h
2135 02-09-2010 19:24:01 17.8 C 8.95 g/m*3 17.8 C 0 km/h
2136 02-09-2010 19:36:02 17.2 C 9.23 g/m*3 17.2 C 0 km/h
2137 02-09-2010 19:48:02 16.4 C 9.63 g/m*3 16.4 C 0 km/h
2138 02-09-2010 20:00:02 15.8 C 9.96 g/m*3 15.8 C 0 km/h
2139 02-09-2010 20:12:02 15.5 C 9.91 g/m*3 15.5 C 0 km/h
2140 02-09-2010 20:24:02 15 C 9.87 g/m*3 15 C 0 km/h
2141 02-09-2010 20:36:02 14.7 C 10.07 g/m*3 14.7 C 0 km/h
2142 02-09-2010 20:48:01 14.7 C 10.2 g/m*3 14.7 C 0 km/h
2143 02-09-2010 21:00:01 14.5 C 10.07 g/m*3 14.5 C 0 km/h
2144 02-09-2010 21:12:02 14.4 C 9.89 g/m*3 14.4 C 0 km/h
2145 02-09-2010 21:24:01 14.5 C 9.95 g/m*3 14.5 C 0 km/h
2146 02-09-2010 21:36:02 14.4 C 9.77 g/m*3 14.4 C 0 km/h
2147 02-09-2010 21:49:02 14.3 C 9.58 g/m*3 14.3 C 0 km/h
2148 02-09-2010 22:01:02 14.4 C 9.52 g/m*3 14.4 C 0 km/h
2149 02-09-2010 22:13:02 14 C 9.29 g/m*3 14 C 0 km/h
2150 02-09-2010 22:25:02 13.7 C 9.24 g/m*3 13.7 C 0 km/h
Sensor: Nr:Datum:Temp:Abs-Feuchte:Windchill:Wind:
Aussen-T/F 2151 02-09-2010 22:37:02 13.6 C 9.3 g/m*3 13.6 C 0 km/h
2152 02-09-2010 22:49:03 13.5 C 9.36 g/m*3 13.5 C 0 km/h
2153 02-09-2010 23:01:03 13 C 9.07 g/m*3 13 C 0 km/h
2154 02-09-2010 23:13:03 13.2 C 9.3 g/m*3 13.2 C 0 km/h
2155 02-09-2010 23:25:03 13.1 C 9.24 g/m*3 13.1 C 0 km/h
2156 02-09-2010 23:37:03 12.9 C 9.24 g/m*3 12.9 C 0 km/h
2157 02-09-2010 23:49:03 12.7 C 9.13 g/m*3 12.7 C 0 km/h
2158 03-09-2010 00:01:03 12.7 C 9.13 g/m*3 12.7 C 0 km/h
2159 03-09-2010 00:13:03 12.5 C 9.13 g/m*3 12.5 C 0 km/h
2160 03-09-2010 00:25:03 12.4 C 9.07 g/m*3 12.4 C 0 km/h
2161 03-09-2010 00:37:03 12.3 C 9.12 g/m*3 12.3 C 0 km/h
2162 03-09-2010 00:49:03 12.2 C 9.06 g/m*3 12.2 C 0 km/h
2163 03-09-2010 01:01:03 12.1 C 9.01 g/m*3 12.1 C 0 km/h
2164 03-09-2010 01:13:03 11.9 C 8.9 g/m*3 11.9 C 0 km/h
2165 03-09-2010 01:25:03 11.9 C 9 g/m*3 11.9 C 0 km/h
2166 03-09-2010 01:37:03 11.7 C 8.89 g/m*3 11.7 C 0 km/h
2167 03-09-2010 01:49:03 11.5 C 8.78 g/m*3 11.5 C 0 km/h
2168 03-09-2010 02:01:03 11.5 C 8.88 g/m*3 11.5 C 0 km/h
2169 03-09-2010 02:13:03 11.4 C 8.83 g/m*3 11.4 C 0 km/h
2170 03-09-2010 02:25:03 11.1 C 8.66 g/m*3 11.1 C 0 km/h
2171 03-09-2010 02:37:03 11.1 C 8.66 g/m*3 11.1 C 0 km/h
2172 03-09-2010 02:49:03 11.1 C 8.76 g/m*3 11.1 C 0 km/h
2173 03-09-2010 03:01:04 11 C 8.71 g/m*3 11 C 0 km/h
2174 03-09-2010 03:13:04 10.8 C 8.7 g/m*3 10.8 C 0 km/h
2175 03-09-2010 03:25:04 10.7 C 8.64 g/m*3 10.7 C 0 km/h
Sensor: Nr:Datum:Temp:Abs-Feuchte:Windchill:Wind:
Aussen-T/F 2176 03-09-2010 03:37:04 10.6 C 8.59 g/m*3 10.6 C 0 km/h
2177 03-09-2010 03:49:04 10.5 C 8.53 g/m*3 10.5 C 0 km/h
2178 03-09-2010 04:01:04 10.4 C 8.58 g/m*3 10.4 C 0 km/h
2179 03-09-2010 04:13:04 10.4 C 8.58 g/m*3 10.4 C 0 km/h
2180 03-09-2010 04:25:04 10.4 C 8.67 g/m*3 10.4 C 0 km/h
2181 03-09-2010 04:37:04 10.3 C 8.62 g/m*3 10.3 C 0 km/h
2182 03-09-2010 04:49:04 10.2 C 8.56 g/m*3 10.2 C 0 km/h
2183 03-09-2010 05:01:04 10.2 C 8.56 g/m*3 10.2 C 0 km/h
2184 03-09-2010 05:13:04 10.3 C 8.62 g/m*3 10.3 C 0 km/h
2185 03-09-2010 05:25:04 10.4 C 8.77 g/m*3 10.4 C 0 km/h
2186 03-09-2010 05:37:04 10.4 C 8.77 g/m*3 10.4 C 0 km/h
2187 03-09-2010 05:49:04 10.7 C 9.04 g/m*3 10.7 C 0 km/h
2188 03-09-2010 06:01:04 10.9 C 9.15 g/m*3 10.9 C 0 km/h
2189 03-09-2010 06:13:04 11 C 9.21 g/m*3 11 C 0 km/h
2190 03-09-2010 06:25:04 11.1 C 9.27 g/m*3 11.1 C 0 km/h
2191 03-09-2010 06:37:04 11.1 C 9.27 g/m*3 11.1 C 0 km/h
2192 03-09-2010 06:49:04 11.3 C 9.28 g/m*3 11.3 C 0 km/h
2193 03-09-2010 07:01:02 11.4 C 9.34 g/m*3 11.4 C 0 km/h
2194 03-09-2010 07:13:02 11.2 C 9.22 g/m*3 11.2 C 0 km/h
2195 03-09-2010 07:25:02 11.2 C 9.22 g/m*3 11.2 C 0 km/h
2196 03-09-2010 07:37:03 11.5 C 9.4 g/m*3 11.5 C 0 km/h
2197 03-09-2010 07:49:02 11.5 C 9.4 g/m*3 11.5 C 0 km/h
2198 03-09-2010 08:01:03 11.6 C 9.46 g/m*3 11.6 C 0 km/h
2199 03-09-2010 08:13:03 11.7 C 9.41 g/m*3 11.7 C 0 km/h
2200 03-09-2010 08:25:02 11.7 C 9.41 g/m*3 11.7 C 0 km/h
Sensor: Nr:Datum:Temp:Abs-Feuchte:Windchill:Wind:
Aussen-T/F 2201 03-09-2010 08:37:03 11.6 C 9.25 g/m*3 11.6 C 0 km/h
2202 03-09-2010 08:49:02 11.6 C 9.15 g/m*3 11.6 C 0 km/h
2203 03-09-2010 09:01:02 12 C 9.27 g/m*3 12 C 0 km/h
2204 03-09-2010 09:13:02 12.1 C 9.22 g/m*3 12.1 C 0 km/h
2205 03-09-2010 09:25:02 12.3 C 9.23 g/m*3 12.3 C 0 km/h
2206 03-09-2010 09:37:02 12.7 C 9.35 g/m*3 12.7 C 0 km/h
2207 03-09-2010 09:49:02 13.1 C 9.36 g/m*3 13.1 C 0 km/h
2208 03-09-2010 10:01:02 12.9 C 9.13 g/m*3 12.9 C 0 km/h
2209 03-09-2010 10:13:02 12.8 C 9.18 g/m*3 12.8 C 0 km/h
2210 03-09-2010 10:25:02 13.5 C 9.36 g/m*3 13.5 C 0 km/h
2211 03-09-2010 10:37:03 14 C 9.05 g/m*3 14 C 0 km/h
2212 03-09-2010 10:49:02 14.7 C 9.32 g/m*3 14.7 C 0 km/h
2213 03-09-2010 11:01:02 15.3 C 9.14 g/m*3 15.3 C 0 km/h
2214 03-09-2010 11:13:02 15.4 C 8.93 g/m*3 15.4 C 0 km/h
2215 03-09-2010 11:25:02 15.8 C 9.02 g/m*3 15.8 C 0 km/h
2216 03-09-2010 11:37:02 16.4 C 8.93 g/m*3 16.4 C 0 km/h
2217 03-09-2010 11:49:02 16.6 C 8.62 g/m*3 16.6 C 0 km/h
2218 03-09-2010 12:01:02 17.4 C 8.45 g/m*3 17.4 C 0 km/h
2219 03-09-2010 12:13:02 17.7 C 8.6 g/m*3 17.7 C 0 km/h
2220 03-09-2010 12:25:02 17.8 C 8.35 g/m*3 17.8 C 0 km/h
2221 03-09-2010 12:37:02 18.1 C 8.34 g/m*3 18.1 C 0 km/h
2222 03-09-2010 12:49:01 18.3 C 8.6 g/m*3 18.3 C 0 km/h
2223 03-09-2010 13:01:01 18.8 C 8.37 g/m*3 18.8 C 0 km/h
2224 03-09-2010 13:13:01 19.4 C 8.18 g/m*3 19.4 C 0 km/h
2225 03-09-2010 13:25:01 20.1 C 8.17 g/m*3 20.1 C 0 km/h
Sensor: Nr:Datum:Temp:Abs-Feuchte:Windchill:Wind:
Aussen-T/F 2226 03-09-2010 13:37:01 19.9 C 7.9 g/m*3 19.9 C 0 km/h
2227 03-09-2010 13:49:01 20.2 C 8.22 g/m*3 20.2 C 0 km/h
2228 03-09-2010 14:01:01 20 C 7.6 g/m*3 20 C 0 km/h
2229 03-09-2010 14:13:01 20.5 C 7.65 g/m*3 20.5 C 0 km/h
2230 03-09-2010 14:25:01 19.7 C 7.64 g/m*3 19.7 C 0 km/h
2231 03-09-2010 14:37:01 20.4 C 7.96 g/m*3 20.4 C 0 km/h
2232 03-09-2010 14:49:01 21.4 C 7.31 g/m*3 21.4 C 0 km/h
2233 03-09-2010 15:01:02 21.8 C 7.1 g/m*3 21.8 C 0 km/h
2234 03-09-2010 15:13:02 22.7 C 7.27 g/m*3 22.7 C 0 km/h
2235 03-09-2010 15:25:01 23.3 C 6.9 g/m*3 23.3 C 0 km/h
2236 03-09-2010 15:37:01 22.7 C 6.87 g/m*3 22.7 C 0 km/h
2237 03-09-2010 15:49:01 23.4 C 6.94 g/m*3 23.4 C 0 km/h
2238 03-09-2010 16:01:01 24.8 C 6.83 g/m*3 24.8 C 0 km/h
2239 03-09-2010 16:13:01 25.5 C 6.63 g/m*3 25.5 C 0 km/h
2240 03-09-2010 16:25:02 25.7 C 6.46 g/m*3 25.7 C 0 km/h
2241 03-09-2010 16:37:01 25.7 C 6.46 g/m*3 25.7 C 0 km/h
2242 03-09-2010 16:49:02 23.9 C 6.49 g/m*3 23.9 C 0 km/h
2243 03-09-2010 17:01:01 25.3 C 6.32 g/m*3 25.3 C 0 km/h
2244 03-09-2010 17:13:01 24.8 C 6.6 g/m*3 24.8 C 0 km/h
2245 03-09-2010 17:25:01 23.9 C 6.49 g/m*3 23.9 C 0 km/h
2246 03-09-2010 17:37:01 23.4 C 6.52 g/m*3 23.4 C 0 km/h
2247 03-09-2010 17:49:02 23.2 C 6.65 g/m*3 23.2 C 0 km/h
2248 03-09-2010 18:01:02 23 C 7.6 g/m*3 23 C 0 km/h
2249 03-09-2010 18:13:02 23.1 C 8.06 g/m*3 23.1 C 0 km/h
2250 03-09-2010 18:25:02 23.2 C 8.11 g/m*3 23.2 C 0 km/h
Sensor: Nr:Datum:Temp:Abs-Feuchte:Windchill:Wind:
Aussen-T/F 2251 03-09-2010 18:37:02 22.5 C 7.99 g/m*3 22.5 C 0 km/h
2252 03-09-2010 18:49:01 21.7 C 8.77 g/m*3 21.7 C 0 km/h
2253 03-09-2010 19:01:02 21.2 C 8.9 g/m*3 21.2 C 0 km/h
2254 03-09-2010 19:13:02 20.6 C 8.95 g/m*3 20.6 C 0 km/h
2255 03-09-2010 19:25:01 20.6 C 8.77 g/m*3 20.6 C 0 km/h
2256 03-09-2010 19:37:02 20.7 C 8.82 g/m*3 20.7 C 0 km/h
2257 03-09-2010 19:49:02 20.4 C 8.85 g/m*3 20.4 C 0 km/h
2258 03-09-2010 20:01:02 19.7 C 8.66 g/m*3 19.7 C 0 km/h
2259 03-09-2010 20:13:02 19.2 C 8.08 g/m*3 19.2 C 0 km/h
2260 03-09-2010 20:25:01 18.3 C 8.6 g/m*3 18.3 C 0 km/h
2261 03-09-2010 20:37:02 18.1 C 7.88 g/m*3 18.1 C 0 km/h
2262 03-09-2010 20:49:02 17.8 C 8.04 g/m*3 17.8 C 0 km/h
2263 03-09-2010 21:01:02 17 C 8.39 g/m*3 17 C 0 km/h
2264 03-09-2010 21:13:02 16.5 C 8.57 g/m*3 16.5 C 0 km/h
2265 03-09-2010 21:25:02 16.2 C 8.55 g/m*3 16.2 C 0 km/h
2266 03-09-2010 21:37:02 16.1 C 8.64 g/m*3 16.1 C 0 km/h
2267 03-09-2010 21:49:01 15.8 C 8.62 g/m*3 15.8 C 0 km/h
2268 03-09-2010 22:01:01 15.6 C 8.78 g/m*3 15.6 C 0 km/h
2269 03-09-2010 22:13:01 15.3 C 8.75 g/m*3 15.3 C 0 km/h
2270 03-09-2010 22:25:02 15.2 C 8.7 g/m*3 15.2 C 0 km/h
2271 03-09-2010 22:37:01 15.2 C 8.96 g/m*3 15.2 C 0 km/h
2272 03-09-2010 22:50:03 15.5 C 9.12 g/m*3 15.5 C 0 km/h
2273 03-09-2010 23:02:03 15.5 C 9.25 g/m*3 15.5 C 0 km/h
2274 03-09-2010 23:14:03 15.4 C 9.2 g/m*3 15.4 C 0 km/h
2275 03-09-2010 23:26:03 15.4 C 9.2 g/m*3 15.4 C 0 km/h
Sensor: Nr:Datum:Temp:Abs-Feuchte:Windchill:Wind:
Aussen-T/F 2276 03-09-2010 23:38:03 15.2 C 9.22 g/m*3 15.2 C 0 km/h
2277 03-09-2010 23:50:03 15.2 C 9.22 g/m*3 15.2 C 0 km/h
2278 04-09-2010 00:02:03 15.2 C 9.22 g/m*3 15.2 C 0 km/h
2279 04-09-2010 00:14:03 15.1 C 9.29 g/m*3 15.1 C 0 km/h
2280 04-09-2010 00:26:03 15.1 C 9.29 g/m*3 15.1 C 0 km/h
2281 04-09-2010 00:38:03 15.1 C 9.29 g/m*3 15.1 C 0 km/h
2282 04-09-2010 00:50:03 15 C 9.36 g/m*3 15 C 0 km/h
2283 04-09-2010 01:02:03 15 C 9.36 g/m*3 15 C 0 km/h
2284 04-09-2010 01:14:03 15 C 9.36 g/m*3 15 C 0 km/h
2285 04-09-2010 01:26:04 14.7 C 9.44 g/m*3 14.7 C 0 km/h
2286 04-09-2010 01:38:04 14.7 C 9.44 g/m*3 14.7 C 0 km/h
2287 04-09-2010 01:50:04 14.7 C 9.44 g/m*3 14.7 C 0 km/h
2288 04-09-2010 02:02:04 14.5 C 9.45 g/m*3 14.5 C 0 km/h
2289 04-09-2010 02:14:04 14.4 C 9.39 g/m*3 14.4 C 0 km/h
2290 04-09-2010 02:26:04 14.2 C 9.4 g/m*3 14.2 C 0 km/h
2291 04-09-2010 02:38:04 14.2 C 9.4 g/m*3 14.2 C 0 km/h
2292 04-09-2010 02:50:04 14.1 C 9.34 g/m*3 14.1 C 0 km/h
2293 04-09-2010 03:02:04 14 C 9.29 g/m*3 14 C 0 km/h
2294 04-09-2010 03:14:04 13.7 C 9.35 g/m*3 13.7 C 0 km/h
2295 04-09-2010 03:26:04 13.7 C 9.35 g/m*3 13.7 C 0 km/h
2296 04-09-2010 03:38:04 13.6 C 9.53 g/m*3 13.6 C 0 km/h
2297 04-09-2010 03:50:04 13.6 C 9.53 g/m*3 13.6 C 0 km/h
2298 04-09-2010 04:02:04 13.4 C 9.42 g/m*3 13.4 C 0 km/h
2299 04-09-2010 04:14:04 13.3 C 9.47 g/m*3 13.3 C 0 km/h
2300 04-09-2010 04:26:04 13.1 C 9.36 g/m*3 13.1 C 0 km/h
Sensor: Nr:Datum:Temp:Abs-Feuchte:Windchill:Wind:
Aussen-T/F 2301 04-09-2010 04:38:04 13.2 C 9.64 g/m*3 13.2 C 0 km/h
2302 04-09-2010 04:50:04 13 C 9.53 g/m*3 13 C 0 km/h
2303 04-09-2010 05:02:04 13.1 C 9.59 g/m*3 13.1 C 0 km/h
2304 04-09-2010 05:14:04 13.2 C 9.64 g/m*3 13.2 C 0 km/h
2305 04-09-2010 05:26:04 13.2 C 9.64 g/m*3 13.2 C 0 km/h
2306 04-09-2010 05:38:05 13.1 C 9.59 g/m*3 13.1 C 0 km/h
2307 04-09-2010 05:50:05 12.9 C 9.47 g/m*3 12.9 C 0 km/h
2308 04-09-2010 06:02:05 12.9 C 9.47 g/m*3 12.9 C 0 km/h
2309 04-09-2010 06:14:05 12.7 C 9.35 g/m*3 12.7 C 0 km/h
2310 04-09-2010 06:26:05 12.5 C 9.24 g/m*3 12.5 C 0 km/h
2311 04-09-2010 06:38:05 12.4 C 9.29 g/m*3 12.4 C 0 km/h
2312 04-09-2010 06:50:05 12.2 C 9.17 g/m*3 12.2 C 0 km/h
2313 04-09-2010 07:02:05 12 C 9.17 g/m*3 12 C 0 km/h
2314 04-09-2010 07:14:05 12 C 9.17 g/m*3 12 C 0 km/h
2315 04-09-2010 07:26:05 12 C 9.17 g/m*3 12 C 0 km/h
2316 04-09-2010 07:38:05 12.2 C 9.39 g/m*3 12.2 C 0 km/h
2317 04-09-2010 07:50:02 12.2 C 9.39 g/m*3 12.2 C 0 km/h
2318 04-09-2010 08:02:02 12.5 C 9.68 g/m*3 12.5 C 0 km/h
2319 04-09-2010 08:14:02 12.7 C 9.8 g/m*3 12.7 C 0 km/h
2320 04-09-2010 08:26:03 12.7 C 9.68 g/m*3 12.7 C 0 km/h
2321 04-09-2010 08:38:02 12.9 C 9.81 g/m*3 12.9 C 0 km/h
2322 04-09-2010 08:50:02 13.2 C 9.87 g/m*3 13.2 C 0 km/h
2323 04-09-2010 09:02:02 13.7 C 10.07 g/m*3 13.7 C 0 km/h
2324 04-09-2010 09:14:02 14.3 C 10.2 g/m*3 14.3 C 0 km/h
2325 04-09-2010 09:26:02 14.6 C 10.01 g/m*3 14.6 C 0 km/h
Sensor: Nr:Datum:Temp:Abs-Feuchte:Windchill:Wind:
Aussen-T/F 2326 04-09-2010 09:38:02 14.7 C 9.82 g/m*3 14.7 C 0 km/h
2327 04-09-2010 09:50:02 14.9 C 9.69 g/m*3 14.9 C 0 km/h
2328 04-09-2010 10:02:02 15.2 C 9.61 g/m*3 15.2 C 0 km/h
2329 04-09-2010 10:14:02 15.6 C 9.58 g/m*3 15.6 C 0 km/h
2330 04-09-2010 10:26:02 15.9 C 9.62 g/m*3 15.9 C 0 km/h
2331 04-09-2010 10:38:02 17 C 9.41 g/m*3 17 C 0 km/h
2332 04-09-2010 10:50:02 17.8 C 9.11 g/m*3 17.8 C 0 km/h
2333 04-09-2010 11:02:02 17.8 C 9.11 g/m*3 17.8 C 0 km/h
2334 04-09-2010 11:14:02 18.1 C 8.96 g/m*3 18.1 C 0 km/h
2335 04-09-2010 11:26:03 18.9 C 8.75 g/m*3 18.9 C 0 km/h
2336 04-09-2010 11:38:02 19.6 C 8.61 g/m*3 19.6 C 0 km/h
2337 04-09-2010 11:50:02 20 C 8.3 g/m*3 20 C 0 km/h
2338 04-09-2010 12:02:02 18.3 C 8.13 g/m*3 18.3 C 0 km/h
2339 04-09-2010 12:14:02 19.7 C 8.49 g/m*3 19.7 C 0 km/h
2340 04-09-2010 12:26:02 19 C 7.33 g/m*3 19 C 0 km/h
2341 04-09-2010 12:38:02 18.5 C 7.59 g/m*3 18.5 C 0 km/h
2342 04-09-2010 12:50:02 18.8 C 7.89 g/m*3 18.8 C 0 km/h
2343 04-09-2010 13:02:02 19.2 C 7.42 g/m*3 19.2 C 0 km/h
2344 04-09-2010 13:14:02 19.9 C 7.9 g/m*3 19.9 C 0 km/h
2345 04-09-2010 13:26:02 19.9 C 7.56 g/m*3 19.9 C 0 km/h
2346 04-09-2010 13:38:01 18.8 C 7.73 g/m*3 18.8 C 0 km/h
2347 04-09-2010 13:50:02 20.1 C 7.47 g/m*3 20.1 C 0 km/h
2348 04-09-2010 14:02:01 21.5 C 6.98 g/m*3 21.5 C 0 km/h
2349 04-09-2010 14:14:01 22 C 6.79 g/m*3 22 C 0 km/h
2350 04-09-2010 14:26:02 22.2 C 6.68 g/m*3 22.2 C 0 km/h
Sensor: Nr:Datum:Temp:Abs-Feuchte:Windchill:Wind:
Aussen-T/F 2351 04-09-2010 14:38:02 22.1 C 6.83 g/m*3 22.1 C 0 km/h
2352 04-09-2010 14:50:02 23.2 C 6.24 g/m*3 23.2 C 0 km/h
2353 04-09-2010 15:02:02 23.4 C 6.1 g/m*3 23.4 C 0 km/h
2354 04-09-2010 15:14:02 24.3 C 6.64 g/m*3 24.3 C 0 km/h
2355 04-09-2010 15:26:02 24.1 C 5.91 g/m*3 24.1 C 0 km/h
2356 04-09-2010 15:38:02 21.8 C 6.14 g/m*3 21.8 C 0 km/h
2357 04-09-2010 15:50:01 20.8 C 6.52 g/m*3 20.8 C 0 km/h
2358 04-09-2010 16:02:02 22.8 C 5.69 g/m*3 22.8 C 0 km/h
2359 04-09-2010 16:14:02 24.7 C 5.21 g/m*3 24.7 C 0 km/h
2360 04-09-2010 16:26:01 22.2 C 5.5 g/m*3 22.2 C 0 km/h
2361 04-09-2010 16:38:01 21.3 C 5.59 g/m*3 21.3 C 0 km/h
2362 04-09-2010 16:50:01 21.1 C 5.53 g/m*3 21.1 C 0 km/h
2363 04-09-2010 17:02:02 22.4 C 5.76 g/m*3 22.4 C 0 km/h
2364 04-09-2010 17:14:02 23.3 C 5.23 g/m*3 23.3 C 0 km/h
2365 04-09-2010 17:26:01 23.5 C 5.08 g/m*3 23.5 C 0 km/h
2366 04-09-2010 17:38:01 22.9 C 4.09 g/m*3 22.9 C 0 km/h
2367 04-09-2010 17:50:01 23.5 C 4.23 g/m*3 23.5 C 0 km/h
2368 04-09-2010 18:02:01 22.9 C 4.29 g/m*3 22.9 C 0 km/h
2369 04-09-2010 18:14:01 23.2 C 4.57 g/m*3 23.2 C 0 km/h
2370 04-09-2010 18:26:02 23.1 C 4.13 g/m*3 23.1 C 0 km/h
2371 04-09-2010 18:38:01 22.9 C 4.29 g/m*3 22.9 C 0 km/h
2372 04-09-2010 18:50:02 21.6 C 4.55 g/m*3 21.6 C 0 km/h
2373 04-09-2010 19:02:01 21.2 C 5.19 g/m*3 21.2 C 0 km/h
2374 04-09-2010 19:14:01 20.7 C 5.04 g/m*3 20.7 C 0 km/h
2375 04-09-2010 19:26:02 19.4 C 5.34 g/m*3 19.4 C 0 km/h
Sensor: Nr:Datum:Temp:Abs-Feuchte:Windchill:Wind:
Aussen-T/F 2376 04-09-2010 19:38:01 19 C 5.7 g/m*3 19 C 0 km/h
2377 04-09-2010 19:50:03 18.4 C 6.29 g/m*3 18.4 C 0 km/h
2378 04-09-2010 20:02:02 17.5 C 6.41 g/m*3 17.5 C 0 km/h
2379 04-09-2010 20:14:02 16.6 C 6.36 g/m*3 16.6 C 0 km/h
2380 04-09-2010 20:26:03 15.9 C 6.5 g/m*3 15.9 C 0 km/h
2381 04-09-2010 20:38:02 15.5 C 6.61 g/m*3 15.5 C 0 km/h
2382 04-09-2010 20:50:02 15.2 C 6.75 g/m*3 15.2 C 0 km/h
2383 04-09-2010 21:02:02 15.2 C 6.88 g/m*3 15.2 C 0 km/h
2384 04-09-2010 21:14:02 14.8 C 6.84 g/m*3 14.8 C 0 km/h
2385 04-09-2010 21:26:02 14.8 C 6.97 g/m*3 14.8 C 0 km/h
2386 04-09-2010 21:38:01 15 C 6.92 g/m*3 15 C 0 km/h
2387 04-09-2010 21:50:02 14.8 C 7.09 g/m*3 14.8 C 0 km/h
2388 04-09-2010 22:02:02 14.8 C 7.22 g/m*3 14.8 C 0 km/h
2389 04-09-2010 22:14:03 14.4 C 7.17 g/m*3 14.4 C 0 km/h
2390 04-09-2010 22:26:01 14.1 C 7.28 g/m*3 14.1 C 0 km/h
2391 04-09-2010 22:38:02 14 C 7.36 g/m*3 14 C 0 km/h
2392 04-09-2010 22:50:02 13.5 C 7.25 g/m*3 13.5 C 0 km/h
2393 04-09-2010 23:03:03 13.5 C 7.49 g/m*3 13.5 C 0 km/h
2394 04-09-2010 23:15:03 13.2 C 7.46 g/m*3 13.2 C 0 km/h
2395 04-09-2010 23:27:03 13.1 C 7.53 g/m*3 13.1 C 0 km/h
2396 04-09-2010 23:39:03 13 C 7.71 g/m*3 13 C 0 km/h
2397 04-09-2010 23:51:03 12.8 C 7.73 g/m*3 12.8 C 0 km/h
2398 05-09-2010 00:03:03 12.7 C 7.68 g/m*3 12.7 C 0 km/h
2399 05-09-2010 00:15:03 12.3 C 7.49 g/m*3 12.3 C 0 km/h
2400 05-09-2010 00:27:03 12.1 C 7.61 g/m*3 12.1 C 0 km/h
Sensor: Nr:Datum:Temp:Abs-Feuchte:Windchill:Wind:
Aussen-T/F 2401 05-09-2010 00:39:03 11.9 C 7.63 g/m*3 11.9 C 0 km/h
2402 05-09-2010 00:51:03 11.8 C 7.68 g/m*3 11.8 C 0 km/h
2403 05-09-2010 01:03:03 11.6 C 7.59 g/m*3 11.6 C 0 km/h
2404 05-09-2010 01:15:03 11.4 C 7.49 g/m*3 11.4 C 0 km/h
2405 05-09-2010 01:27:03 11.2 C 7.6 g/m*3 11.2 C 0 km/h
2406 05-09-2010 01:39:03 11 C 7.51 g/m*3 11 C 0 km/h
2407 05-09-2010 01:51:03 10.9 C 7.46 g/m*3 10.9 C 0 km/h
2408 05-09-2010 02:03:03 10.8 C 7.61 g/m*3 10.8 C 0 km/h
2409 05-09-2010 02:15:03 10.6 C 7.52 g/m*3 10.6 C 0 km/h
2410 05-09-2010 02:27:04 10.4 C 7.52 g/m*3 10.4 C 0 km/h
2411 05-09-2010 02:39:04 10.3 C 7.47 g/m*3 10.3 C 0 km/h
2412 05-09-2010 02:51:04 10.1 C 7.47 g/m*3 10.1 C 0 km/h
2413 05-09-2010 03:03:04 10 C 7.33 g/m*3 10 C 0 km/h
2414 05-09-2010 03:15:04 9.8 C 7.42 g/m*3 9.8 C 0 km/h
2415 05-09-2010 03:27:04 9.7 C 7.47 g/m*3 9.7 C 0 km/h
2416 05-09-2010 03:39:04 9.6 C 7.42 g/m*3 9.6 C 0 km/h
2417 05-09-2010 03:51:04 9.5 C 7.37 g/m*3 9.5 C 0 km/h
2418 05-09-2010 04:03:04 9.2 C 7.23 g/m*3 9.2 C 0 km/h
2419 05-09-2010 04:15:04 9.2 C 7.23 g/m*3 9.2 C 0 km/h
2420 05-09-2010 04:27:04 9.2 C 7.32 g/m*3 9.2 C 0 km/h
2421 05-09-2010 04:39:04 9.1 C 7.28 g/m*3 9.1 C 0 km/h
2422 05-09-2010 04:51:04 8.9 C 7.27 g/m*3 8.9 C 0 km/h
2423 05-09-2010 05:03:04 8.9 C 7.27 g/m*3 8.9 C 0 km/h
2424 05-09-2010 05:15:04 8.8 C 7.31 g/m*3 8.8 C 0 km/h
2425 05-09-2010 05:27:04 8.5 C 7.17 g/m*3 8.5 C 0 km/h
Sensor: Nr:Datum:Temp:Abs-Feuchte:Windchill:Wind:
Aussen-T/F 2426 05-09-2010 05:39:04 8.5 C 7.26 g/m*3 8.5 C 0 km/h
2427 05-09-2010 05:51:04 8.5 C 7.34 g/m*3 8.5 C 0 km/h
2428 05-09-2010 06:03:04 8.3 C 7.33 g/m*3 8.3 C 0 km/h
2429 05-09-2010 06:15:04 8.1 C 7.24 g/m*3 8.1 C 0 km/h
2430 05-09-2010 06:27:04 8.1 C 7.24 g/m*3 8.1 C 0 km/h
2431 05-09-2010 06:39:04 8 C 7.19 g/m*3 8 C 0 km/h
2432 05-09-2010 06:51:05 7.9 C 7.23 g/m*3 7.9 C 0 km/h
2433 05-09-2010 07:03:05 7.9 C 7.23 g/m*3 7.9 C 0 km/h
2434 05-09-2010 07:15:05 8.2 C 7.37 g/m*3 8.2 C 0 km/h
2435 05-09-2010 07:27:05 8.5 C 7.6 g/m*3 8.5 C 0 km/h
2436 05-09-2010 07:39:02 8.6 C 7.65 g/m*3 8.6 C 0 km/h
2437 05-09-2010 07:51:02 8.8 C 7.75 g/m*3 8.8 C 0 km/h
2438 05-09-2010 08:03:02 9.2 C 7.86 g/m*3 9.2 C 0 km/h
2439 05-09-2010 08:15:01 9.5 C 7.92 g/m*3 9.5 C 0 km/h
2440 05-09-2010 08:27:01 9.9 C 8.03 g/m*3 9.9 C 0 km/h
2441 05-09-2010 08:39:02 10 C 7.8 g/m*3 10 C 0 km/h
2442 05-09-2010 08:51:01 10.5 C 7.95 g/m*3 10.5 C 0 km/h
2443 05-09-2010 09:03:01 10.7 C 7.96 g/m*3 10.7 C 0 km/h
2444 05-09-2010 09:15:01 11.1 C 7.86 g/m*3 11.1 C 0 km/h
2445 05-09-2010 09:27:01 11.2 C 7.8 g/m*3 11.2 C 0 km/h
2446 05-09-2010 09:39:01 11.3 C 7.85 g/m*3 11.3 C 0 km/h
2447 05-09-2010 09:51:01 11.2 C 7.91 g/m*3 11.2 C 0 km/h
2448 05-09-2010 10:03:02 11.2 C 8.01 g/m*3 11.2 C 0 km/h
2449 05-09-2010 10:15:01 11.8 C 8.42 g/m*3 11.8 C 0 km/h
2450 05-09-2010 10:27:01 12.3 C 8.47 g/m*3 12.3 C 0 km/h
Sensor: Nr:Datum:Temp:Abs-Feuchte:Windchill:Wind:
Aussen-T/F 2451 05-09-2010 10:39:01 12.9 C 8.68 g/m*3 12.9 C 0 km/h
2452 05-09-2010 10:51:02 13.6 C 8.59 g/m*3 13.6 C 0 km/h
2453 05-09-2010 11:03:02 14.3 C 8.48 g/m*3 14.3 C 0 km/h
2454 05-09-2010 11:15:01 15.1 C 8.51 g/m*3 15.1 C 0 km/h
2455 05-09-2010 11:27:01 15.4 C 8.41 g/m*3 15.4 C 0 km/h
2456 05-09-2010 11:39:02 15.9 C 8.13 g/m*3 15.9 C 0 km/h
2457 05-09-2010 11:51:02 16.4 C 7.12 g/m*3 16.4 C 0 km/h
2458 05-09-2010 12:03:02 17.2 C 7.18 g/m*3 17.2 C 0 km/h
2459 05-09-2010 12:15:02 17.6 C 6.6 g/m*3 17.6 C 0 km/h
2460 05-09-2010 12:27:02 18.2 C 6.53 g/m*3 18.2 C 0 km/h
2461 05-09-2010 12:39:02 18.5 C 6.33 g/m*3 18.5 C 0 km/h
2462 05-09-2010 12:51:01 18.6 C 5.89 g/m*3 18.6 C 0 km/h
2463 05-09-2010 13:03:02 19.3 C 6.47 g/m*3 19.3 C 0 km/h
2464 05-09-2010 13:15:02 19.4 C 6.01 g/m*3 19.4 C 0 km/h
2465 05-09-2010 13:27:02 20 C 5.88 g/m*3 20 C 0 km/h
2466 05-09-2010 13:39:01 20.6 C 5.55 g/m*3 20.6 C 0 km/h
2467 05-09-2010 13:51:01 21.4 C 5.62 g/m*3 21.4 C 0 km/h
2468 05-09-2010 14:03:01 22.3 C 5.53 g/m*3 22.3 C 0 km/h
2469 05-09-2010 14:15:02 22.9 C 5.31 g/m*3 22.9 C 0 km/h
2470 05-09-2010 14:27:02 23.3 C 5.02 g/m*3 23.3 C 0 km/h
2471 05-09-2010 14:39:01 24.2 C 5.06 g/m*3 24.2 C 0 km/h
2472 05-09-2010 14:51:03 24.8 C 5.01 g/m*3 24.8 C 0 km/h
2473 05-09-2010 15:03:02 24.8 C 5.46 g/m*3 24.8 C 0 km/h
2474 05-09-2010 15:15:02 23.7 C 4.92 g/m*3 23.7 C 0 km/h
2475 05-09-2010 15:27:02 24 C 4.79 g/m*3 24 C 0 km/h
Sensor: Nr:Datum:Temp:Abs-Feuchte:Windchill:Wind:
Aussen-T/F 2476 05-09-2010 15:39:02 24.4 C 4.45 g/m*3 24.4 C 0 km/h
2477 05-09-2010 15:51:02 23.9 C 4.54 g/m*3 23.9 C 0 km/h
2478 05-09-2010 16:03:01 24.1 C 4.38 g/m*3 24.1 C 0 km/h
2479 05-09-2010 16:15:02 24.4 C 4.67 g/m*3 24.4 C 0 km/h
2480 05-09-2010 16:27:02 25 C 4.83 g/m*3 25 C 0 km/h
2481 05-09-2010 16:39:02 25 C 4.83 g/m*3 25 C 0 km/h
2482 05-09-2010 16:51:01 23.5 C 4.65 g/m*3 23.5 C 0 km/h
2483 05-09-2010 17:03:02 24.7 C 4.75 g/m*3 24.7 C 0 km/h
2484 05-09-2010 17:15:01 24.7 C 5.21 g/m*3 24.7 C 0 km/h
2485 05-09-2010 17:27:01 24 C 5.44 g/m*3 24 C 0 km/h
2486 05-09-2010 17:39:02 24.6 C 5.18 g/m*3 24.6 C 0 km/h
2487 05-09-2010 17:51:01 25 C 4.6 g/m*3 25 C 0 km/h
2488 05-09-2010 18:03:02 25.7 C 5.51 g/m*3 25.7 C 0 km/h
2489 05-09-2010 18:15:01 26 C 4.87 g/m*3 26 C 0 km/h
2490 05-09-2010 18:27:01 25.4 C 4.71 g/m*3 25.4 C 0 km/h
2491 05-09-2010 18:39:02 24.1 C 5.03 g/m*3 24.1 C 0 km/h
2492 05-09-2010 18:51:01 23 C 6.17 g/m*3 23 C 0 km/h
2493 05-09-2010 19:03:02 21.9 C 6.37 g/m*3 21.9 C 0 km/h
2494 05-09-2010 19:15:02 20.1 C 6.26 g/m*3 20.1 C 0 km/h
2495 05-09-2010 19:27:02 19.2 C 6.43 g/m*3 19.2 C 0 km/h
2496 05-09-2010 19:39:02 18.2 C 6.37 g/m*3 18.2 C 0 km/h
2497 05-09-2010 19:51:02 17.5 C 6.41 g/m*3 17.5 C 0 km/h
2498 05-09-2010 20:03:01 17 C 6.37 g/m*3 17 C 0 km/h
2499 05-09-2010 20:15:02 16.6 C 6.36 g/m*3 16.6 C 0 km/h
2500 05-09-2010 20:27:03 16.6 C 6.36 g/m*3 16.6 C 0 km/h
Sensor: Nr:Datum:Temp:Abs-Feuchte:Windchill:Wind:
Aussen-T/F 2501 05-09-2010 20:39:01 16.2 C 6.34 g/m*3 16.2 C 0 km/h
2502 05-09-2010 20:51:02 15.8 C 6.46 g/m*3 15.8 C 0 km/h
2503 05-09-2010 21:03:01 15.3 C 6.66 g/m*3 15.3 C 0 km/h
2504 05-09-2010 21:15:01 15.1 C 6.71 g/m*3 15.1 C 0 km/h
2505 05-09-2010 21:27:01 14.9 C 6.75 g/m*3 14.9 C 0 km/h
2506 05-09-2010 21:39:02 14.7 C 6.92 g/m*3 14.7 C 0 km/h
2507 05-09-2010 21:51:02 14.5 C 6.96 g/m*3 14.5 C 0 km/h
2508 05-09-2010 22:03:02 14.4 C 7.05 g/m*3 14.4 C 0 km/h
2509 05-09-2010 22:15:02 14.2 C 7.08 g/m*3 14.2 C 0 km/h
2510 05-09-2010 22:27:02 14 C 7.12 g/m*3 14 C 0 km/h
2511 05-09-2010 22:40:03 14 C 7.12 g/m*3 14 C 0 km/h
2512 05-09-2010 22:52:03 14 C 7.12 g/m*3 14 C 0 km/h
2513 05-09-2010 23:04:03 14 C 7 g/m*3 14 C 0 km/h
2514 05-09-2010 23:16:03 14.1 C 6.92 g/m*3 14.1 C 0 km/h
2515 05-09-2010 23:28:03 14.1 C 6.92 g/m*3 14.1 C 0 km/h
2516 05-09-2010 23:40:03 13.7 C 6.87 g/m*3 13.7 C 0 km/h
2517 05-09-2010 23:52:03 13.8 C 6.91 g/m*3 13.8 C 0 km/h
2518 06-09-2010 00:04:03 13.6 C 7.06 g/m*3 13.6 C 0 km/h
2519 06-09-2010 00:16:03 13.4 C 7.09 g/m*3 13.4 C 0 km/h
2520 06-09-2010 00:28:03 13.2 C 7.12 g/m*3 13.2 C 0 km/h
2521 06-09-2010 00:40:03 13.1 C 7.07 g/m*3 13.1 C 0 km/h
2522 06-09-2010 00:52:03 12.8 C 7.06 g/m*3 12.8 C 0 km/h
2523 06-09-2010 01:04:03 12.7 C 7.12 g/m*3 12.7 C 0 km/h
2524 06-09-2010 01:16:03 12.5 C 7.15 g/m*3 12.5 C 0 km/h
2525 06-09-2010 01:28:03 12.3 C 7.06 g/m*3 12.3 C 0 km/h
Sensor: Nr:Datum:Temp:Abs-Feuchte:Windchill:Wind:
Aussen-T/F 2526 06-09-2010 01:40:03 12.2 C 7.12 g/m*3 12.2 C 0 km/h
2527 06-09-2010 01:52:03 12.1 C 7.08 g/m*3 12.1 C 0 km/h
2528 06-09-2010 02:04:03 12 C 7.14 g/m*3 12 C 0 km/h
2529 06-09-2010 02:16:04 11.8 C 7.26 g/m*3 11.8 C 0 km/h
2530 06-09-2010 02:28:04 11.6 C 7.17 g/m*3 11.6 C 0 km/h
2531 06-09-2010 02:40:04 11.5 C 7.23 g/m*3 11.5 C 0 km/h
2532 06-09-2010 02:52:04 11.2 C 7.2 g/m*3 11.2 C 0 km/h
2533 06-09-2010 03:04:04 11.2 C 7.2 g/m*3 11.2 C 0 km/h
2534 06-09-2010 03:16:04 11.2 C 7.2 g/m*3 11.2 C 0 km/h
2535 06-09-2010 03:28:04 11.1 C 7.15 g/m*3 11.1 C 0 km/h
2536 06-09-2010 03:40:04 11 C 7.11 g/m*3 11 C 0 km/h
2537 06-09-2010 03:52:04 11 C 7.11 g/m*3 11 C 0 km/h
2538 06-09-2010 04:04:04 11 C 7.11 g/m*3 11 C 0 km/h
2539 06-09-2010 04:16:04 10.8 C 7.12 g/m*3 10.8 C 0 km/h
2540 06-09-2010 04:28:04 10.7 C 7.07 g/m*3 10.7 C 0 km/h
2541 06-09-2010 04:40:04 10.6 C 7.12 g/m*3 10.6 C 0 km/h
2542 06-09-2010 04:52:04 10.4 C 7.04 g/m*3 10.4 C 0 km/h
2543 06-09-2010 05:04:04 10.3 C 7.09 g/m*3 10.3 C 0 km/h
2544 06-09-2010 05:16:04 10.4 C 7.13 g/m*3 10.4 C 0 km/h
2545 06-09-2010 05:28:04 10.2 C 6.95 g/m*3 10.2 C 0 km/h
2546 06-09-2010 05:40:04 10.2 C 6.95 g/m*3 10.2 C 0 km/h
2547 06-09-2010 05:52:04 10.1 C 7 g/m*3 10.1 C 0 km/h
2548 06-09-2010 06:04:04 9.8 C 6.96 g/m*3 9.8 C 0 km/h
2549 06-09-2010 06:16:04 9.7 C 7.01 g/m*3 9.7 C 0 km/h
2550 06-09-2010 06:28:04 9.5 C 7.01 g/m*3 9.5 C 0 km/h
Sensor: Nr:Datum:Temp:Abs-Feuchte:Windchill:Wind:
Aussen-T/F 2551 06-09-2010 06:40:05 9.5 C 7.01 g/m*3 9.5 C 0 km/h
2552 06-09-2010 06:52:05 9.3 C 7.01 g/m*3 9.3 C 0 km/h
2553 06-09-2010 07:04:05 9.2 C 6.97 g/m*3 9.2 C 0 km/h
2554 06-09-2010 07:16:03 9.3 C 7.1 g/m*3 9.3 C 0 km/h
2555 06-09-2010 07:28:03 9.3 C 7.1 g/m*3 9.3 C 0 km/h
2556 06-09-2010 07:40:03 9.3 C 7.1 g/m*3 9.3 C 0 km/h
2557 06-09-2010 07:52:01 9.3 C 7.1 g/m*3 9.3 C 0 km/h
2558 06-09-2010 08:04:02 9.4 C 7.15 g/m*3 9.4 C 0 km/h
2559 06-09-2010 08:16:01 9.6 C 7.24 g/m*3 9.6 C 0 km/h
2560 06-09-2010 08:28:01 9.6 C 7.24 g/m*3 9.6 C 0 km/h
2561 06-09-2010 08:40:02 9.8 C 7.24 g/m*3 9.8 C 0 km/h
2562 06-09-2010 08:52:02 10 C 7.24 g/m*3 10 C 0 km/h
2563 06-09-2010 09:04:02 10.2 C 7.33 g/m*3 10.2 C 0 km/h
2564 06-09-2010 09:16:01 10.5 C 7.47 g/m*3 10.5 C 0 km/h
2565 06-09-2010 09:28:01 10.8 C 7.51 g/m*3 10.8 C 0 km/h
2566 06-09-2010 09:40:02 11.3 C 7.55 g/m*3 11.3 C 0 km/h
2567 06-09-2010 09:52:02 11.9 C 7.73 g/m*3 11.9 C 0 km/h
2568 06-09-2010 10:04:02 12.5 C 7.59 g/m*3 12.5 C 0 km/h
2569 06-09-2010 10:16:02 13.1 C 7.53 g/m*3 13.1 C 0 km/h
2570 06-09-2010 10:28:02 13.5 C 7.37 g/m*3 13.5 C 0 km/h
2571 06-09-2010 10:40:02 13.9 C 7.67 g/m*3 13.9 C 0 km/h
2572 06-09-2010 10:52:02 14.4 C 7.42 g/m*3 14.4 C 0 km/h
2573 06-09-2010 11:04:02 15.2 C 7.4 g/m*3 15.2 C 0 km/h
2574 06-09-2010 11:16:02 15.8 C 7.27 g/m*3 15.8 C 0 km/h
2575 06-09-2010 11:28:02 16.2 C 7.45 g/m*3 16.2 C 0 km/h
Sensor: Nr:Datum:Temp:Abs-Feuchte:Windchill:Wind:
Aussen-T/F 2576 06-09-2010 11:40:01 16.9 C 6.76 g/m*3 16.9 C 0 km/h
2577 06-09-2010 11:52:02 17.5 C 6.71 g/m*3 17.5 C 0 km/h
2578 06-09-2010 12:04:01 18.1 C 5.87 g/m*3 18.1 C 0 km/h
2579 06-09-2010 12:16:02 18.5 C 5.7 g/m*3 18.5 C 0 km/h
2580 06-09-2010 12:28:02 18.7 C 5.6 g/m*3 18.7 C 0 km/h
2581 06-09-2010 12:40:02 18.9 C 5.35 g/m*3 18.9 C 0 km/h
2582 06-09-2010 12:52:02 19 C 5.38 g/m*3 19 C 0 km/h
2583 06-09-2010 13:04:03 19.3 C 5.31 g/m*3 19.3 C 0 km/h
2584 06-09-2010 13:16:02 19.7 C 5.6 g/m*3 19.7 C 0 km/h
2585 06-09-2010 13:28:02 20.1 C 5.56 g/m*3 20.1 C 0 km/h
2586 06-09-2010 13:40:02 20.8 C 5.43 g/m*3 20.8 C 0 km/h
2587 06-09-2010 13:52:01 21.3 C 5.03 g/m*3 21.3 C 0 km/h
2588 06-09-2010 14:04:02 21.6 C 4.74 g/m*3 21.6 C 0 km/h
2589 06-09-2010 14:16:01 21.9 C 4.82 g/m*3 21.9 C 0 km/h
2590 06-09-2010 14:28:01 22.3 C 4.54 g/m*3 22.3 C 0 km/h
2591 06-09-2010 14:40:02 22.7 C 4.24 g/m*3 22.7 C 0 km/h
2592 06-09-2010 14:52:01 23.2 C 4.16 g/m*3 23.2 C 0 km/h
2593 06-09-2010 15:04:02 23.6 C 4.25 g/m*3 23.6 C 0 km/h
2594 06-09-2010 15:16:02 23.9 C 4.33 g/m*3 23.9 C 0 km/h
2595 06-09-2010 15:28:02 24.1 C 4.38 g/m*3 24.1 C 0 km/h
2596 06-09-2010 15:40:01 24.3 C 4.43 g/m*3 24.3 C 0 km/h
2597 06-09-2010 15:52:01 24.1 C 4.38 g/m*3 24.1 C 0 km/h
2598 06-09-2010 16:04:01 24 C 4.35 g/m*3 24 C 0 km/h
2599 06-09-2010 16:16:02 23.8 C 4.3 g/m*3 23.8 C 0 km/h
2600 06-09-2010 16:28:02 23.7 C 4.28 g/m*3 23.7 C 0 km/h
Sensor: Nr:Datum:Temp:Abs-Feuchte:Windchill:Wind:
Aussen-T/F 2601 06-09-2010 16:40:01 23.9 C 4.33 g/m*3 23.9 C 0 km/h
2602 06-09-2010 16:52:02 24 C 4.35 g/m*3 24 C 0 km/h
2603 06-09-2010 17:04:01 24.5 C 4.48 g/m*3 24.5 C 0 km/h
2604 06-09-2010 17:16:01 24.7 C 4.53 g/m*3 24.7 C 0 km/h
2605 06-09-2010 17:28:01 25.4 C 4.71 g/m*3 25.4 C 0 km/h
2606 06-09-2010 17:40:01 24.2 C 4.4 g/m*3 24.2 C 0 km/h
2607 06-09-2010 17:52:02 23.3 C 4.18 g/m*3 23.3 C 0 km/h
2608 06-09-2010 18:04:02 22.6 C 4.82 g/m*3 22.6 C 0 km/h
2609 06-09-2010 18:16:02 21.5 C 4.9 g/m*3 21.5 C 0 km/h
2610 06-09-2010 18:28:02 21.1 C 5.53 g/m*3 21.1 C 0 km/h
2611 06-09-2010 18:40:02 21.2 C 5.37 g/m*3 21.2 C 0 km/h
2612 06-09-2010 18:52:01 20.8 C 5.98 g/m*3 20.8 C 0 km/h
2613 06-09-2010 19:04:02 20 C 6.05 g/m*3 20 C 0 km/h
2614 06-09-2010 19:16:01 19.1 C 5.9 g/m*3 19.1 C 0 km/h
2615 06-09-2010 19:28:01 18.7 C 5.76 g/m*3 18.7 C 0 km/h
2616 06-09-2010 19:40:02 18.1 C 5.87 g/m*3 18.1 C 0 km/h
2617 06-09-2010 19:52:01 17.7 C 5.73 g/m*3 17.7 C 0 km/h
2618 06-09-2010 20:04:02 17.6 C 5.55 g/m*3 17.6 C 0 km/h
2619 06-09-2010 20:16:01 17.3 C 5.6 g/m*3 17.3 C 0 km/h
2620 06-09-2010 20:28:01 17.1 C 5.68 g/m*3 17.1 C 0 km/h
2621 06-09-2010 20:40:02 16.9 C 5.61 g/m*3 16.9 C 0 km/h
2622 06-09-2010 20:52:01 16.6 C 5.65 g/m*3 16.6 C 0 km/h
2623 06-09-2010 21:04:02 16.5 C 5.2 g/m*3 16.5 C 0 km/h
2624 06-09-2010 21:16:02 16.4 C 5.44 g/m*3 16.4 C 0 km/h
2625 06-09-2010 21:28:02 16.2 C 5.52 g/m*3 16.2 C 0 km/h
Sensor: Nr:Datum:Temp:Abs-Feuchte:Windchill:Wind:
Aussen-T/F 2626 06-09-2010 21:41:03 16.1 C 5.48 g/m*3 16.1 C 0 km/h
2627 06-09-2010 21:53:03 15.9 C 5.55 g/m*3 15.9 C 0 km/h
2628 06-09-2010 22:05:03 15.7 C 5.62 g/m*3 15.7 C 0 km/h
2629 06-09-2010 22:17:03 15.6 C 5.59 g/m*3 15.6 C 0 km/h
2630 06-09-2010 22:29:03 15.6 C 5.59 g/m*3 15.6 C 0 km/h
2631 06-09-2010 22:41:03 15.3 C 5.62 g/m*3 15.3 C 0 km/h
2632 06-09-2010 22:53:03 15.3 C 5.62 g/m*3 15.3 C 0 km/h
2633 06-09-2010 23:05:03 15.2 C 5.71 g/m*3 15.2 C 0 km/h
2634 06-09-2010 23:17:03 15.1 C 5.68 g/m*3 15.1 C 0 km/h
2635 06-09-2010 23:29:03 15.2 C 5.58 g/m*3 15.2 C 0 km/h
2636 06-09-2010 23:41:03 15.3 C 5.48 g/m*3 15.3 C 0 km/h
2637 06-09-2010 23:53:03 15.2 C 5.71 g/m*3 15.2 C 0 km/h
2638 07-09-2010 00:05:03 15.2 C 5.71 g/m*3 15.2 C 0 km/h
2639 07-09-2010 00:17:03 15.4 C 5.52 g/m*3 15.4 C 0 km/h
2640 07-09-2010 00:29:03 15.4 C 5.52 g/m*3 15.4 C 0 km/h
2641 07-09-2010 00:41:03 15.5 C 5.42 g/m*3 15.5 C 0 km/h
2642 07-09-2010 00:53:03 15.4 C 5.39 g/m*3 15.4 C 0 km/h
2643 07-09-2010 01:05:03 15.4 C 5.52 g/m*3 15.4 C 0 km/h
2644 07-09-2010 01:17:04 15.4 C 5.39 g/m*3 15.4 C 0 km/h
2645 07-09-2010 01:29:04 15.4 C 5.39 g/m*3 15.4 C 0 km/h
2646 07-09-2010 01:41:04 15.4 C 5.39 g/m*3 15.4 C 0 km/h
2647 07-09-2010 01:53:04 15.5 C 5.29 g/m*3 15.5 C 0 km/h
2648 07-09-2010 02:05:04 15.5 C 5.29 g/m*3 15.5 C 0 km/h
2649 07-09-2010 02:17:04 15.5 C 5.29 g/m*3 15.5 C 0 km/h
2650 07-09-2010 02:29:04 15.5 C 5.55 g/m*3 15.5 C 0 km/h
Sensor: Nr:Datum:Temp:Abs-Feuchte:Windchill:Wind:
Aussen-T/F 2651 07-09-2010 02:41:04 15.4 C 5.39 g/m*3 15.4 C 0 km/h
2652 07-09-2010 02:53:04 15.4 C 5.39 g/m*3 15.4 C 0 km/h
2653 07-09-2010 03:05:04 15.4 C 5.52 g/m*3 15.4 C 0 km/h
2654 07-09-2010 03:17:04 15.4 C 5.26 g/m*3 15.4 C 0 km/h
2655 07-09-2010 03:29:04 14.8 C 5.7 g/m*3 14.8 C 0 km/h
2656 07-09-2010 03:41:04 13.3 C 6.47 g/m*3 13.3 C 0 km/h
2657 07-09-2010 03:53:04 12.8 C 6.94 g/m*3 12.8 C 0 km/h
2658 07-09-2010 04:05:04 13.1 C 6.85 g/m*3 13.1 C 0 km/h
2659 07-09-2010 04:17:04 13.4 C 6.97 g/m*3 13.4 C 0 km/h
2660 07-09-2010 04:29:04 13.1 C 6.62 g/m*3 13.1 C 0 km/h
2661 07-09-2010 04:41:04 12.8 C 7.28 g/m*3 12.8 C 0 km/h
2662 07-09-2010 04:53:04 12.9 C 7.33 g/m*3 12.9 C 0 km/h
2663 07-09-2010 05:05:04 12.9 C 7.21 g/m*3 12.9 C 0 km/h
2664 07-09-2010 05:17:04 13 C 7.26 g/m*3 13 C 0 km/h
2665 07-09-2010 05:29:05 13 C 7.03 g/m*3 13 C 0 km/h
2666 07-09-2010 05:41:05 13.2 C 6.77 g/m*3 13.2 C 0 km/h
2667 07-09-2010 05:53:05 12.8 C 7.28 g/m*3 12.8 C 0 km/h
2668 07-09-2010 06:05:05 12.5 C 7.26 g/m*3 12.5 C 0 km/h
2669 07-09-2010 06:17:05 12.3 C 7.38 g/m*3 12.3 C 0 km/h
2670 07-09-2010 06:29:05 12.4 C 7.1 g/m*3 12.4 C 0 km/h
2671 07-09-2010 06:41:05 12.6 C 6.75 g/m*3 12.6 C 0 km/h
2672 07-09-2010 06:53:05 12.7 C 6.68 g/m*3 12.7 C 0 km/h
2673 07-09-2010 07:05:05 12.4 C 6.66 g/m*3 12.4 C 0 km/h
2674 07-09-2010 07:17:05 12.2 C 7.01 g/m*3 12.2 C 0 km/h
2675 07-09-2010 07:29:05 12.1 C 6.97 g/m*3 12.1 C 0 km/h
Sensor: Nr:Datum:Temp:Abs-Feuchte:Windchill:Wind:
Aussen-T/F 2676 07-09-2010 07:41:05 12 C 7.35 g/m*3 12 C 0 km/h
2677 07-09-2010 07:53:01 11.9 C 7.41 g/m*3 11.9 C 0 km/h
2678 07-09-2010 08:05:02 11.7 C 7.74 g/m*3 11.7 C 0 km/h
2679 07-09-2010 08:17:02 11.6 C 8.11 g/m*3 11.6 C 0 km/h
2680 07-09-2010 08:29:02 11.7 C 8.37 g/m*3 11.7 C 0 km/h
2681 07-09-2010 08:41:02 11.4 C 8.11 g/m*3 11.4 C 0 km/h
2682 07-09-2010 08:53:01 11.4 C 8.21 g/m*3 11.4 C 0 km/h
2683 07-09-2010 09:05:02 11.4 C 8.21 g/m*3 11.4 C 0 km/h
2684 07-09-2010 09:17:02 11.4 C 8.21 g/m*3 11.4 C 0 km/h
2685 07-09-2010 09:29:02 11.5 C 8.47 g/m*3 11.5 C 0 km/h
2686 07-09-2010 09:41:01 11.5 C 8.47 g/m*3 11.5 C 0 km/h
2687 07-09-2010 09:53:02 11.5 C 8.68 g/m*3 11.5 C 0 km/h
2688 07-09-2010 10:05:01 11.4 C 8.72 g/m*3 11.4 C 0 km/h
2689 07-09-2010 10:17:02 11.4 C 8.83 g/m*3 11.4 C 0 km/h
2690 07-09-2010 10:29:02 11.5 C 8.88 g/m*3 11.5 C 0 km/h
2691 07-09-2010 10:41:01 11.4 C 8.93 g/m*3 11.4 C 0 km/h
2692 07-09-2010 10:53:02 11.6 C 9.04 g/m*3 11.6 C 0 km/h
2693 07-09-2010 11:05:01 11.6 C 9.15 g/m*3 11.6 C 0 km/h
2694 07-09-2010 11:17:01 11.5 C 9.09 g/m*3 11.5 C 0 km/h
2695 07-09-2010 11:29:01 11.2 C 8.92 g/m*3 11.2 C 0 km/h
2696 07-09-2010 11:41:02 11.7 C 9.41 g/m*3 11.7 C 0 km/h
2697 07-09-2010 11:53:02 12.2 C 9.5 g/m*3 12.2 C 0 km/h
2698 07-09-2010 12:05:02 12 C 9.38 g/m*3 12 C 0 km/h
2699 07-09-2010 12:17:02 12.4 C 9.62 g/m*3 12.4 C 0 km/h
2700 07-09-2010 12:29:02 12.4 C 9.4 g/m*3 12.4 C 0 km/h
Sensor: Nr:Datum:Temp:Abs-Feuchte:Windchill:Wind:
Aussen-T/F 2701 07-09-2010 12:41:02 12.5 C 9.46 g/m*3 12.5 C 0 km/h
2702 07-09-2010 12:53:02 12.8 C 9.63 g/m*3 12.8 C 0 km/h
2703 07-09-2010 13:05:02 12.7 C 9.35 g/m*3 12.7 C 0 km/h
2704 07-09-2010 13:17:02 12.8 C 9.41 g/m*3 12.8 C 0 km/h
2705 07-09-2010 13:29:02 12.8 C 9.3 g/m*3 12.8 C 0 km/h
2706 07-09-2010 13:41:02 12.7 C 9.13 g/m*3 12.7 C 0 km/h
2707 07-09-2010 13:53:01 12.9 C 9.35 g/m*3 12.9 C 0 km/h
2708 07-09-2010 14:05:01 12.9 C 9.35 g/m*3 12.9 C 0 km/h
2709 07-09-2010 14:17:01 13.1 C 9.36 g/m*3 13.1 C 0 km/h
2710 07-09-2010 14:29:01 13.3 C 9.47 g/m*3 13.3 C 0 km/h
2711 07-09-2010 14:41:01 13.4 C 9.3 g/m*3 13.4 C 0 km/h
2712 07-09-2010 14:53:01 14.1 C 9.34 g/m*3 14.1 C 0 km/h
2713 07-09-2010 15:05:01 14.4 C 9.39 g/m*3 14.4 C 0 km/h
2714 07-09-2010 15:17:02 14.4 C 8.9 g/m*3 14.4 C 0 km/h
2715 07-09-2010 15:29:02 14.7 C 9.07 g/m*3 14.7 C 0 km/h
2716 07-09-2010 15:41:01 14.7 C 9.07 g/m*3 14.7 C 0 km/h
2717 07-09-2010 15:53:03 14.7 C 9.19 g/m*3 14.7 C 0 km/h
2718 07-09-2010 16:05:02 15.3 C 9.27 g/m*3 15.3 C 0 km/h
2719 07-09-2010 16:17:02 15.6 C 9.04 g/m*3 15.6 C 0 km/h
2720 07-09-2010 16:29:02 15.7 C 9.1 g/m*3 15.7 C 0 km/h
2721 07-09-2010 16:41:02 15.6 C 9.04 g/m*3 15.6 C 0 km/h
2722 07-09-2010 16:53:02 15.4 C 9.07 g/m*3 15.4 C 0 km/h
2723 07-09-2010 17:05:02 15.2 C 8.96 g/m*3 15.2 C 0 km/h
2724 07-09-2010 17:17:02 14.9 C 8.92 g/m*3 14.9 C 0 km/h
2725 07-09-2010 17:29:02 14.8 C 9.12 g/m*3 14.8 C 0 km/h
Sensor: Nr:Datum:Temp:Abs-Feuchte:Windchill:Wind:
Aussen-T/F 2726 07-09-2010 17:41:02 14.8 C 9.12 g/m*3 14.8 C 0 km/h
2727 07-09-2010 17:53:02 14.7 C 9.19 g/m*3 14.7 C 0 km/h
2728 07-09-2010 18:05:02 14.1 C 8.86 g/m*3 14.1 C 0 km/h
2729 07-09-2010 18:17:01 14 C 9.05 g/m*3 14 C 0 km/h
2730 07-09-2010 18:29:01 14 C 9.05 g/m*3 14 C 0 km/h
2731 07-09-2010 18:41:02 13.9 C 9.23 g/m*3 13.9 C 0 km/h
2732 07-09-2010 18:53:02 13.9 C 9.23 g/m*3 13.9 C 0 km/h
2733 07-09-2010 19:05:02 13.9 C 9.35 g/m*3 13.9 C 0 km/h
2734 07-09-2010 19:17:01 13.8 C 9.29 g/m*3 13.8 C 0 km/h
2735 07-09-2010 19:29:01 13.8 C 9.41 g/m*3 13.8 C 0 km/h
2736 07-09-2010 19:41:02 13.7 C 9.35 g/m*3 13.7 C 0 km/h
2737 07-09-2010 19:53:02 13.7 C 9.47 g/m*3 13.7 C 0 km/h
2738 07-09-2010 20:05:02 13.5 C 9.47 g/m*3 13.5 C 0 km/h
2739 07-09-2010 20:17:02 13.3 C 9.47 g/m*3 13.3 C 0 km/h
2740 07-09-2010 20:29:02 13.2 C 9.53 g/m*3 13.2 C 0 km/h
2741 07-09-2010 20:41:02 13.1 C 9.59 g/m*3 13.1 C 0 km/h
2742 07-09-2010 20:53:02 13.1 C 9.7 g/m*3 13.1 C 0 km/h
2743 07-09-2010 21:05:02 13 C 9.75 g/m*3 13 C 0 km/h
2744 07-09-2010 21:17:02 13 C 9.87 g/m*3 13 C 0 km/h
2745 07-09-2010 21:29:02 13 C 9.87 g/m*3 13 C 0 km/h
2746 07-09-2010 21:41:02 13 C 9.98 g/m*3 13 C 0 km/h
2747 07-09-2010 21:53:02 12.8 C 9.97 g/m*3 12.8 C 0 km/h
2748 07-09-2010 22:05:02 12.9 C 10.03 g/m*3 12.9 C 0 km/h
2749 07-09-2010 22:18:05 12.9 C 10.03 g/m*3 12.9 C 0 km/h
2750 07-09-2010 22:30:05 12.9 C 10.03 g/m*3 12.9 C 0 km/h
Sensor: Nr:Datum:Temp:Abs-Feuchte:Windchill:Wind:
Aussen-T/F 2751 07-09-2010 22:42:05 12.8 C 9.97 g/m*3 12.8 C 0 km/h
2752 07-09-2010 22:54:05 12.8 C 10.08 g/m*3 12.8 C 0 km/h
2753 07-09-2010 23:06:05 12.9 C 10.14 g/m*3 12.9 C 0 km/h
2754 07-09-2010 23:18:05 12.9 C 10.14 g/m*3 12.9 C 0 km/h
2755 07-09-2010 23:30:05 12.8 C 10.08 g/m*3 12.8 C 0 km/h
2756 07-09-2010 23:42:05 13 C 10.21 g/m*3 13 C 0 km/h
2757 07-09-2010 23:54:05 13 C 10.21 g/m*3 13 C 0 km/h
2758 08-09-2010 00:06:05 12.9 C 10.26 g/m*3 12.9 C 0 km/h
2759 08-09-2010 00:18:05 12.8 C 10.19 g/m*3 12.8 C 0 km/h
2760 08-09-2010 00:30:05 12.9 C 10.26 g/m*3 12.9 C 0 km/h
2761 08-09-2010 00:42:06 12.9 C 10.26 g/m*3 12.9 C 0 km/h
2762 08-09-2010 00:54:06 12.9 C 10.26 g/m*3 12.9 C 0 km/h
2763 08-09-2010 01:06:06 13 C 10.32 g/m*3 13 C 0 km/h
2764 08-09-2010 01:18:06 13 C 10.32 g/m*3 13 C 0 km/h
2765 08-09-2010 01:30:06 13 C 10.32 g/m*3 13 C 0 km/h
2766 08-09-2010 01:42:06 13 C 10.43 g/m*3 13 C 0 km/h
2767 08-09-2010 01:54:06 13 C 10.43 g/m*3 13 C 0 km/h
2768 08-09-2010 02:06:06 13.1 C 10.5 g/m*3 13.1 C 0 km/h
2769 08-09-2010 02:18:06 13.1 C 10.5 g/m*3 13.1 C 0 km/h
2770 08-09-2010 02:30:06 13.2 C 10.56 g/m*3 13.2 C 0 km/h
2771 08-09-2010 02:42:06 13.2 C 10.68 g/m*3 13.2 C 0 km/h
2772 08-09-2010 02:54:06 13.4 C 10.81 g/m*3 13.4 C 0 km/h
2773 08-09-2010 03:06:06 13.4 C 10.81 g/m*3 13.4 C 0 km/h
2774 08-09-2010 03:18:06 13.5 C 10.88 g/m*3 13.5 C 0 km/h
2775 08-09-2010 03:30:06 13.6 C 10.95 g/m*3 13.6 C 0 km/h
Sensor: Nr:Datum:Temp:Abs-Feuchte:Windchill:Wind:
Aussen-T/F 2776 08-09-2010 03:42:06 13.7 C 11.01 g/m*3 13.7 C 0 km/h
2777 08-09-2010 03:54:06 13.6 C 10.95 g/m*3 13.6 C 0 km/h
2778 08-09-2010 04:06:06 13.5 C 10.88 g/m*3 13.5 C 0 km/h
2779 08-09-2010 04:18:06 13.5 C 10.88 g/m*3 13.5 C 0 km/h
2780 08-09-2010 04:30:06 13.6 C 10.95 g/m*3 13.6 C 0 km/h
2781 08-09-2010 04:42:06 13.5 C 10.88 g/m*3 13.5 C 0 km/h
2782 08-09-2010 04:54:07 13.7 C 11.01 g/m*3 13.7 C 0 km/h
2783 08-09-2010 05:06:07 14.1 C 11.29 g/m*3 14.1 C 0 km/h
2784 08-09-2010 05:18:07 14 C 11.34 g/m*3 14 C 0 km/h
2785 08-09-2010 05:30:07 14.1 C 11.41 g/m*3 14.1 C 0 km/h
2786 08-09-2010 05:42:07 14.4 C 11.62 g/m*3 14.4 C 0 km/h
2787 08-09-2010 05:54:07 14.2 C 11.36 g/m*3 14.2 C 0 km/h
2788 08-09-2010 06:06:07 14.4 C 11.5 g/m*3 14.4 C 0 km/h
2789 08-09-2010 06:18:07 14.4 C 11.5 g/m*3 14.4 C 0 km/h
2790 08-09-2010 06:30:07 14.3 C 11.43 g/m*3 14.3 C 0 km/h
2791 08-09-2010 06:42:07 14.3 C 11.43 g/m*3 14.3 C 0 km/h
2792 08-09-2010 06:54:07 14.4 C 11.37 g/m*3 14.4 C 0 km/h
2793 08-09-2010 07:06:07 14.3 C 11.3 g/m*3 14.3 C 0 km/h
2794 08-09-2010 07:18:04 14.3 C 11.3 g/m*3 14.3 C 0 km/h
2795 08-09-2010 07:30:04 14.3 C 11.3 g/m*3 14.3 C 0 km/h
2796 08-09-2010 07:42:04 14.1 C 11.17 g/m*3 14.1 C 0 km/h
2797 08-09-2010 07:54:02 14.1 C 11.17 g/m*3 14.1 C 0 km/h
2798 08-09-2010 08:06:02 14.1 C 11.17 g/m*3 14.1 C 0 km/h
2799 08-09-2010 08:18:02 14.1 C 11.17 g/m*3 14.1 C 0 km/h
2800 08-09-2010 08:30:02 14.2 C 11.23 g/m*3 14.2 C 0 km/h
Sensor: Nr:Datum:Temp:Abs-Feuchte:Windchill:Wind:
Aussen-T/F 2801 08-09-2010 08:42:02 14.3 C 11.3 g/m*3 14.3 C 0 km/h
2802 08-09-2010 08:54:02 14.4 C 11.37 g/m*3 14.4 C 0 km/h
2803 08-09-2010 09:06:01 14.8 C 11.65 g/m*3 14.8 C 0 km/h
2804 08-09-2010 09:18:02 15 C 11.54 g/m*3 15 C 0 km/h
2805 08-09-2010 09:30:02 15.3 C 11.62 g/m*3 15.3 C 0 km/h
2806 08-09-2010 09:42:02 15.5 C 11.76 g/m*3 15.5 C 0 km/h
2807 08-09-2010 09:54:02 15.5 C 11.5 g/m*3 15.5 C 0 km/h
2808 08-09-2010 10:06:02 15.5 C 11.5 g/m*3 15.5 C 0 km/h
2809 08-09-2010 10:18:02 15.3 C 11.36 g/m*3 15.3 C 0 km/h
2810 08-09-2010 10:30:02 15.5 C 11.37 g/m*3 15.5 C 0 km/h
2811 08-09-2010 10:42:02 15.6 C 11.44 g/m*3 15.6 C 0 km/h
2812 08-09-2010 10:54:02 15.7 C 11.37 g/m*3 15.7 C 0 km/h
2813 08-09-2010 11:06:02 15.7 C 11.11 g/m*3 15.7 C 0 km/h
2814 08-09-2010 11:18:02 15.4 C 10.9 g/m*3 15.4 C 0 km/h
2815 08-09-2010 11:30:02 15.1 C 10.97 g/m*3 15.1 C 0 km/h
2816 08-09-2010 11:42:02 15 C 11.03 g/m*3 15 C 0 km/h
2817 08-09-2010 11:54:02 15 C 11.16 g/m*3 15 C 0 km/h
2818 08-09-2010 12:06:02 14.6 C 11.01 g/m*3 14.6 C 0 km/h
2819 08-09-2010 12:18:03 14.6 C 11.14 g/m*3 14.6 C 0 km/h
2820 08-09-2010 12:30:03 14.7 C 11.21 g/m*3 14.7 C 0 km/h
2821 08-09-2010 12:42:02 14.8 C 11.4 g/m*3 14.8 C 0 km/h
2822 08-09-2010 12:54:01 15 C 11.54 g/m*3 15 C 0 km/h
2823 08-09-2010 13:06:01 15.5 C 11.9 g/m*3 15.5 C 0 km/h
2824 08-09-2010 13:18:02 15.8 C 12.11 g/m*3 15.8 C 0 km/h
2825 08-09-2010 13:30:02 16.3 C 12.35 g/m*3 16.3 C 0 km/h
Sensor: Nr:Datum:Temp:Abs-Feuchte:Windchill:Wind:
Aussen-T/F 2826 08-09-2010 13:42:01 16.8 C 12.44 g/m*3 16.8 C 0 km/h
2827 08-09-2010 13:54:02 16.7 C 11.8 g/m*3 16.7 C 0 km/h
2828 08-09-2010 14:06:02 17.4 C 12 g/m*3 17.4 C 0 km/h
2829 08-09-2010 14:18:02 17.2 C 11.42 g/m*3 17.2 C 0 km/h
2830 08-09-2010 14:30:02 17 C 11.29 g/m*3 17 C 0 km/h
2831 08-09-2010 14:42:02 17.9 C 11.6 g/m*3 17.9 C 0 km/h
2832 08-09-2010 14:54:02 18.4 C 11.48 g/m*3 18.4 C 0 km/h
2833 08-09-2010 15:06:01 18.2 C 11.04 g/m*3 18.2 C 0 km/h
2834 08-09-2010 15:18:01 17.8 C 11.08 g/m*3 17.8 C 0 km/h
2835 08-09-2010 15:30:02 17.6 C 11.1 g/m*3 17.6 C 0 km/h
2836 08-09-2010 15:42:01 17.8 C 11.23 g/m*3 17.8 C 0 km/h
2837 08-09-2010 15:54:02 18.3 C 11.41 g/m*3 18.3 C 0 km/h
2838 08-09-2010 16:06:01 19 C 10.92 g/m*3 19 C 0 km/h
2839 08-09-2010 16:18:01 18.7 C 10.89 g/m*3 18.7 C 0 km/h
2840 08-09-2010 16:30:01 18.5 C 10.6 g/m*3 18.5 C 0 km/h
2841 08-09-2010 16:42:02 18.5 C 10.6 g/m*3 18.5 C 0 km/h
2842 08-09-2010 16:54:02 18 C 10.44 g/m*3 18 C 0 km/h
2843 08-09-2010 17:06:02 19.3 C 10.45 g/m*3 19.3 C 0 km/h
2844 08-09-2010 17:18:02 20.4 C 10.08 g/m*3 20.4 C 0 km/h
2845 08-09-2010 17:30:02 20.5 C 10.14 g/m*3 20.5 C 0 km/h
2846 08-09-2010 17:42:02 19.5 C 10.07 g/m*3 19.5 C 0 km/h
2847 08-09-2010 17:54:02 19.7 C 10.36 g/m*3 19.7 C 0 km/h
2848 08-09-2010 18:06:02 19.3 C 10.28 g/m*3 19.3 C 0 km/h
2849 08-09-2010 18:18:01 20.2 C 9.97 g/m*3 20.2 C 0 km/h
2850 08-09-2010 18:30:01 19.3 C 10.12 g/m*3 19.3 C 0 km/h
Sensor: Nr:Datum:Temp:Abs-Feuchte:Windchill:Wind:
Aussen-T/F 2851 08-09-2010 18:42:02 18.3 C 10.16 g/m*3 18.3 C 0 km/h
2852 08-09-2010 18:54:02 18.2 C 10.57 g/m*3 18.2 C 0 km/h
2853 08-09-2010 19:06:02 18.6 C 10.66 g/m*3 18.6 C 0 km/h
2854 08-09-2010 19:18:01 18.7 C 10.57 g/m*3 18.7 C 0 km/h
2855 08-09-2010 19:30:01 18.3 C 10.48 g/m*3 18.3 C 0 km/h
2856 08-09-2010 19:42:02 17.9 C 10.69 g/m*3 17.9 C 0 km/h
2857 08-09-2010 19:54:02 17.5 C 10.29 g/m*3 17.5 C 0 km/h
2858 08-09-2010 20:06:03 17.4 C 10.52 g/m*3 17.4 C 0 km/h
2859 08-09-2010 20:18:02 17 C 10.42 g/m*3 17 C 0 km/h
2860 08-09-2010 20:30:02 16.7 C 10.66 g/m*3 16.7 C 0 km/h
2861 08-09-2010 20:42:02 16.6 C 10.74 g/m*3 16.6 C 0 km/h
2862 08-09-2010 20:54:01 16.3 C 10.27 g/m*3 16.3 C 0 km/h
2863 08-09-2010 21:06:01 15.9 C 10.02 g/m*3 15.9 C 0 km/h
2864 08-09-2010 21:18:01 15.8 C 9.69 g/m*3 15.8 C 0 km/h
2865 08-09-2010 21:30:01 15.7 C 9.63 g/m*3 15.7 C 0 km/h
2866 08-09-2010 21:42:01 15.7 C 9.63 g/m*3 15.7 C 0 km/h
2867 08-09-2010 21:54:01 15.5 C 9.52 g/m*3 15.5 C 0 km/h
2868 08-09-2010 22:06:01 15.2 C 9.48 g/m*3 15.2 C 0 km/h
2869 08-09-2010 22:18:02 14.9 C 9.56 g/m*3 14.9 C 0 km/h
2870 08-09-2010 22:30:02 14.6 C 9.76 g/m*3 14.6 C 0 km/h
2871 08-09-2010 22:42:02 14.5 C 9.95 g/m*3 14.5 C 0 km/h
2872 08-09-2010 22:55:02 14.7 C 10.2 g/m*3 14.7 C 0 km/h
2873 08-09-2010 23:07:02 14.5 C 9.95 g/m*3 14.5 C 0 km/h
2874 08-09-2010 23:19:02 14.5 C 10.07 g/m*3 14.5 C 0 km/h
2875 08-09-2010 23:31:02 14.6 C 10.01 g/m*3 14.6 C 0 km/h
Sensor: Nr:Datum:Temp:Abs-Feuchte:Windchill:Wind:
Aussen-T/F 2876 08-09-2010 23:43:02 14.5 C 10.07 g/m*3 14.5 C 0 km/h
2877 08-09-2010 23:55:03 14.3 C 9.95 g/m*3 14.3 C 0 km/h
2878 09-09-2010 00:07:03 14.4 C 10.14 g/m*3 14.4 C 0 km/h
2879 09-09-2010 00:19:03 14.4 C 10.14 g/m*3 14.4 C 0 km/h
2880 09-09-2010 00:31:03 14.1 C 10.07 g/m*3 14.1 C 0 km/h
2881 09-09-2010 00:43:03 14.5 C 10.32 g/m*3 14.5 C 0 km/h
2882 09-09-2010 00:55:03 14.5 C 10.32 g/m*3 14.5 C 0 km/h
2883 09-09-2010 01:07:03 14.8 C 10.39 g/m*3 14.8 C 0 km/h
2884 09-09-2010 01:19:03 15 C 10 g/m*3 15 C 0 km/h
2885 09-09-2010 01:31:03 15.1 C 10.06 g/m*3 15.1 C 0 km/h
2886 09-09-2010 01:43:03 15.2 C 9.99 g/m*3 15.2 C 0 km/h
2887 09-09-2010 01:55:03 15.1 C 9.93 g/m*3 15.1 C 0 km/h
2888 09-09-2010 02:07:03 15.2 C 9.99 g/m*3 15.2 C 0 km/h
2889 09-09-2010 02:19:03 15.1 C 9.93 g/m*3 15.1 C 0 km/h
2890 09-09-2010 02:31:03 15.1 C 9.93 g/m*3 15.1 C 0 km/h
2891 09-09-2010 02:43:03 15.1 C 9.93 g/m*3 15.1 C 0 km/h
2892 09-09-2010 02:55:03 15.2 C 9.86 g/m*3 15.2 C 0 km/h
2893 09-09-2010 03:07:03 15.2 C 9.86 g/m*3 15.2 C 0 km/h
2894 09-09-2010 03:19:03 15.3 C 9.79 g/m*3 15.3 C 0 km/h
2895 09-09-2010 03:31:03 15.3 C 9.79 g/m*3 15.3 C 0 km/h
2896 09-09-2010 03:43:03 15.4 C 9.72 g/m*3 15.4 C 0 km/h
2897 09-09-2010 03:55:04 15.4 C 9.72 g/m*3 15.4 C 0 km/h
2898 09-09-2010 04:07:04 15.4 C 9.59 g/m*3 15.4 C 0 km/h
2899 09-09-2010 04:19:04 15.2 C 9.48 g/m*3 15.2 C 0 km/h
2900 09-09-2010 04:31:04 15.2 C 9.35 g/m*3 15.2 C 0 km/h
Sensor: Nr:Datum:Temp:Abs-Feuchte:Windchill:Wind:
Aussen-T/F 2901 09-09-2010 04:43:04 15.2 C 9.22 g/m*3 15.2 C 0 km/h
2902 09-09-2010 04:55:04 15.1 C 9.03 g/m*3 15.1 C 0 km/h
2903 09-09-2010 05:07:04 14.9 C 9.05 g/m*3 14.9 C 0 km/h
2904 09-09-2010 05:19:04 14.9 C 9.05 g/m*3 14.9 C 0 km/h
2905 09-09-2010 05:31:04 14.9 C 9.05 g/m*3 14.9 C 0 km/h
2906 09-09-2010 05:43:04 14.9 C 9.05 g/m*3 14.9 C 0 km/h
2907 09-09-2010 05:55:04 14.9 C 8.92 g/m*3 14.9 C 0 km/h
2908 09-09-2010 06:07:04 14.8 C 8.87 g/m*3 14.8 C 0 km/h
2909 09-09-2010 06:19:04 14.8 C 8.87 g/m*3 14.8 C 0 km/h
2910 09-09-2010 06:31:04 14.8 C 8.87 g/m*3 14.8 C 0 km/h
2911 09-09-2010 06:43:04 14.8 C 8.87 g/m*3 14.8 C 0 km/h
2912 09-09-2010 06:55:04 14.7 C 8.94 g/m*3 14.7 C 0 km/h
2913 09-09-2010 07:07:04 14.5 C 9.08 g/m*3 14.5 C 0 km/h
2914 09-09-2010 07:19:04 14.5 C 9.08 g/m*3 14.5 C 0 km/h
2915 09-09-2010 07:31:04 14.6 C 9.13 g/m*3 14.6 C 0 km/h
2916 09-09-2010 07:43:04 14.6 C 9.01 g/m*3 14.6 C 0 km/h
2917 09-09-2010 07:55:04 14.7 C 9.07 g/m*3 14.7 C 0 km/h
2918 09-09-2010 08:07:02 14.7 C 9.07 g/m*3 14.7 C 0 km/h
2919 09-09-2010 08:19:02 14.8 C 9.12 g/m*3 14.8 C 0 km/h
2920 09-09-2010 08:31:02 14.8 C 9.12 g/m*3 14.8 C 0 km/h
2921 09-09-2010 08:43:02 14.8 C 9.12 g/m*3 14.8 C 0 km/h
2922 09-09-2010 08:55:02 14.9 C 9.05 g/m*3 14.9 C 0 km/h
2923 09-09-2010 09:07:02 14.9 C 9.05 g/m*3 14.9 C 0 km/h
2924 09-09-2010 09:19:03 14.9 C 9.05 g/m*3 14.9 C 0 km/h
2925 09-09-2010 09:31:02 15.2 C 9.09 g/m*3 15.2 C 0 km/h
Sensor: Nr:Datum:Temp:Abs-Feuchte:Windchill:Wind:
Aussen-T/F 2926 09-09-2010 09:43:02 15.5 C 9.12 g/m*3 15.5 C 0 km/h
2927 09-09-2010 09:55:01 15.8 C 9.15 g/m*3 15.8 C 0 km/h
2928 09-09-2010 10:07:02 16 C 8.99 g/m*3 16 C 0 km/h
2929 09-09-2010 10:19:02 16.4 C 9.07 g/m*3 16.4 C 0 km/h
2930 09-09-2010 10:31:01 16.8 C 9.15 g/m*3 16.8 C 0 km/h
2931 09-09-2010 10:43:01 17.2 C 9.08 g/m*3 17.2 C 0 km/h
2932 09-09-2010 10:55:02 17.4 C 9.19 g/m*3 17.4 C 0 km/h
2933 09-09-2010 11:07:01 17.5 C 9.09 g/m*3 17.5 C 0 km/h
2934 09-09-2010 11:19:02 17.5 C 9.09 g/m*3 17.5 C 0 km/h
2935 09-09-2010 11:31:02 17.8 C 8.8 g/m*3 17.8 C 0 km/h
2936 09-09-2010 11:43:02 17.8 C 8.65 g/m*3 17.8 C 0 km/h
2937 09-09-2010 11:55:02 18.3 C 8.76 g/m*3 18.3 C 0 km/h
2938 09-09-2010 12:07:01 18.5 C 8.23 g/m*3 18.5 C 0 km/h
2939 09-09-2010 12:19:02 18.6 C 8.28 g/m*3 18.6 C 0 km/h
2940 09-09-2010 12:31:02 18.6 C 8.12 g/m*3 18.6 C 0 km/h
2941 09-09-2010 12:43:02 19 C 8.15 g/m*3 19 C 0 km/h
2942 09-09-2010 12:55:02 18.5 C 8.07 g/m*3 18.5 C 0 km/h
2943 09-09-2010 13:07:02 18.6 C 8.28 g/m*3 18.6 C 0 km/h
2944 09-09-2010 13:19:02 18.7 C 8.17 g/m*3 18.7 C 0 km/h
2945 09-09-2010 13:31:02 18.7 C 8.01 g/m*3 18.7 C 0 km/h
2946 09-09-2010 13:43:02 19 C 8.15 g/m*3 19 C 0 km/h
2947 09-09-2010 13:55:02 19 C 8.47 g/m*3 19 C 0 km/h
2948 09-09-2010 14:07:02 18.6 C 8.12 g/m*3 18.6 C 0 km/h
2949 09-09-2010 14:19:02 18.4 C 8.18 g/m*3 18.4 C 0 km/h
2950 09-09-2010 14:31:02 18.8 C 8.86 g/m*3 18.8 C 0 km/h
Sensor: Nr:Datum:Temp:Abs-Feuchte:Windchill:Wind:
Aussen-T/F 2951 09-09-2010 14:43:02 19.3 C 8.79 g/m*3 19.3 C 0 km/h
2952 09-09-2010 14:55:02 19.8 C 9.05 g/m*3 19.8 C 0 km/h
2953 09-09-2010 15:07:02 20.3 C 8.97 g/m*3 20.3 C 0 km/h
2954 09-09-2010 15:19:02 20.3 C 8.97 g/m*3 20.3 C 0 km/h
2955 09-09-2010 15:31:02 19.5 C 8.89 g/m*3 19.5 C 0 km/h
2956 09-09-2010 15:43:02 18.7 C 9.29 g/m*3 18.7 C 0 km/h
2957 09-09-2010 15:55:02 18.1 C 9.43 g/m*3 18.1 C 0 km/h
2958 09-09-2010 16:07:01 17.7 C 9.51 g/m*3 17.7 C 0 km/h
2959 09-09-2010 16:19:02 16.1 C 10.14 g/m*3 16.1 C 0 km/h
2960 09-09-2010 16:31:01 16.1 C 10.42 g/m*3 16.1 C 0 km/h
2961 09-09-2010 16:43:01 17.1 C 11.79 g/m*3 17.1 C 0 km/h
2962 09-09-2010 16:55:02 18.5 C 12.82 g/m*3 18.5 C 0 km/h
2963 09-09-2010 17:07:02 18.2 C 12.28 g/m*3 18.2 C 0 km/h
2964 09-09-2010 17:19:02 18 C 12.13 g/m*3 18 C 0 km/h
2965 09-09-2010 17:31:02 17.9 C 11.45 g/m*3 17.9 C 0 km/h
2966 09-09-2010 17:43:02 17.8 C 11.08 g/m*3 17.8 C 0 km/h
2967 09-09-2010 17:55:02 17.7 C 11.16 g/m*3 17.7 C 0 km/h
2968 09-09-2010 18:07:02 17.7 C 11.32 g/m*3 17.7 C 0 km/h
2969 09-09-2010 18:19:01 17.7 C 10.86 g/m*3 17.7 C 0 km/h
2970 09-09-2010 18:31:02 17.7 C 10.41 g/m*3 17.7 C 0 km/h
2971 09-09-2010 18:43:03 17.9 C 10.38 g/m*3 17.9 C 0 km/h
2972 09-09-2010 18:55:02 17.5 C 9.39 g/m*3 17.5 C 0 km/h
2973 09-09-2010 19:07:02 17.2 C 9.37 g/m*3 17.2 C 0 km/h
2974 09-09-2010 19:19:01 16.8 C 9.44 g/m*3 16.8 C 0 km/h
2975 09-09-2010 19:31:02 16.5 C 9.55 g/m*3 16.5 C 0 km/h
Sensor: Nr:Datum:Temp:Abs-Feuchte:Windchill:Wind:
Aussen-T/F 2976 09-09-2010 19:43:02 16.2 C 9.52 g/m*3 16.2 C 0 km/h
2977 09-09-2010 19:55:01 16 C 9.4 g/m*3 16 C 0 km/h
2978 09-09-2010 20:07:02 15.9 C 9.48 g/m*3 15.9 C 0 km/h
2979 09-09-2010 20:19:02 15.8 C 9.42 g/m*3 15.8 C 0 km/h
2980 09-09-2010 20:31:01 15.4 C 9.72 g/m*3 15.4 C 0 km/h
2981 09-09-2010 20:43:01 15 C 10 g/m*3 15 C 0 km/h
2982 09-09-2010 20:55:01 14.9 C 10.2 g/m*3 14.9 C 0 km/h
2983 09-09-2010 21:07:01 14.9 C 10.32 g/m*3 14.9 C 0 km/h
2984 09-09-2010 21:19:02 14.9 C 10.32 g/m*3 14.9 C 0 km/h
2985 09-09-2010 21:31:01 14.8 C 10.26 g/m*3 14.8 C 0 km/h
2986 09-09-2010 21:43:01 14.7 C 10.2 g/m*3 14.7 C 0 km/h
2987 09-09-2010 21:55:02 14.7 C 10.2 g/m*3 14.7 C 0 km/h
2988 09-09-2010 22:07:02 14.7 C 10.2 g/m*3 14.7 C 0 km/h
2989 09-09-2010 22:19:01 14.8 C 10.13 g/m*3 14.8 C 0 km/h
2990 09-09-2010 22:31:01 14.8 C 10.26 g/m*3 14.8 C 0 km/h
2991 09-09-2010 22:43:01 14.7 C 10.2 g/m*3 14.7 C 0 km/h
2992 09-09-2010 22:56:02 14.7 C 10.07 g/m*3 14.7 C 0 km/h
2993 09-09-2010 23:08:02 14.8 C 10.01 g/m*3 14.8 C 0 km/h
2994 09-09-2010 23:20:03 15 C 9.75 g/m*3 15 C 0 km/h
2995 09-09-2010 23:32:03 15 C 9.62 g/m*3 15 C 0 km/h
2996 09-09-2010 23:44:03 15.1 C 9.68 g/m*3 15.1 C 0 km/h
2997 09-09-2010 23:56:03 15 C 9.49 g/m*3 15 C 0 km/h
2998 10-09-2010 00:08:03 14.9 C 9.81 g/m*3 14.9 C 0 km/h
2999 10-09-2010 00:20:03 14.8 C 9.88 g/m*3 14.8 C 0 km/h
3000 10-09-2010 00:32:03 14.6 C 10.01 g/m*3 14.6 C 0 km/h
Sensor: Nr:Datum:Temp:Abs-Feuchte:Windchill:Wind:
Aussen-T/F 3001 10-09-2010 00:44:03 14.6 C 10.01 g/m*3 14.6 C 0 km/h
3002 10-09-2010 00:56:03 14.4 C 9.89 g/m*3 14.4 C 0 km/h
3003 10-09-2010 01:08:03 14.3 C 9.83 g/m*3 14.3 C 0 km/h
3004 10-09-2010 01:20:03 14.1 C 9.71 g/m*3 14.1 C 0 km/h
3005 10-09-2010 01:32:03 13.9 C 9.71 g/m*3 13.9 C 0 km/h
3006 10-09-2010 01:44:03 13.8 C 9.77 g/m*3 13.8 C 0 km/h
3007 10-09-2010 01:56:03 13.9 C 9.83 g/m*3 13.9 C 0 km/h
3008 10-09-2010 02:08:03 13.8 C 9.89 g/m*3 13.8 C 0 km/h
3009 10-09-2010 02:20:03 13.8 C 9.89 g/m*3 13.8 C 0 km/h
3010 10-09-2010 02:32:03 13.9 C 10.07 g/m*3 13.9 C 0 km/h
3011 10-09-2010 02:44:03 14 C 10.01 g/m*3 14 C 0 km/h
3012 10-09-2010 02:56:03 14 C 9.89 g/m*3 14 C 0 km/h
3013 10-09-2010 03:08:03 14 C 10.01 g/m*3 14 C 0 km/h
3014 10-09-2010 03:20:03 14 C 10.01 g/m*3 14 C 0 km/h
3015 10-09-2010 03:32:04 13.9 C 10.07 g/m*3 13.9 C 0 km/h
3016 10-09-2010 03:44:04 13.8 C 10.13 g/m*3 13.8 C 0 km/h
3017 10-09-2010 03:56:04 13.8 C 10.13 g/m*3 13.8 C 0 km/h
3018 10-09-2010 04:08:04 13.9 C 10.31 g/m*3 13.9 C 0 km/h
3019 10-09-2010 04:20:04 14 C 10.25 g/m*3 14 C 0 km/h
3020 10-09-2010 04:32:04 13.9 C 10.31 g/m*3 13.9 C 0 km/h
3021 10-09-2010 04:44:04 13.8 C 10.25 g/m*3 13.8 C 0 km/h
3022 10-09-2010 04:56:04 13.6 C 10.12 g/m*3 13.6 C 0 km/h
3023 10-09-2010 05:08:04 13.4 C 10 g/m*3 13.4 C 0 km/h
3024 10-09-2010 05:20:04 13.2 C 9.99 g/m*3 13.2 C 0 km/h
3025 10-09-2010 05:32:04 13.1 C 10.04 g/m*3 13.1 C 0 km/h
Sensor: Nr:Datum:Temp:Abs-Feuchte:Windchill:Wind:
Aussen-T/F 3026 10-09-2010 05:44:04 12.8 C 9.97 g/m*3 12.8 C 0 km/h
3027 10-09-2010 05:56:04 12.8 C 9.97 g/m*3 12.8 C 0 km/h
3028 10-09-2010 06:08:04 13.2 C 10.33 g/m*3 13.2 C 0 km/h
3029 10-09-2010 06:20:04 13 C 10.09 g/m*3 13 C 0 km/h
3030 10-09-2010 06:32:04 13.1 C 10.27 g/m*3 13.1 C 0 km/h
3031 10-09-2010 06:44:04 13.1 C 10.27 g/m*3 13.1 C 0 km/h
3032 10-09-2010 06:56:04 13.2 C 10.22 g/m*3 13.2 C 0 km/h
3033 10-09-2010 07:08:04 13.1 C 10.16 g/m*3 13.1 C 0 km/h
3034 10-09-2010 07:20:04 13.2 C 9.99 g/m*3 13.2 C 0 km/h
3035 10-09-2010 07:32:05 13.3 C 9.7 g/m*3 13.3 C 0 km/h
3036 10-09-2010 07:44:05 13.2 C 9.64 g/m*3 13.2 C 0 km/h
3037 10-09-2010 07:56:02 13.1 C 9.7 g/m*3 13.1 C 0 km/h
3038 10-09-2010 08:08:02 13.1 C 9.81 g/m*3 13.1 C 0 km/h
3039 10-09-2010 08:20:02 13.1 C 9.93 g/m*3 13.1 C 0 km/h
3040 10-09-2010 08:32:02 13.2 C 9.99 g/m*3 13.2 C 0 km/h
3041 10-09-2010 08:44:03 13.5 C 10.06 g/m*3 13.5 C 0 km/h
3042 10-09-2010 08:56:02 13.7 C 9.95 g/m*3 13.7 C 0 km/h
3043 10-09-2010 09:08:02 14 C 9.77 g/m*3 14 C 0 km/h
3044 10-09-2010 09:20:02 14.4 C 9.64 g/m*3 14.4 C 0 km/h
3045 10-09-2010 09:32:02 14.5 C 9.58 g/m*3 14.5 C 0 km/h
3046 10-09-2010 09:44:02 14.9 C 9.43 g/m*3 14.9 C 0 km/h
3047 10-09-2010 09:56:02 15.2 C 9.22 g/m*3 15.2 C 0 km/h
3048 10-09-2010 10:08:02 15.5 C 9.39 g/m*3 15.5 C 0 km/h
3049 10-09-2010 10:20:03 15.7 C 9.23 g/m*3 15.7 C 0 km/h
3050 10-09-2010 10:32:02 16.2 C 9.38 g/m*3 16.2 C 0 km/h
Sensor: Nr:Datum:Temp:Abs-Feuchte:Windchill:Wind:
Aussen-T/F 3051 10-09-2010 10:44:02 16.6 C 9.46 g/m*3 16.6 C 0 km/h
3052 10-09-2010 10:56:02 16.8 C 9.29 g/m*3 16.8 C 0 km/h
3053 10-09-2010 11:08:02 17.2 C 9.37 g/m*3 17.2 C 0 km/h
3054 10-09-2010 11:20:02 17.7 C 9.51 g/m*3 17.7 C 0 km/h
3055 10-09-2010 11:32:02 18.1 C 9.12 g/m*3 18.1 C 0 km/h
3056 10-09-2010 11:44:02 18.1 C 8.96 g/m*3 18.1 C 0 km/h
3057 10-09-2010 11:56:02 18.3 C 9.07 g/m*3 18.3 C 0 km/h
3058 10-09-2010 12:08:01 18.6 C 9.07 g/m*3 18.6 C 0 km/h
3059 10-09-2010 12:20:02 18.7 C 9.13 g/m*3 18.7 C 0 km/h
3060 10-09-2010 12:32:02 18.4 C 9.12 g/m*3 18.4 C 0 km/h
3061 10-09-2010 12:44:02 18.8 C 9.34 g/m*3 18.8 C 0 km/h
3062 10-09-2010 12:56:02 19.2 C 9.23 g/m*3 19.2 C 0 km/h
3063 10-09-2010 13:08:03 19.5 C 8.89 g/m*3 19.5 C 0 km/h
3064 10-09-2010 13:20:02 19.4 C 8.84 g/m*3 19.4 C 0 km/h
3065 10-09-2010 13:32:02 19 C 8.47 g/m*3 19 C 0 km/h
3066 10-09-2010 13:44:02 19 C 8.47 g/m*3 19 C 0 km/h
3067 10-09-2010 13:56:01 19 C 8.64 g/m*3 19 C 0 km/h
3068 10-09-2010 14:08:02 19.3 C 8.79 g/m*3 19.3 C 0 km/h
3069 10-09-2010 14:20:01 19.9 C 8.76 g/m*3 19.9 C 0 km/h
3070 10-09-2010 14:32:01 20.4 C 8.67 g/m*3 20.4 C 0 km/h
3071 10-09-2010 14:44:01 20.2 C 8.74 g/m*3 20.2 C 0 km/h
3072 10-09-2010 14:56:01 19.9 C 8.76 g/m*3 19.9 C 0 km/h
3073 10-09-2010 15:08:02 20 C 8.64 g/m*3 20 C 0 km/h
3074 10-09-2010 15:20:02 20.6 C 8.95 g/m*3 20.6 C 0 km/h
3075 10-09-2010 15:32:01 20.9 C 8.38 g/m*3 20.9 C 0 km/h
Sensor: Nr:Datum:Temp:Abs-Feuchte:Windchill:Wind:
Aussen-T/F 3076 10-09-2010 15:44:01 21.2 C 8.34 g/m*3 21.2 C 0 km/h
3077 10-09-2010 15:56:02 21.4 C 8.62 g/m*3 21.4 C 0 km/h
3078 10-09-2010 16:08:01 21.2 C 8.34 g/m*3 21.2 C 0 km/h
3079 10-09-2010 16:20:02 20.8 C 8.33 g/m*3 20.8 C 0 km/h
3080 10-09-2010 16:32:01 21.1 C 8.48 g/m*3 21.1 C 0 km/h
3081 10-09-2010 16:44:01 21.2 C 8.71 g/m*3 21.2 C 0 km/h
3082 10-09-2010 16:56:02 21.2 C 8.34 g/m*3 21.2 C 0 km/h
3083 10-09-2010 17:08:02 20.9 C 8.56 g/m*3 20.9 C 0 km/h
3084 10-09-2010 17:20:02 20.5 C 8.9 g/m*3 20.5 C 0 km/h
3085 10-09-2010 17:32:03 20.1 C 9.04 g/m*3 20.1 C 0 km/h
3086 10-09-2010 17:44:03 19.8 C 9.39 g/m*3 19.8 C 0 km/h
3087 10-09-2010 17:56:02 19.6 C 8.95 g/m*3 19.6 C 0 km/h
3088 10-09-2010 18:08:02 19.4 C 9.18 g/m*3 19.4 C 0 km/h
3089 10-09-2010 18:20:02 18.9 C 9.56 g/m*3 18.9 C 0 km/h
3090 10-09-2010 18:32:02 17.8 C 10.17 g/m*3 17.8 C 0 km/h
3091 10-09-2010 18:44:02 16.8 C 10.72 g/m*3 16.8 C 0 km/h
3092 10-09-2010 18:56:02 16.4 C 11.03 g/m*3 16.4 C 0 km/h
3093 10-09-2010 19:08:02 16.4 C 11.31 g/m*3 16.4 C 0 km/h
3094 10-09-2010 19:20:02 16.8 C 11.72 g/m*3 16.8 C 0 km/h
3095 10-09-2010 19:32:02 16.3 C 11.38 g/m*3 16.3 C 0 km/h
3096 10-09-2010 19:44:02 16 C 11.31 g/m*3 16 C 0 km/h
3097 10-09-2010 19:56:02 15.8 C 11.44 g/m*3 15.8 C 0 km/h
3098 10-09-2010 20:08:03 15.8 C 11.58 g/m*3 15.8 C 0 km/h
3099 10-09-2010 20:20:02 15.7 C 11.51 g/m*3 15.7 C 0 km/h
3100 10-09-2010 20:32:03 15.6 C 11.57 g/m*3 15.6 C 0 km/h
Sensor: Nr:Datum:Temp:Abs-Feuchte:Windchill:Wind:
Aussen-T/F 3101 10-09-2010 20:44:03 15.6 C 11.57 g/m*3 15.6 C 0 km/h
3102 10-09-2010 20:56:02 15.7 C 11.64 g/m*3 15.7 C 0 km/h
3103 10-09-2010 21:08:01 15.8 C 11.71 g/m*3 15.8 C 0 km/h
3104 10-09-2010 21:20:02 15.8 C 11.71 g/m*3 15.8 C 0 km/h
3105 10-09-2010 21:32:02 15.8 C 11.71 g/m*3 15.8 C 0 km/h
3106 10-09-2010 21:44:02 15.8 C 11.71 g/m*3 15.8 C 0 km/h
3107 10-09-2010 21:56:02 15.8 C 11.58 g/m*3 15.8 C 0 km/h
3108 10-09-2010 22:08:01 15.8 C 11.58 g/m*3 15.8 C 0 km/h
3109 10-09-2010 22:20:02 15.8 C 11.58 g/m*3 15.8 C 0 km/h
3110 10-09-2010 22:32:01 15.7 C 11.51 g/m*3 15.7 C 0 km/h
3111 10-09-2010 22:44:01 15.6 C 11.3 g/m*3 15.6 C 0 km/h
3112 10-09-2010 22:57:03 15.5 C 11.24 g/m*3 15.5 C 0 km/h
3113 10-09-2010 23:09:03 15.6 C 11.3 g/m*3 15.6 C 0 km/h
3114 10-09-2010 23:21:03 15.5 C 11.24 g/m*3 15.5 C 0 km/h
3115 10-09-2010 23:33:03 15.5 C 11.24 g/m*3 15.5 C 0 km/h
3116 10-09-2010 23:45:03 15.4 C 11.17 g/m*3 15.4 C 0 km/h
3117 10-09-2010 23:57:03 15.3 C 10.97 g/m*3 15.3 C 0 km/h
3118 11-09-2010 00:09:03 15.2 C 10.9 g/m*3 15.2 C 0 km/h
3119 11-09-2010 00:21:03 15.2 C 10.9 g/m*3 15.2 C 0 km/h
3120 11-09-2010 00:33:03 15.1 C 10.84 g/m*3 15.1 C 0 km/h
3121 11-09-2010 00:45:03 15.1 C 10.84 g/m*3 15.1 C 0 km/h
3122 11-09-2010 00:57:03 15.1 C 10.84 g/m*3 15.1 C 0 km/h
3123 11-09-2010 01:09:03 15.1 C 10.84 g/m*3 15.1 C 0 km/h
3124 11-09-2010 01:21:03 15 C 10.77 g/m*3 15 C 0 km/h
3125 11-09-2010 01:33:03 15 C 10.77 g/m*3 15 C 0 km/h
Sensor: Nr:Datum:Temp:Abs-Feuchte:Windchill:Wind:
Aussen-T/F 3126 11-09-2010 01:45:04 15 C 10.77 g/m*3 15 C 0 km/h
3127 11-09-2010 01:57:04 14.9 C 10.83 g/m*3 14.9 C 0 km/h
3128 11-09-2010 02:09:04 14.9 C 10.83 g/m*3 14.9 C 0 km/h
3129 11-09-2010 02:21:04 14.8 C 10.77 g/m*3 14.8 C 0 km/h
3130 11-09-2010 02:33:04 14.7 C 10.58 g/m*3 14.7 C 0 km/h
3131 11-09-2010 02:45:04 14.7 C 10.7 g/m*3 14.7 C 0 km/h
3132 11-09-2010 02:57:04 14.6 C 10.76 g/m*3 14.6 C 0 km/h
3133 11-09-2010 03:09:04 14.4 C 10.63 g/m*3 14.4 C 0 km/h
3134 11-09-2010 03:21:04 14.3 C 10.57 g/m*3 14.3 C 0 km/h
3135 11-09-2010 03:33:04 14.1 C 10.44 g/m*3 14.1 C 0 km/h
3136 11-09-2010 03:45:04 14 C 10.37 g/m*3 14 C 0 km/h
3137 11-09-2010 03:57:04 13.6 C 10.12 g/m*3 13.6 C 0 km/h
3138 11-09-2010 04:09:04 13.5 C 10.06 g/m*3 13.5 C 0 km/h
3139 11-09-2010 04:21:04 13.3 C 9.94 g/m*3 13.3 C 0 km/h
3140 11-09-2010 04:33:04 13.1 C 9.81 g/m*3 13.1 C 0 km/h
3141 11-09-2010 04:45:04 13 C 9.75 g/m*3 13 C 0 km/h
3142 11-09-2010 04:57:04 12.8 C 9.74 g/m*3 12.8 C 0 km/h
3143 11-09-2010 05:09:04 12.6 C 9.62 g/m*3 12.6 C 0 km/h
3144 11-09-2010 05:21:04 12.5 C 9.68 g/m*3 12.5 C 0 km/h
3145 11-09-2010 05:33:04 12.6 C 9.74 g/m*3 12.6 C 0 km/h
3146 11-09-2010 05:45:05 12.7 C 9.91 g/m*3 12.7 C 0 km/h
3147 11-09-2010 05:57:05 12.8 C 9.97 g/m*3 12.8 C 0 km/h
3148 11-09-2010 06:09:05 13 C 10.09 g/m*3 13 C 0 km/h
3149 11-09-2010 06:21:05 13.1 C 10.16 g/m*3 13.1 C 0 km/h
3150 11-09-2010 06:33:05 12.8 C 9.97 g/m*3 12.8 C 0 km/h
Sensor: Nr:Datum:Temp:Abs-Feuchte:Windchill:Wind:
Aussen-T/F 3151 11-09-2010 06:45:05 12.5 C 9.78 g/m*3 12.5 C 0 km/h
3152 11-09-2010 06:57:05 12.3 C 9.56 g/m*3 12.3 C 0 km/h
3153 11-09-2010 07:09:05 12.1 C 9.44 g/m*3 12.1 C 0 km/h
3154 11-09-2010 07:21:05 12.1 C 9.44 g/m*3 12.1 C 0 km/h
3155 11-09-2010 07:33:05 12.1 C 9.54 g/m*3 12.1 C 0 km/h
3156 11-09-2010 07:45:05 12.1 C 9.54 g/m*3 12.1 C 0 km/h
3157 11-09-2010 07:57:05 12.4 C 9.72 g/m*3 12.4 C 0 km/h
3158 11-09-2010 08:09:05 12.7 C 10.02 g/m*3 12.7 C 0 km/h
3159 11-09-2010 08:21:03 13 C 10.21 g/m*3 13 C 0 km/h
3160 11-09-2010 08:33:02 13 C 10.21 g/m*3 13 C 0 km/h
3161 11-09-2010 08:45:02 13.1 C 10.27 g/m*3 13.1 C 0 km/h
3162 11-09-2010 08:57:02 13.4 C 10.46 g/m*3 13.4 C 0 km/h
3163 11-09-2010 09:09:02 13.4 C 10.35 g/m*3 13.4 C 0 km/h
3164 11-09-2010 09:21:02 13.5 C 10.41 g/m*3 13.5 C 0 km/h
3165 11-09-2010 09:33:02 13.7 C 10.54 g/m*3 13.7 C 0 km/h
3166 11-09-2010 09:45:01 13.9 C 10.67 g/m*3 13.9 C 0 km/h
3167 11-09-2010 09:57:01 14.3 C 10.81 g/m*3 14.3 C 0 km/h
3168 11-09-2010 10:09:02 14.7 C 11.08 g/m*3 14.7 C 0 km/h
3169 11-09-2010 10:21:01 15 C 11.03 g/m*3 15 C 0 km/h
3170 11-09-2010 10:33:01 15.6 C 11.3 g/m*3 15.6 C 0 km/h
3171 11-09-2010 10:45:01 16.2 C 11.45 g/m*3 16.2 C 0 km/h
3172 11-09-2010 10:57:01 16.8 C 11.72 g/m*3 16.8 C 0 km/h
3173 11-09-2010 11:09:01 17.1 C 11.5 g/m*3 17.1 C 0 km/h
3174 11-09-2010 11:21:02 17.5 C 11.18 g/m*3 17.5 C 0 km/h
3175 11-09-2010 11:33:01 18.2 C 11.35 g/m*3 18.2 C 0 km/h
Sensor: Nr:Datum:Temp:Abs-Feuchte:Windchill:Wind:
Aussen-T/F 3176 11-09-2010 11:45:03 19.1 C 11.31 g/m*3 19.1 C 0 km/h
3177 11-09-2010 11:57:03 19.3 C 11.44 g/m*3 19.3 C 0 km/h
3178 11-09-2010 12:09:02 19.2 C 9.89 g/m*3 19.2 C 0 km/h
3179 11-09-2010 12:21:02 19.6 C 9.96 g/m*3 19.6 C 0 km/h
3180 11-09-2010 12:33:02 19.9 C 9.45 g/m*3 19.9 C 0 km/h
3181 11-09-2010 12:45:02 20.2 C 9.27 g/m*3 20.2 C 0 km/h
3182 11-09-2010 12:57:02 20.6 C 9.31 g/m*3 20.6 C 0 km/h
3183 11-09-2010 13:09:02 20.9 C 9.11 g/m*3 20.9 C 0 km/h
3184 11-09-2010 13:21:02 21.3 C 8.76 g/m*3 21.3 C 0 km/h
3185 11-09-2010 13:33:01 21.7 C 8.97 g/m*3 21.7 C 0 km/h
3186 11-09-2010 13:45:02 22.2 C 8.44 g/m*3 22.2 C 0 km/h
3187 11-09-2010 13:57:03 22.7 C 8.69 g/m*3 22.7 C 0 km/h
3188 11-09-2010 14:09:01 23.3 C 8.15 g/m*3 23.3 C 0 km/h
3189 11-09-2010 14:21:01 23.9 C 8.44 g/m*3 23.9 C 0 km/h
3190 11-09-2010 14:33:02 24.3 C 8.19 g/m*3 24.3 C 0 km/h
3191 11-09-2010 14:45:02 24.5 C 7.83 g/m*3 24.5 C 0 km/h
3192 11-09-2010 14:57:02 25 C 8.06 g/m*3 25 C 0 km/h
3193 11-09-2010 15:09:02 25.6 C 8.09 g/m*3 25.6 C 0 km/h
3194 11-09-2010 15:21:02 25.7 C 7.9 g/m*3 25.7 C 0 km/h
3195 11-09-2010 15:33:02 25.6 C 8.57 g/m*3 25.6 C 0 km/h
3196 11-09-2010 15:45:02 26.5 C 7.51 g/m*3 26.5 C 0 km/h
3197 11-09-2010 15:57:02 26.8 C 7.13 g/m*3 26.8 C 0 km/h
3198 11-09-2010 16:09:02 25.7 C 7.66 g/m*3 25.7 C 0 km/h
3199 11-09-2010 16:21:02 25.3 C 9.13 g/m*3 25.3 C 0 km/h
3200 11-09-2010 16:33:02 26.5 C 8.01 g/m*3 26.5 C 0 km/h
Sensor: Nr:Datum:Temp:Abs-Feuchte:Windchill:Wind:
Aussen-T/F 3201 11-09-2010 16:45:02 26.4 C 7.72 g/m*3 26.4 C 0 km/h
3202 11-09-2010 16:57:02 27.8 C 8.34 g/m*3 27.8 C 0 km/h
3203 11-09-2010 17:09:02 28 C 7.61 g/m*3 28 C 0 km/h
3204 11-09-2010 17:21:02 27.3 C 7.85 g/m*3 27.3 C 0 km/h
3205 11-09-2010 17:33:02 27.5 C 8.47 g/m*3 27.5 C 0 km/h
3206 11-09-2010 17:45:02 27.6 C 8.78 g/m*3 27.6 C 0 km/h
3207 11-09-2010 17:57:02 27.7 C 8.83 g/m*3 27.7 C 0 km/h
3208 11-09-2010 18:09:02 27.5 C 9.26 g/m*3 27.5 C 0 km/h
3209 11-09-2010 18:21:02 26.8 C 9.16 g/m*3 26.8 C 0 km/h
3210 11-09-2010 18:33:01 26.3 C 8.91 g/m*3 26.3 C 0 km/h
3211 11-09-2010 18:45:02 25.3 C 9.36 g/m*3 25.3 C 0 km/h
3212 11-09-2010 18:57:02 24.4 C 9.57 g/m*3 24.4 C 0 km/h
3213 11-09-2010 19:09:01 23.7 C 9.63 g/m*3 23.7 C 0 km/h
3214 11-09-2010 19:21:02 22.6 C 9.64 g/m*3 22.6 C 0 km/h
3215 11-09-2010 19:33:02 21.6 C 10.05 g/m*3 21.6 C 0 km/h
3216 11-09-2010 19:45:02 20.7 C 9.72 g/m*3 20.7 C 0 km/h
3217 11-09-2010 19:57:02 20.2 C 9.44 g/m*3 20.2 C 0 km/h
3218 11-09-2010 20:09:02 20 C 9.33 g/m*3 20 C 0 km/h
3219 11-09-2010 20:21:02 19.5 C 9.4 g/m*3 19.5 C 0 km/h
3220 11-09-2010 20:33:02 19.3 C 9.45 g/m*3 19.3 C 0 km/h
3221 11-09-2010 20:45:01 19.1 C 9.67 g/m*3 19.1 C 0 km/h
3222 11-09-2010 20:57:01 18.8 C 9.66 g/m*3 18.8 C 0 km/h
3223 11-09-2010 21:09:02 18.6 C 9.71 g/m*3 18.6 C 0 km/h
3224 11-09-2010 21:21:01 18.4 C 9.91 g/m*3 18.4 C 0 km/h
3225 11-09-2010 21:33:01 18.2 C 10.1 g/m*3 18.2 C 0 km/h
Sensor: Nr:Datum:Temp:Abs-Feuchte:Windchill:Wind:
Aussen-T/F 3226 11-09-2010 21:45:01 17.7 C 10.11 g/m*3 17.7 C 0 km/h
3227 11-09-2010 21:57:01 17.6 C 10.2 g/m*3 17.6 C 0 km/h
3228 11-09-2010 22:09:02 17.6 C 10.2 g/m*3 17.6 C 0 km/h